ECMWFNIL_925_thetae_000.txt.gz
Theta_e
308 308 309 308 308 308 308 309 308 308 308 307 307 307 307 307 307 308 308 309 310 310 311 312 313 314 316 317 318 319 320 322 324 326 326 327 328 328 328 327 325 324
307 307 308 308 307 307 307 307 307 307 307 307 307 307 307 307 306 306 307 307 308 309 310 311 312 313 315 316 317 318 319 320 321 324 325 326 328 327 327 328 327 325
307 307 307 307 307 307 307 306 306 306 307 307 307 307 307 306 306 306 306 306 307 308 308 310 311 312 313 314 316 317 318 319 320 322 323 325 327 328 328 328 328 327
308 308 307 307 307 306 306 306 306 306 306 307 307 307 306 306 305 305 305 306 306 306 307 307 308 310 311 313 315 316 317 319 319 320 321 323 326 327 327 328 329 328
308 308 307 307 306 306 306 306 306 306 306 306 306 306 306 305 305 305 305 305 305 305 306 306 307 308 310 311 313 315 316 318 319 319 320 321 323 325 326 327 328 328
308 307 307 307 306 306 306 305 305 305 305 305 305 304 304 304 304 304 304 304 304 304 305 305 306 307 308 310 311 313 315 317 318 319 319 319 320 323 325 326 327 328
308 307 307 307 306 306 305 305 304 304 304 304 304 304 303 304 304 303 303 303 304 304 304 304 305 305 307 308 310 312 314 315 317 318 319 319 319 320 322 324 325 327
307 307 307 306 306 306 305 304 304 304 304 303 303 303 302 302 303 303 302 302 303 303 303 304 304 305 305 306 308 309 311 313 316 317 318 319 319 319 319 321 323 326
307 306 306 306 306 305 305 304 304 304 304 303 303 302 302 302 302 302 302 302 302 302 303 303 303 304 304 305 306 307 308 310 313 315 317 318 319 319 320 320 321 323
306 306 306 306 305 305 305 304 304 304 304 303 303 303 302 302 302 301 301 301 301 302 302 302 302 303 303 304 305 305 306 308 310 312 315 316 318 319 320 320 320 321
306 306 306 305 305 305 304 304 304 304 303 303 303 303 302 302 302 301 301 301 301 301 301 301 301 302 302 303 303 304 305 306 308 310 312 314 316 317 319 320 320 321
306 306 305 304 304 304 304 303 303 303 303 303 304 303 303 302 302 301 301 301 300 300 300 300 300 301 301 301 302 303 303 305 306 308 310 312 315 316 317 319 320 321
305 305 304 304 303 303 303 303 303 303 303 303 303 303 303 302 301 301 301 300 300 300 300 300 300 300 300 300 301 302 303 304 305 306 309 311 313 315 317 318 319 320
305 304 303 303 302 302 303 303 303 303 303 302 302 302 302 301 301 300 300 300 300 300 299 299 299 299 300 300 300 301 302 303 304 305 307 309 312 314 316 317 318 319
304 303 303 302 302 302 302 302 302 302 302 302 302 301 301 301 300 300 300 299 299 299 299 299 299 299 300 300 300 301 302 303 303 304 306 308 311 314 316 317 318 319
303 303 303 302 303 302 302 302 302 301 301 301 301 301 301 301 300 300 300 299 299 299 299 299 299 299 299 299 299 300 301 302 304 305 305 307 310 313 315 316 318 319
303 303 303 303 302 302 302 301 301 301 301 301 301 301 301 300 300 300 300 299 299 298 298 298 298 298 299 299 299 299 300 301 302 304 305 307 309 312 314 316 317 319
303 303 303 302 302 302 301 301 301 301 301 301 301 300 300 300 300 299 299 299 299 298 298 298 298 298 298 298 298 298 299 299 300 302 304 306 309 311 314 316 317 318
303 303 302 302 302 301 301 300 300 300 300 300 300 299 299 299 299 298 298 298 298 298 298 298 298 298 298 298 298 298 298 298 299 300 302 305 307 310 313 316 317 318
303 302 302 301 301 300 300 300 300 299 299 299 299 298 298 298 297 297 297 297 297 297 297 297 298 298 298 298 298 298 298 298 298 299 300 302 305 308 311 315 317 318
302 301 301 301 300 300 299 299 299 298 298 298 297 297 297 296 296 296 296 296 296 296 297 297 297 297 297 297 297 298 298 298 298 299 300 301 304 306 309 312 315 318
301 301 301 300 300 299 299 299 299 298 298 297 297 296 296 296 295 295 295 295 296 296 296 296 297 297 297 297 297 298 298 298 298 298 300 301 303 306 307 309 313 317
301 301 300 300 299 299 299 299 298 298 297 297 296 296 296 295 295 295 295 295 295 296 296 296 297 297 297 297 297 297 298 298 298 299 300 301 303 305 307 308 311 315
301 300 300 300 299 299 299 298 298 298 297 297 296 296 296 295 295 295 295 295 295 295 295 296 296 297 297 297 297 297 298 298 299 300 300 302 303 304 306 308 310 313
300 300 300 300 299 299 298 298 298 297 297 296 296 296 295 295 295 294 294 294 294 295 295 295 296 296 297 297 297 298 298 298 299 300 301 302 304 305 307 308 310 312
300 300 300 299 299 298 298 298 297 297 296 296 296 295 295 294 294 294 294 294 294 295 295 295 296 297 298 298 298 298 298 298 299 301 302 303 305 306 308 309 311 313

ECMWFNIL_925_thetae_006.txt.gz
Theta_e
317 316 316 316 316 315 316 316 315 315 315 314 314 313 313 314 313 314 313 313 313 313 312 312 312 312 313 314 315 315 316 317 317 318 319 320 321 322 324 326 328 330
316 316 315 315 315 314 315 316 315 315 314 314 314 314 314 313 313 314 313 313 313 312 312 312 312 312 312 313 313 314 315 315 316 317 318 319 320 321 322 324 326 328
316 315 315 315 314 314 314 315 315 314 313 314 313 313 313 313 313 313 313 313 312 312 311 311 311 311 311 311 311 312 313 314 315 316 317 318 319 320 321 322 324 326
315 315 314 314 313 314 314 314 313 312 312 313 313 312 313 313 313 312 312 312 311 311 310 309 309 309 309 309 310 310 311 311 313 314 315 316 317 318 320 321 322 324
315 314 314 313 313 314 314 314 313 313 313 313 312 312 312 311 311 311 310 310 310 310 309 309 308 308 308 308 308 309 309 310 311 312 313 314 315 317 318 320 321 322
316 315 314 313 313 313 313 313 313 313 313 312 312 311 310 310 310 310 309 309 308 308 308 308 308 307 307 307 307 308 308 309 309 310 311 313 314 316 317 319 320 321
315 314 313 313 313 313 312 312 312 312 312 311 311 310 310 309 309 309 308 307 307 307 307 307 307 307 307 306 307 307 307 308 308 308 309 311 312 314 315 317 318 320
315 314 314 313 313 313 312 312 312 312 311 311 310 310 309 309 308 308 307 307 307 306 306 306 306 306 306 306 306 306 307 307 307 308 308 309 310 312 314 315 316 318
315 314 313 313 313 313 313 312 312 312 311 311 310 310 309 309 308 308 307 307 307 306 306 306 305 305 305 305 306 306 306 306 306 307 308 308 309 310 312 313 315 316
315 314 314 313 313 313 313 312 312 311 311 311 310 310 309 309 308 307 307 307 306 306 306 306 305 305 305 305 305 305 306 306 306 306 307 307 308 308 310 311 313 314
315 314 314 313 313 313 312 312 312 311 311 311 310 309 309 308 307 307 306 306 306 306 306 305 305 305 305 305 305 305 305 305 306 306 306 307 307 307 308 309 311 313
315 314 313 313 312 312 312 311 311 311 310 310 309 308 308 307 307 306 306 306 305 306 305 306 306 305 305 305 305 305 305 305 305 305 305 306 306 307 307 308 309 311
315 314 313 312 312 312 312 311 311 310 309 308 308 307 307 306 306 305 305 305 305 305 305 305 305 306 306 305 305 305 305 305 305 305 305 305 305 306 306 307 307 309
314 313 312 312 312 311 311 310 309 308 308 307 307 306 305 305 305 305 304 304 305 305 305 305 305 305 305 305 305 304 305 305 305 304 304 304 305 305 305 306 306 307
313 312 312 311 311 310 309 309 308 307 307 306 305 305 304 304 304 304 304 304 304 304 304 304 304 305 304 304 304 304 304 304 304 304 304 304 304 305 305 305 305 306
311 311 311 310 310 309 308 308 307 306 306 305 305 304 304 304 303 303 303 303 303 303 303 304 304 304 304 304 304 304 304 304 304 303 304 304 304 304 304 305 305 305
311 311 310 310 309 308 308 307 306 306 305 305 304 304 303 303 303 302 302 302 302 302 302 302 303 303 303 303 303 303 303 303 303 302 303 303 302 303 303 304 304 305
311 310 309 308 308 308 307 306 305 305 304 304 304 303 303 302 302 301 301 301 301 301 301 301 302 302 302 302 302 302 302 302 302 302 302 302 302 302 301 302 302 303
310 309 308 308 308 307 306 305 305 304 304 303 303 302 302 302 301 301 301 301 301 300 300 300 300 300 300 300 300 300 300 300 300 300 300 301 301 301 301 301 301 301
309 308 308 307 307 306 305 305 304 304 303 303 302 302 302 301 301 301 300 300 300 300 300 300 300 299 299 299 299 299 299 299 299 298 299 299 300 300 300 300 300 300
308 307 307 307 306 305 305 304 304 303 303 302 302 302 301 301 300 300 300 300 300 300 300 300 299 299 299 299 299 299 298 298 298 298 298 298 298 299 299 300 300 300
307 306 306 306 305 305 304 304 304 303 303 302 302 301 300 300 300 300 300 299 299 299 299 299 299 299 299 298 298 298 298 297 297 297 297 298 298 298 298 299 299 299
306 306 306 305 305 305 304 304 303 303 302 301 301 300 300 300 299 299 299 299 299 299 299 299 298 298 298 297 297 297 296 296 296 297 297 297 297 297 298 298 298 298
306 305 305 305 304 304 303 303 302 302 301 301 300 300 299 299 299 299 298 298 298 298 298 298 297 297 297 296 296 296 296 295 296 296 296 296 297 297 297 297 298 298
305 305 304 304 304 303 303 302 302 301 301 300 299 299 299 298 298 298 298 297 297 297 297 296 296 296 296 296 296 295 295 295 295 295 295 296 296 296 296 297 297 297
304 304 304 303 303 303 302 302 301 300 300 299 299 299 298 298 298 297 297 297 296 296 296 295 295 295 295 295 295 294 294 294 294 295 295 295 296 296 296 296 297 297

ECMWFNIL_925_thetae_009.txt.gz
Theta_e
316 316 316 315 314 316 318 316 315 315 315 315 313 313 314 313 313 313 312 312 311 311 311 310 310 310 310 310 310 311 312 313 313 314 314 315 315 317 318 318 319 320
317 317 316 315 314 316 317 315 315 315 315 314 313 313 313 313 313 313 312 313 312 312 311 311 311 311 311 311 311 311 310 311 311 312 312 313 314 315 316 316 318 318
317 317 316 315 314 315 315 315 315 314 314 314 314 312 312 312 311 312 312 312 312 312 311 311 311 310 310 309 309 309 309 309 310 310 310 311 312 313 314 314 315 317
317 317 316 315 313 312 314 315 315 314 313 313 312 311 311 311 311 311 312 311 311 311 311 310 310 309 309 308 308 308 308 308 308 308 309 309 309 310 311 313 313 314
317 316 316 315 313 313 313 314 314 313 312 310 310 311 311 311 311 311 310 309 310 310 309 309 309 308 308 308 307 307 307 307 307 307 308 308 308 309 310 311 312 313
317 317 315 314 314 313 314 313 313 312 311 310 311 312 311 311 310 309 309 309 309 309 308 308 307 307 307 307 307 306 306 307 307 307 307 307 308 308 308 309 310 312
317 316 315 314 314 313 313 313 313 312 311 311 312 311 311 309 308 308 309 309 308 308 307 307 306 306 306 306 306 306 306 306 306 306 306 306 307 307 307 308 308 309
317 317 315 314 313 312 312 313 312 311 311 311 311 310 310 309 309 309 309 309 308 308 307 307 306 306 306 306 305 305 305 305 305 305 305 306 306 306 306 307 307 308
318 316 315 314 313 312 312 312 311 311 311 310 310 310 309 309 309 309 309 308 308 307 307 307 306 306 305 305 305 305 305 305 305 305 305 305 305 305 306 306 306 307
317 316 315 314 313 313 313 312 311 310 310 310 310 310 310 310 310 309 309 308 307 307 307 306 306 306 305 305 305 305 305 305 305 305 305 305 305 305 305 305 306 306
317 315 315 314 313 313 313 312 312 311 311 311 311 311 310 310 310 309 308 307 307 306 306 305 305 305 305 305 305 305 305 305 305 305 305 305 305 305 305 305 305 306
316 315 315 314 313 313 312 312 312 312 311 311 311 310 310 310 309 308 307 306 306 305 305 305 305 304 305 305 305 305 305 305 305 305 305 305 305 305 305 305 305 305
316 315 314 313 313 313 312 312 312 312 311 311 311 310 309 308 307 307 306 305 305 304 304 304 304 304 304 304 304 304 304 304 304 304 304 304 304 304 304 304 304 304
315 315 314 314 313 313 312 312 311 311 311 310 309 309 308 307 306 306 305 304 304 304 304 304 303 303 303 304 304 304 304 304 304 304 304 304 304 304 304 304 304 304
315 314 314 314 313 312 312 312 311 311 310 309 308 308 307 306 305 304 304 304 304 303 303 303 302 302 302 302 303 303 303 304 304 304 304 304 304 304 304 304 304 304
314 314 314 313 312 312 312 311 310 309 309 308 307 307 306 305 304 304 303 303 303 302 302 302 301 301 301 301 301 302 302 302 302 302 302 302 302 302 303 303 303 303
315 314 313 313 312 311 311 310 309 308 308 307 307 306 305 304 304 303 303 302 302 301 301 301 300 300 300 300 300 300 300 300 300 300 300 300 300 301 301 301 302 302
314 313 313 312 311 310 310 309 308 308 307 306 306 305 304 303 303 303 302 301 301 300 300 300 300 300 300 300 299 299 299 299 299 299 299 299 299 299 299 300 300 300
313 312 311 311 310 309 308 308 308 307 306 305 304 304 303 303 303 302 301 301 300 300 300 299 299 299 299 299 299 299 299 299 299 299 299 298 298 298 298 298 298 299
311 311 310 310 309 308 308 307 307 306 305 304 304 303 303 302 302 301 300 300 299 299 299 299 299 299 299 299 299 299 299 299 299 298 298 298 298 297 298 298 298 298
310 310 309 309 308 307 307 307 306 305 304 304 303 303 302 301 300 300 300 299 299 299 299 298 298 298 298 298 298 298 298 298 297 297 297 296 297 297 297 297 297 297
310 308 308 307 307 306 306 306 305 304 304 303 302 302 300 300 300 299 299 298 298 298 298 298 298 297 297 297 297 297 297 296 296 296 296 296 295 295 296 296 296 296
308 307 307 307 306 306 305 305 304 304 303 302 301 300 300 299 299 298 298 298 297 297 297 297 297 297 296 296 296 296 296 296 295 295 295 295 295 295 295 295 295 295
307 306 306 306 305 305 304 303 303 302 301 301 300 300 299 299 298 298 297 297 297 296 296 296 296 296 296 295 295 295 295 295 295 294 294 294 294 294 294 294 294 294
306 306 305 305 304 303 303 302 302 301 301 300 300 299 299 298 298 297 297 296 295 295 295 295 296 295 295 295 295 294 294 294 294 294 293 293 293 293 293 293 294 294
305 305 304 304 304 303 302 302 301 301 300 300 299 299 298 298 297 297 296 295 295 294 295 295 295 295 294 294 294 294 294 294 293 293 293 293 293 293 293 293 293 293

ECMWFNIL_925_thetae_012.txt.gz
Theta_e
316 315 315 315 316 315 314 315 314 312 310 311 312 313 314 314 314 315 315 314 313 312 311 310 310 308 307 308 308 308 308 308 308 307 307 308 309 309 310 310 311 312
318 317 316 316 316 315 314 315 314 313 312 312 313 314 314 314 314 314 313 312 311 311 311 310 309 308 308 309 309 309 308 308 308 307 307 307 308 308 308 308 309 310
318 317 316 316 316 315 315 315 315 315 314 313 314 314 313 313 313 312 311 310 310 311 311 310 308 309 309 309 309 309 308 308 308 307 307 307 307 307 307 307 307 308
317 317 316 316 316 315 314 315 317 316 314 314 315 314 313 313 311 310 309 309 310 310 310 309 309 309 309 308 308 308 307 307 307 306 306 306 306 306 306 306 307 307
317 317 316 315 316 316 314 315 316 316 314 314 315 314 313 312 310 309 309 310 310 309 308 308 309 308 307 307 307 307 307 307 306 306 306 306 305 305 305 306 306 306
317 317 316 316 316 316 315 314 315 315 315 314 314 313 312 310 309 310 310 309 308 308 308 308 308 307 307 306 306 306 306 306 306 305 305 305 305 305 305 305 305 305
318 317 317 316 317 316 315 313 313 314 314 314 313 311 310 309 310 310 309 308 308 308 308 308 307 307 306 306 306 305 305 305 305 305 305 305 305 304 305 305 305 305
319 318 317 317 317 316 315 313 313 314 314 313 312 310 309 310 310 309 308 308 308 309 308 308 307 307 306 306 305 305 305 305 305 305 305 305 304 304 304 304 304 304
320 319 318 317 316 316 315 314 313 313 313 313 311 309 310 310 310 309 308 309 309 308 308 307 307 306 306 306 305 305 305 305 305 305 305 305 305 304 304 304 304 304
320 319 318 317 316 315 314 314 313 313 313 312 310 309 310 310 309 309 309 309 308 307 307 306 306 306 305 305 305 305 305 305 305 305 305 305 304 304 304 304 304 304
320 319 318 317 316 315 314 313 313 313 312 310 309 309 310 310 310 310 309 309 308 307 306 305 305 305 304 304 304 304 304 304 304 304 304 304 304 304 304 304 304 304
320 319 318 317 316 315 314 313 312 312 311 310 309 310 310 310 310 310 309 308 307 306 305 304 304 304 304 304 304 303 303 304 304 304 304 304 304 304 303 303 303 303
319 319 318 317 316 315 314 313 312 312 311 310 310 311 311 310 310 309 308 307 306 305 304 304 304 303 303 303 303 303 303 302 302 302 303 303 303 303 303 303 303 303
319 318 318 317 316 315 313 313 312 312 311 311 311 311 311 310 310 308 307 306 305 304 304 303 303 303 302 302 302 301 301 301 301 301 301 301 302 302 302 302 303 303
318 317 317 316 315 314 313 313 312 312 311 311 311 311 310 310 308 307 306 305 304 304 303 303 302 302 301 301 301 300 300 300 299 300 300 300 300 300 300 300 301 301
316 316 316 316 315 314 313 312 312 312 311 311 311 310 309 308 307 306 305 304 303 303 303 302 301 301 300 300 300 299 299 299 299 299 299 299 299 299 299 299 299 299
315 315 315 315 314 313 313 312 312 311 311 311 310 309 308 307 306 305 304 303 303 302 301 301 300 300 299 299 299 299 299 299 299 299 299 299 298 298 298 298 298 298
315 315 315 314 314 313 313 312 311 311 311 310 309 308 307 306 305 304 303 302 302 301 300 300 299 299 299 298 298 298 298 299 299 299 299 298 298 298 298 298 298 298
315 315 314 314 314 313 312 312 311 311 310 309 308 307 306 305 303 302 302 301 300 300 299 299 298 298 298 298 298 297 298 298 298 298 298 298 297 298 297 297 297 297
314 314 314 313 313 312 312 311 311 310 309 308 307 305 304 303 302 302 301 300 300 299 299 298 297 296 296 296 296 297 297 297 296 296 296 296 296 296 296 296 296 296
314 314 314 313 313 312 311 310 309 308 308 306 305 304 303 302 301 301 300 299 299 298 297 296 294 294 294 294 295 295 295 295 295 295 295 295 295 295 295 295 295 295
313 313 313 312 312 311 310 309 308 307 306 304 303 303 302 301 300 300 299 299 298 297 296 294 294 293 293 293 294 294 294 295 295 295 295 294 294 294 294 294 294 294
313 312 312 311 310 309 308 308 307 305 304 303 302 302 301 300 300 299 298 298 297 295 295 294 294 294 294 294 294 294 294 294 294 295 294 294 294 294 294 293 293 293
312 311 310 309 308 307 306 305 304 303 302 302 301 301 300 300 299 298 298 298 296 295 295 295 295 295 294 294 294 294 294 294 294 294 294 294 294 293 293 293 293 293
310 309 308 307 306 305 304 303 302 302 301 301 300 300 299 299 298 298 298 297 296 295 296 295 295 294 293 293 293 293 293 294 294 293 293 293 293 293 293 292 292 292
308 308 307 306 305 303 303 302 301 300 300 300 299 299 299 299 299 298 297 296 296 296 295 294 293 292 292 292 293 293 293 293 293 293 292 292 292 292 292 292 292 292

ECMWFNIL_925_thetae_015.txt.gz
Theta_e
314 314 316 316 316 315 314 313 312 312 310 308 307 308 309 310 312 313 313 314 315 314 313 311 310 309 307 306 306 308 308 308 308 308 307 307 306 306 306 306 306 306
314 314 315 315 315 314 314 314 314 313 312 311 309 309 310 312 313 314 314 314 314 313 312 311 309 307 306 306 306 307 308 308 307 307 307 306 306 306 306 305 305 305
315 315 315 315 315 314 314 314 314 314 313 312 311 310 311 312 313 314 314 313 312 311 311 309 307 306 306 306 306 306 306 306 307 307 306 306 306 306 305 305 305 305
317 316 316 315 315 314 314 315 314 314 314 313 312 311 311 313 313 313 313 312 311 309 308 307 306 306 306 307 306 306 306 305 306 306 305 305 305 305 305 304 304 304
318 318 316 316 316 315 315 315 315 315 314 313 314 312 311 313 313 313 312 311 309 308 307 307 306 307 307 307 306 306 306 306 305 305 305 305 305 304 304 304 304 304
319 319 318 316 317 316 316 316 315 315 314 314 314 314 312 313 313 313 311 309 308 307 307 307 307 307 307 307 306 306 306 306 305 305 305 305 305 304 304 304 304 304
320 320 319 317 317 317 316 316 315 315 315 314 315 314 313 313 314 312 309 308 308 307 307 307 308 308 307 307 306 306 306 305 305 305 305 304 305 305 304 304 304 304
321 321 319 318 317 317 317 316 316 315 314 315 315 314 314 314 313 310 309 308 308 307 307 308 308 308 307 306 306 305 305 305 305 305 305 305 304 305 305 304 304 303
320 321 320 318 317 317 316 315 315 315 315 315 315 314 314 313 311 309 309 309 308 308 308 308 308 307 307 306 305 305 305 304 304 304 304 304 304 304 304 304 304 303
319 320 319 318 317 317 316 316 316 316 315 315 314 314 313 311 309 309 309 309 308 308 308 308 307 306 306 305 305 304 304 304 304 304 304 303 304 304 304 304 304 304
319 319 318 318 317 317 316 316 316 316 315 314 314 314 312 310 309 310 309 309 309 309 308 307 306 305 305 304 304 303 304 303 303 303 303 303 303 303 303 303 304 303
319 318 318 318 317 317 316 316 316 315 314 314 314 313 311 310 310 310 309 309 309 308 307 306 305 304 304 303 303 303 303 302 302 302 301 301 301 301 301 302 302 303
320 319 319 318 318 317 317 316 316 315 314 313 313 312 310 310 310 310 310 309 308 307 306 305 304 304 303 303 302 302 302 301 301 300 300 300 299 299 299 299 300 300
319 319 319 318 317 317 316 316 315 314 313 313 312 310 310 310 310 310 309 308 307 306 305 304 303 303 302 302 301 300 300 300 299 299 299 299 299 299 298 299 299 299
318 318 317 317 316 316 316 315 314 314 313 312 311 310 310 310 310 309 308 307 306 304 304 303 302 302 301 300 300 299 299 299 298 298 299 299 299 299 299 298 298 298
319 317 316 315 314 314 314 314 314 313 312 311 311 310 310 310 309 308 307 306 305 303 303 302 302 301 300 299 299 298 298 298 298 298 298 298 298 298 298 298 298 298
320 318 315 314 312 312 313 313 313 313 312 311 311 310 310 310 309 307 306 305 304 303 302 302 301 300 299 298 297 296 295 295 296 297 297 297 298 297 297 297 297 297
320 317 315 313 313 314 314 314 313 313 312 311 311 311 310 309 308 306 305 304 303 302 302 301 300 299 298 296 295 294 293 293 294 295 295 296 296 296 296 296 296 296
318 316 315 314 315 315 315 315 313 312 312 311 311 310 309 308 306 305 304 303 302 301 301 300 298 297 296 294 293 293 293 293 293 293 294 294 295 295 295 295 295 295
317 316 315 314 315 314 313 313 312 312 311 311 310 309 308 306 305 304 303 302 301 300 299 298 296 295 294 293 294 294 293 292 293 293 293 294 294 294 294 294 294 294
315 315 314 313 313 313 313 312 312 312 311 310 309 308 307 305 304 303 302 301 300 299 297 296 295 294 294 294 294 293 292 292 292 293 293 293 294 294 294 294 294 294
315 313 312 312 312 313 313 312 312 311 310 309 308 306 305 304 303 302 301 300 299 297 296 295 295 295 295 294 293 292 291 291 292 292 293 293 293 293 293 293 293 293
314 312 311 311 312 312 311 311 311 310 309 308 306 304 303 302 302 301 299 298 298 297 296 295 295 295 294 292 291 291 291 291 291 292 292 293 293 293 293 293 293 293
312 310 310 311 312 311 311 310 310 308 307 306 305 303 302 301 300 299 298 298 297 297 296 295 295 294 292 291 291 291 291 291 291 291 292 292 292 292 292 292 292 292
311 310 310 310 310 310 309 308 307 306 305 304 303 302 300 299 298 298 298 298 297 296 296 296 294 293 291 291 291 291 291 291 291 291 291 291 291 291 291 291 291 291
309 308 308 308 307 307 306 306 305 304 303 301 300 299 298 298 298 298 298 298 297 296 296 295 293 292 291 291 290 291 291 291 291 290 291 291 291 291 291 290 290 290

ECMWFNIL_925_thetae_018.txt.gz
Theta_e
312 311 311 311 312 313 314 314 312 310 309 308 307 306 307 308 310 311 311 313 313 314 314 312 311 308 306 305 305 305 306 306 306 307 306 306 305 305 305 305 304 304
312 312 311 311 313 313 314 314 314 312 311 311 309 307 307 308 310 311 312 313 314 314 313 311 310 307 306 306 306 306 306 305 306 306 305 305 305 305 304 304 304 304
313 313 313 312 313 313 314 314 315 314 313 312 311 310 309 308 309 311 313 313 314 313 312 310 308 306 306 306 306 306 306 305 305 305 305 305 305 304 304 304 304 304
314 315 315 314 313 313 313 314 314 314 313 313 313 312 311 310 310 311 313 313 313 312 311 309 307 306 306 307 306 306 306 305 305 305 305 305 305 304 304 304 304 304
316 317 316 315 314 313 314 314 314 314 314 313 313 313 312 311 311 312 312 313 312 311 309 308 306 306 307 307 307 306 306 305 305 305 305 305 304 304 304 304 304 304
317 318 317 317 316 315 314 314 314 314 314 313 314 313 313 312 312 312 312 312 312 310 308 306 306 307 307 307 307 306 306 305 305 305 304 304 304 304 304 304 304 304
318 318 318 318 317 316 316 315 315 314 314 314 314 314 314 313 312 312 312 312 312 309 307 306 306 307 307 307 307 306 306 305 305 304 304 304 304 304 304 304 304 303
318 319 319 319 318 317 318 317 316 315 315 315 315 314 314 313 313 312 312 312 311 309 307 306 306 307 307 307 306 306 305 305 304 304 304 304 303 303 303 303 303 303
319 319 318 319 318 318 318 318 317 316 315 315 315 315 314 314 314 313 313 312 310 308 307 306 307 307 307 307 306 305 305 304 304 303 303 303 303 302 302 302 302 302
319 318 318 318 318 319 319 318 318 316 316 316 315 315 314 314 314 313 313 312 309 307 307 307 307 308 307 306 305 304 304 303 303 302 302 302 302 301 301 300 300 300
319 318 317 317 318 318 318 318 317 317 316 316 315 315 315 314 314 313 312 311 308 307 307 307 308 307 306 305 304 303 303 302 302 302 301 301 300 300 299 299 299 298
320 319 317 316 316 317 318 318 317 316 316 316 315 315 315 314 314 313 311 309 308 308 308 308 308 307 305 304 303 303 302 302 301 300 300 299 299 299 298 298 298 298
319 319 318 316 316 317 317 317 316 316 316 316 315 315 315 314 313 312 310 309 308 308 308 308 306 305 304 303 302 302 301 300 300 299 299 298 298 298 298 298 298 298
319 319 319 318 317 317 316 315 314 314 313 314 315 315 314 314 313 311 309 309 309 309 308 306 304 303 303 302 302 301 300 300 299 298 297 296 296 296 297 297 297 298
320 319 319 319 318 316 314 313 312 312 312 313 314 314 314 313 311 310 309 309 309 308 306 304 303 303 302 302 301 300 299 298 296 295 294 294 294 294 295 295 296 296
321 320 319 319 318 316 313 312 312 312 313 313 314 313 313 312 310 309 309 309 308 306 304 303 303 302 302 301 300 299 297 295 294 293 293 292 292 293 293 293 294 294
320 320 319 318 318 316 314 313 313 313 314 313 313 312 312 310 309 310 310 309 307 305 304 303 302 302 301 300 298 296 294 293 293 292 292 292 292 292 292 292 293 293
317 319 319 318 317 316 315 314 313 314 313 312 312 312 311 310 309 310 309 307 305 304 303 302 302 301 300 297 295 294 294 294 292 292 291 291 292 292 292 292 292 293
314 316 317 316 316 315 315 314 313 313 312 312 312 311 310 310 310 309 308 306 305 303 303 302 301 299 297 294 294 294 294 293 292 291 291 291 291 292 292 292 292 292
311 314 316 316 315 314 314 314 314 313 312 312 311 311 310 310 309 308 306 305 304 303 302 301 299 296 294 294 294 294 293 292 291 291 291 291 291 291 292 292 292 292
310 312 314 315 314 314 313 314 313 312 311 311 311 310 310 309 308 307 306 304 303 302 301 299 296 295 295 295 294 293 292 292 291 291 291 291 291 291 291 291 292 292
310 310 312 313 313 313 313 312 311 310 311 311 310 310 310 309 308 307 305 303 302 301 299 296 295 295 295 294 293 292 292 291 291 291 291 291 291 291 291 291 291 291
310 310 311 312 312 312 312 311 310 309 309 309 309 310 309 308 307 304 303 302 300 299 297 296 295 295 295 293 292 292 291 291 291 291 291 291 291 291 291 291 290 290
309 310 311 311 312 311 310 310 309 309 309 309 309 309 308 306 304 303 301 300 298 297 297 296 296 295 294 293 292 291 291 290 291 291 291 291 291 290 290 290 290 290
309 310 310 311 311 310 309 308 307 306 306 307 309 308 306 304 302 300 299 298 297 297 296 296 296 295 294 293 292 291 290 290 290 290 290 290 290 290 290 290 290 290
309 310 310 310 310 309 308 307 306 304 304 305 306 305 303 301 300 298 298 298 297 297 296 296 296 295 294 293 292 291 290 290 290 290 290 290 290 290 290 289 289 290

ECMWFNIL_925_thetae_021.txt.gz
Theta_e
313 312 312 312 311 311 311 312 310 308 307 306 306 307 307 308 308 310 311 312 313 313 313 311 308 306 305 305 305 307 308 308 307 307 307 307 307 307 307 306 306 307
315 314 313 313 312 311 311 312 313 312 310 307 306 306 307 308 309 310 311 312 314 314 313 311 308 306 306 306 305 306 307 307 307 307 307 307 307 307 307 306 306 306
316 316 315 314 313 312 311 311 313 313 313 311 309 307 307 309 310 311 312 313 314 314 313 310 307 306 306 306 306 307 307 307 307 307 307 307 307 307 307 307 307 306
317 317 316 314 314 312 311 311 312 313 314 313 311 309 308 308 310 311 312 313 314 313 312 310 307 306 306 306 307 307 307 307 306 307 307 307 307 306 306 306 306 306
317 318 316 314 313 312 311 312 312 313 314 314 314 312 309 309 310 311 312 313 314 313 312 309 306 306 307 307 307 307 307 307 305 306 307 307 306 306 306 306 306 306
316 317 316 314 313 312 312 313 313 313 314 314 315 314 311 310 310 311 312 313 313 313 311 308 306 306 307 307 307 307 307 307 305 305 307 306 306 306 305 305 305 305
315 316 316 315 314 313 313 314 315 314 314 314 315 314 313 312 311 312 312 312 313 312 310 308 306 307 307 307 307 307 306 306 305 305 306 306 305 305 305 304 304 304
314 314 315 315 315 315 314 315 316 315 315 315 315 315 313 313 313 312 312 312 312 311 310 307 307 307 307 307 307 306 305 305 305 305 305 305 305 304 304 304 303 303
315 315 315 315 315 316 316 316 316 316 315 315 315 315 314 313 313 313 313 312 312 311 309 307 307 307 307 307 307 306 306 305 304 305 305 304 304 304 303 303 303 303
317 317 317 316 317 317 317 317 316 316 315 315 315 315 314 314 313 313 313 312 312 311 309 307 307 307 307 307 306 306 305 305 304 304 304 304 303 303 302 302 302 302
318 318 318 317 317 317 317 317 317 316 316 315 315 315 314 314 314 314 313 312 312 311 309 307 307 307 307 307 306 305 304 304 304 303 303 302 302 302 302 301 301 301
319 319 319 318 318 318 318 318 317 317 316 316 315 314 314 314 314 314 313 313 312 311 309 307 307 307 307 306 305 304 303 303 302 302 302 301 301 301 300 300 300 300
320 320 320 319 319 319 318 318 318 317 316 315 314 313 313 313 314 313 313 313 312 311 309 307 307 307 307 306 304 303 303 302 302 301 301 300 299 298 298 298 298 299
320 320 320 320 320 319 318 317 317 316 315 313 313 313 313 313 313 313 313 312 312 310 308 307 307 307 306 305 304 303 302 302 301 300 299 297 296 295 295 295 296 296
317 318 319 320 320 319 319 318 315 314 314 313 314 314 314 313 313 313 313 312 310 309 308 308 307 307 306 304 303 302 302 301 299 297 296 296 296 295 295 295 295 295
311 313 315 318 319 319 319 319 316 315 315 314 314 314 314 313 313 313 313 312 310 309 308 308 307 306 305 303 302 302 301 298 296 295 295 295 295 295 295 295 295 295
307 309 311 314 317 318 319 319 317 316 316 314 313 313 313 313 313 313 313 311 310 309 308 307 306 305 304 303 302 300 298 296 295 295 295 295 295 295 295 295 295 295
307 307 309 311 314 316 317 317 317 316 315 314 313 313 313 312 312 313 312 311 310 309 307 306 305 304 303 301 299 297 295 295 295 295 294 295 295 294 294 295 295 295
306 307 308 310 312 314 315 316 315 315 314 314 313 312 312 312 312 311 311 310 309 307 306 305 304 302 301 298 296 294 294 294 294 294 294 294 294 294 294 294 295 295
307 308 309 310 311 312 314 314 314 314 314 314 313 312 311 311 311 310 310 309 308 307 306 304 302 300 297 295 294 294 294 293 293 292 292 293 293 293 293 294 294 294
308 308 309 310 311 311 312 313 313 314 314 314 312 311 311 311 310 309 309 308 307 306 305 302 300 297 294 294 294 294 293 292 292 292 292 292 292 292 293 293 293 293
308 309 309 310 310 311 311 312 313 313 313 313 312 310 310 309 309 309 309 308 306 305 303 300 296 294 294 295 294 293 292 292 292 292 292 292 292 292 292 293 293 293
308 308 309 310 310 310 311 312 312 312 313 312 311 309 308 308 308 308 307 306 304 303 300 297 295 294 295 295 294 293 292 292 292 292 292 292 292 292 292 292 292 292
307 308 308 309 310 310 310 311 311 312 312 311 310 308 307 306 306 305 304 304 303 300 298 296 295 295 295 295 294 293 292 292 292 292 292 292 293 293 293 293 292 292
307 307 308 308 309 310 310 311 311 311 310 309 308 306 305 304 304 304 303 302 301 298 296 296 296 296 295 294 293 292 292 292 292 292 292 293 293 293 293 293 293 292
307 307 307 307 308 309 310 310 310 309 308 307 305 304 302 301 303 303 302 300 298 296 296 296 296 296 295 294 293 293 292 292 292 292 292 292 292 293 292 292 292 292

ECMWFNIL_925_thetae_024.txt.gz
Theta_e
322 322 321 319 318 317 319 319 318 319 317 315 316 316 316 318 318 317 318 318 318 317 315 314 313 313 313 313 313 313 313 313 313 313 312 312 312 312 312 311 311 311
323 322 321 320 319 318 320 320 319 319 318 316 316 316 317 318 318 318 319 318 318 317 316 315 313 313 313 313 313 313 313 313 313 312 312 312 312 312 312 312 311 311
323 322 321 320 320 321 322 321 320 319 319 318 317 316 318 319 318 318 319 318 318 318 316 315 313 313 312 312 312 312 312 312 313 312 312 312 312 312 312 311 311 311
323 322 322 321 321 322 323 322 321 320 319 320 318 318 319 319 317 318 319 318 318 318 317 315 313 313 312 312 312 312 312 312 312 312 312 312 311 312 311 311 311 310
324 323 322 322 321 322 323 322 321 320 320 321 320 319 318 317 317 318 319 318 318 318 317 315 314 313 312 312 312 312 312 312 311 311 312 311 311 311 311 310 310 310
324 323 322 322 322 322 323 323 322 321 320 321 321 320 318 317 317 318 318 318 318 318 317 316 314 313 313 312 312 312 312 312 311 311 311 311 311 310 309 309 310 309
322 323 323 322 322 322 323 323 322 321 321 321 321 320 319 318 317 317 318 318 318 318 317 316 314 313 313 312 312 312 312 312 311 311 311 311 311 310 309 309 308 308
321 322 322 322 322 322 323 322 322 321 321 321 322 321 320 319 318 318 318 318 318 317 317 316 314 314 313 312 312 312 312 311 311 310 310 310 310 309 309 308 308 307
322 321 321 322 322 321 322 322 322 322 322 322 322 322 321 320 319 318 318 318 318 317 317 315 314 313 313 312 312 312 311 311 310 310 310 309 309 308 307 307 307 307
323 323 322 322 322 322 322 322 322 322 323 322 321 321 321 321 319 319 319 318 318 317 317 315 314 313 313 312 312 312 311 311 310 309 309 309 308 308 307 306 307 307
324 324 323 323 323 322 322 323 323 322 322 322 321 321 321 320 320 319 319 319 318 317 316 316 314 314 313 312 312 311 311 310 310 309 309 308 308 307 306 306 306 306
324 324 324 324 324 323 323 323 323 323 323 322 322 321 320 320 319 318 319 318 318 318 316 315 314 314 313 312 311 311 310 310 309 309 308 307 307 306 306 305 305 304
323 324 324 324 324 324 323 323 323 323 323 323 322 321 320 320 318 318 318 317 317 317 316 315 315 313 312 312 311 310 310 309 309 308 307 307 306 305 304 304 303 302
318 320 322 323 323 324 324 323 323 323 323 322 321 321 320 320 319 318 317 317 317 317 316 315 314 313 312 312 311 310 310 309 308 307 307 306 305 304 303 302 301 301
313 315 317 318 320 321 322 323 323 322 322 321 321 320 320 320 319 318 317 317 317 316 315 314 313 312 312 311 310 310 309 308 308 307 306 305 304 303 302 301 300 300
310 311 312 314 315 317 319 320 321 321 321 320 320 320 319 319 319 318 318 317 316 316 315 313 312 311 311 310 309 309 308 307 306 305 304 303 302 302 301 301 300 300
309 310 311 311 313 314 316 317 319 321 320 320 320 319 318 319 318 318 318 317 316 316 315 313 311 310 310 309 308 307 307 306 304 303 302 301 301 301 301 300 300 300
308 308 309 310 311 313 314 316 317 319 320 320 320 319 318 318 318 318 318 317 316 315 314 313 311 310 309 308 306 305 304 303 303 302 301 301 300 300 300 300 299 299
308 308 309 310 311 312 313 315 317 317 318 318 319 319 318 318 317 317 317 317 316 315 313 312 310 309 308 306 304 303 302 301 301 301 300 300 299 299 299 299 299 298
309 309 310 310 311 312 313 314 315 316 317 318 318 319 318 317 317 317 317 316 315 314 312 310 308 307 305 303 302 301 299 299 300 299 299 299 299 298 298 298 298 298
309 310 310 311 311 312 313 314 314 315 316 317 317 317 317 317 316 316 316 315 314 312 310 308 306 305 303 301 301 299 297 297 299 299 298 298 298 298 298 297 297 298
310 309 310 310 311 311 313 314 314 314 315 316 316 316 316 316 316 316 315 314 312 310 308 306 303 302 301 299 298 296 295 297 299 299 298 298 298 297 297 297 297 297
310 309 310 310 310 311 312 313 314 314 315 315 315 315 315 314 315 315 314 312 309 308 307 304 300 298 297 296 295 295 296 298 299 298 298 298 297 297 297 297 297 297
309 309 310 310 310 310 311 312 313 314 314 314 314 314 314 314 315 314 311 309 308 306 305 301 296 295 295 295 295 294 295 297 298 297 297 297 297 297 297 297 297 297
309 309 309 310 310 310 311 311 312 313 313 313 313 313 313 314 313 311 308 307 306 304 303 299 295 294 295 295 295 294 293 295 296 296 296 296 296 296 297 297 297 297
309 309 309 309 309 310 310 310 311 311 312 312 312 313 313 311 310 308 306 304 303 301 300 298 296 295 295 295 294 293 293 293 294 295 295 295 296 296 296 296 296 297

ECMWFNIL_925_thetae_027.txt.gz
Theta_e
323 321 322 321 319 320 321 320 319 320 320 319 319 319 319 319 319 318 319 319 319 318 317 316 316 316 316 316 316 316 315 316 317 316 316 316 315 315 315 315 315 315
323 322 322 321 319 318 320 320 319 320 320 318 318 319 319 319 320 319 319 319 319 319 318 317 316 316 316 316 315 316 316 316 316 315 315 316 316 316 315 315 315 314
324 324 322 322 320 318 320 321 320 320 320 319 318 318 319 320 320 318 319 320 319 319 318 317 316 316 316 316 315 316 316 316 316 315 316 316 316 316 315 315 315 314
325 325 324 323 322 320 320 322 321 320 320 320 319 319 319 320 321 319 320 320 319 319 319 318 316 315 315 315 315 315 316 316 316 315 315 315 315 315 315 315 314 313
326 325 325 324 322 321 322 323 322 321 320 320 320 319 319 321 321 319 320 320 319 319 319 318 317 316 316 315 315 315 315 315 315 314 315 315 315 315 314 314 314 313
326 326 325 324 323 322 322 323 323 322 321 320 321 320 320 321 321 319 320 320 319 319 320 319 317 316 316 315 315 315 314 315 314 314 315 315 314 314 313 313 314 312
324 325 324 324 323 323 323 323 323 323 322 321 322 321 320 321 321 319 320 320 320 320 320 319 318 316 316 315 315 316 315 315 315 314 314 314 314 314 312 312 312 312
323 323 323 322 323 322 323 323 322 323 324 322 322 322 321 321 321 320 320 320 320 320 320 320 318 317 316 315 315 315 315 316 315 314 313 314 314 313 312 312 312 310
324 324 322 322 322 322 322 322 321 321 323 323 323 323 323 322 321 320 320 320 320 320 320 320 319 318 317 316 315 315 315 315 315 314 313 314 313 313 312 312 311 311
324 324 323 322 323 323 323 322 321 320 321 323 323 323 323 323 322 320 320 321 320 320 321 320 319 319 318 317 315 315 315 315 315 313 313 313 313 312 311 311 311 311
325 325 324 324 324 324 324 323 322 322 322 322 322 323 324 323 323 321 320 321 321 321 320 320 320 319 318 317 316 315 315 315 314 314 313 313 313 312 311 311 310 310
324 324 324 325 325 325 325 323 323 323 323 322 322 323 323 323 323 322 321 321 321 321 321 320 320 319 318 317 316 315 315 315 314 314 313 313 312 311 310 310 310 310
322 322 323 325 325 324 324 324 323 324 324 323 323 323 323 323 323 323 322 322 322 321 321 321 320 319 318 317 317 316 315 315 315 314 313 312 311 311 310 310 309 308
316 318 320 321 322 322 323 323 324 323 323 322 323 324 324 323 323 323 322 322 322 321 321 321 320 319 318 317 317 316 315 315 314 314 313 312 311 310 309 309 308 307
311 312 314 315 317 319 321 322 323 322 322 321 321 323 323 323 323 323 322 322 322 321 321 321 320 319 318 318 317 316 316 315 314 313 312 312 311 310 309 308 307 305
309 310 310 311 313 314 316 318 320 321 322 322 321 322 322 322 322 322 322 323 322 321 321 321 319 318 318 317 317 316 315 314 314 313 312 311 311 309 308 307 306 305
309 309 309 310 310 311 312 313 315 317 320 321 321 320 321 321 322 322 322 322 322 321 320 320 318 318 318 317 316 315 314 314 313 312 311 310 309 307 306 306 305 305
309 309 309 309 309 310 311 311 312 313 316 319 319 320 320 320 320 321 321 321 321 320 320 319 318 317 317 316 315 313 313 313 312 310 309 308 306 306 305 305 304 304
308 309 309 309 310 310 311 312 312 312 313 315 317 318 319 319 319 320 320 320 320 320 320 318 318 317 317 315 313 312 311 311 310 308 307 306 305 305 304 304 303 303
309 309 309 309 310 310 311 312 312 312 313 313 315 315 317 317 318 319 319 319 319 320 319 319 318 317 316 314 312 310 310 309 308 306 305 305 304 304 304 303 303 303
309 309 309 309 309 310 310 311 311 312 313 313 314 315 315 316 316 317 318 318 318 319 319 318 317 316 315 313 311 309 308 307 305 304 303 303 303 303 303 303 302 302
310 310 310 310 310 310 310 310 311 312 313 313 313 313 314 315 315 316 317 317 318 319 318 316 314 313 312 311 310 308 306 305 303 303 303 303 303 303 303 302 302 301
309 310 310 310 311 310 310 311 311 312 313 313 313 313 313 314 314 315 316 316 316 317 315 313 311 309 309 309 308 306 303 302 303 303 303 302 303 302 302 301 301 301
308 309 309 310 310 310 311 311 311 312 312 313 313 313 313 313 313 313 314 315 315 315 313 310 307 306 306 305 303 301 301 301 302 303 302 302 302 301 301 300 300 300
308 308 309 309 310 310 310 311 311 312 312 313 314 313 313 313 312 312 314 314 313 311 309 308 305 302 300 300 298 298 299 300 300 300 300 299 299 299 299 299 299 299
308 308 309 310 310 310 311 311 311 312 312 312 313 312 312 312 312 313 312 310 308 307 306 305 302 298 296 296 296 297 298 298 297 297 297 297 298 297 297 297 297 297

ECMWFNIL_925_thetae_030.txt.gz
Theta_e
322 322 321 321 322 322 321 321 321 321 320 320 320 319 319 319 318 318 319 319 319 318 317 316 316 315 316 316 317 317 316 317 317 316 316 315 315 315 315 315 315 315
322 322 321 321 321 322 322 321 320 321 320 319 320 320 319 320 319 318 319 320 319 319 317 317 316 316 317 316 316 317 316 316 316 315 316 317 316 315 315 315 313 315
323 322 322 321 320 320 321 320 320 320 321 320 319 320 320 320 320 318 319 320 320 319 318 317 316 316 317 316 315 317 317 315 316 316 317 317 316 316 316 315 314 314
324 323 322 322 320 320 320 321 320 320 321 320 319 319 320 320 320 319 319 320 320 320 319 318 317 316 317 316 314 317 317 316 317 317 316 315 315 316 316 315 314 313
325 324 323 323 322 320 320 321 322 320 321 321 319 319 319 320 321 320 320 320 320 320 320 319 318 316 317 315 314 316 315 315 317 315 315 316 315 315 314 315 314 312
325 325 324 324 324 322 321 321 322 321 321 321 320 320 319 320 321 321 320 320 320 320 320 320 318 317 317 315 315 316 314 315 316 314 315 317 315 313 314 314 314 313
326 326 326 325 323 322 322 321 322 321 321 321 320 320 320 320 321 321 321 321 321 320 320 321 319 318 317 316 315 316 314 314 315 314 314 316 315 314 314 313 313 313
325 325 325 325 324 322 321 321 321 321 321 321 321 321 320 320 321 322 322 321 321 321 320 320 321 319 317 317 316 316 315 315 316 315 314 314 315 314 313 313 313 311
325 325 325 324 323 322 321 321 321 321 320 322 322 321 321 321 321 321 322 321 320 321 320 321 321 320 318 317 316 316 316 316 316 316 314 313 315 315 313 313 312 310
324 324 325 324 322 322 322 322 321 321 321 321 321 322 321 322 322 321 321 321 321 321 321 321 321 320 319 318 317 317 316 317 317 316 315 314 315 315 314 313 313 311
324 324 324 324 323 322 322 323 323 323 322 321 320 321 321 322 322 322 321 321 321 320 321 321 321 321 320 319 318 317 317 316 317 316 315 314 315 314 313 313 313 312
325 325 325 325 324 323 322 323 324 323 323 323 321 321 322 322 323 322 322 321 321 321 321 321 320 320 320 320 319 318 317 316 316 316 315 314 315 314 313 312 312 312
323 322 322 323 323 323 322 323 323 323 324 324 322 322 322 322 322 321 321 320 320 320 321 320 321 321 320 320 319 318 318 317 317 316 316 315 314 314 313 312 311 311
318 317 318 319 320 321 321 322 322 323 323 323 322 322 322 322 322 321 320 320 320 321 320 321 321 321 320 320 320 319 318 317 317 316 316 315 314 314 313 311 311 310
312 313 314 315 315 318 320 321 322 322 323 322 322 321 322 322 322 322 322 321 321 321 321 321 320 320 320 320 320 319 318 318 317 316 316 315 314 313 312 311 310 309
309 310 311 311 312 314 316 318 320 321 322 321 320 321 322 322 322 322 322 321 321 322 321 321 320 320 320 320 320 319 318 318 317 317 316 315 314 312 311 310 310 308
309 309 309 310 310 310 311 312 314 317 319 320 320 320 321 321 321 321 321 321 321 322 321 321 320 321 320 320 320 319 318 318 318 317 316 315 313 312 311 310 308 307
309 309 309 309 309 310 310 310 311 312 314 316 318 319 319 320 321 321 321 322 322 322 322 322 321 321 320 320 319 318 318 318 317 316 315 314 313 312 310 309 307 306
308 308 309 309 309 310 310 310 311 311 312 312 314 315 317 318 320 320 320 321 321 321 321 321 321 321 321 320 320 318 317 317 315 315 314 313 311 310 308 307 306 306
308 309 309 309 309 309 310 310 310 311 311 312 312 313 314 315 317 318 318 319 319 319 320 320 321 321 321 320 319 318 316 315 314 313 312 311 309 308 307 306 305 305
309 309 309 310 310 309 309 310 310 310 310 311 312 312 312 313 314 315 316 317 318 319 319 319 319 320 320 319 318 317 316 315 313 311 310 308 307 306 306 305 305 304
308 309 310 310 310 310 310 310 310 310 311 311 312 312 312 312 313 313 314 315 316 317 318 318 318 319 319 318 317 316 314 312 310 308 307 306 305 305 304 304 304 304
307 308 309 309 310 310 310 310 310 310 311 311 311 312 313 313 312 312 313 314 314 316 317 317 316 317 317 316 314 313 311 309 307 306 305 304 304 304 304 304 303 303
307 308 308 308 309 309 309 310 310 310 311 311 311 312 312 313 313 313 313 313 314 315 315 315 315 314 313 312 311 310 308 307 306 305 304 304 304 304 303 303 302 302
307 307 307 308 309 309 309 310 310 310 311 311 311 312 312 312 313 312 312 313 313 313 313 313 313 311 309 309 308 307 306 304 304 304 303 302 301 301 300 300 300 300
307 307 308 308 308 309 310 310 310 311 311 311 311 312 312 312 313 312 311 310 310 310 310 310 310 307 305 306 306 305 304 303 302 301 299 298 298 298 298 297 297 297

ECMWFNIL_925_thetae_033.txt.gz
Theta_e
322 320 320 321 320 320 321 320 319 320 320 319 319 317 317 317 316 316 318 318 319 316 312 309 309 312 317 317 317 316 313 313 315 313 311 309 310 312 314 314 314 313
321 320 320 321 321 320 321 321 320 320 320 319 319 318 318 318 317 316 318 319 318 318 314 311 309 312 316 316 316 316 313 312 313 313 314 313 309 310 313 315 315 313
321 319 319 321 321 321 321 321 320 319 320 320 320 319 319 319 317 316 318 319 318 318 316 313 312 313 316 316 316 317 314 313 314 316 318 316 313 311 312 314 314 314
322 320 320 321 321 321 321 321 321 320 319 320 320 320 319 319 319 317 318 318 318 319 318 316 313 314 317 316 315 317 316 313 315 316 316 316 315 314 312 312 313 314
322 321 321 320 320 322 321 320 321 321 320 319 319 320 320 319 320 319 318 318 319 319 318 318 316 313 316 316 314 317 316 314 316 315 314 315 315 315 312 311 312 313
323 322 322 321 319 321 322 320 320 320 321 320 319 320 319 320 320 319 319 318 319 319 319 319 318 315 315 315 314 316 316 315 317 315 313 315 315 314 313 312 312 312
324 324 323 323 322 321 322 320 320 320 321 321 320 319 319 319 320 320 320 319 318 319 319 319 320 318 316 315 314 315 315 314 316 314 314 316 315 313 313 313 311 312
325 325 324 324 323 322 322 321 321 321 321 321 321 320 320 319 320 320 320 320 320 320 320 320 320 319 318 316 315 315 315 314 315 314 314 316 316 314 313 313 312 313
325 325 325 325 323 322 322 321 321 321 321 321 320 320 321 321 321 321 321 321 320 320 320 320 320 320 319 318 316 315 315 315 315 315 315 315 315 315 314 313 312 312
324 324 323 324 324 323 323 322 321 322 321 321 320 320 321 321 322 322 322 321 320 320 320 320 320 320 320 319 318 317 316 315 315 315 315 315 314 315 314 313 312 311
322 323 322 323 324 323 323 322 322 323 322 321 320 321 321 322 322 322 322 322 320 320 319 320 320 320 319 318 318 317 317 316 316 316 316 316 314 314 315 314 313 312
322 323 323 323 323 323 322 322 321 321 321 321 321 320 320 321 320 320 321 321 321 319 320 320 320 320 320 319 318 318 317 316 316 316 316 316 315 314 315 314 313 313
322 323 323 324 324 324 323 322 321 321 321 322 322 321 321 320 320 320 320 321 321 321 320 319 319 319 320 319 319 318 318 317 317 316 316 316 316 314 314 314 313 313
320 320 320 320 321 322 322 322 321 321 321 321 322 321 321 321 322 321 321 321 322 321 320 319 319 319 319 320 319 319 318 318 317 317 316 316 316 315 314 314 313 312
315 315 315 314 315 317 319 320 320 320 320 320 321 321 321 321 322 322 322 321 321 321 320 319 319 319 320 320 320 319 319 319 318 317 317 316 316 315 314 314 313 311
310 311 310 311 312 313 314 316 316 317 318 318 318 319 320 320 321 321 322 322 322 322 321 320 320 320 320 320 321 319 319 320 319 318 316 316 316 315 314 313 312 311
308 309 309 309 310 310 310 311 312 313 315 316 317 318 319 320 320 320 320 320 321 321 321 321 321 321 321 321 321 320 320 320 319 318 317 317 316 315 314 312 311 311
308 309 308 309 309 309 310 310 310 311 312 314 315 316 318 319 320 320 319 319 320 320 321 321 321 321 321 321 321 321 320 320 319 318 317 316 316 315 314 312 311 310
308 308 308 309 309 309 309 309 309 309 310 311 312 313 314 315 317 319 319 319 319 319 320 320 321 321 321 321 321 321 320 320 318 317 317 316 315 314 313 312 311 310
308 308 308 309 309 309 309 309 309 309 309 310 310 311 311 312 313 315 316 317 318 319 319 320 320 320 320 320 320 321 321 319 317 315 316 316 314 314 313 311 310 309
308 308 309 309 309 310 309 308 308 308 309 309 310 310 310 310 311 311 312 312 314 316 318 319 319 319 318 319 319 320 320 318 315 314 314 314 313 312 311 309 308 307
307 308 308 309 309 310 309 310 309 309 309 309 310 310 311 311 311 311 311 311 311 313 315 317 319 318 318 318 319 320 319 316 314 313 313 312 310 309 308 306 306 306
307 307 308 308 308 309 309 309 310 310 310 310 310 310 311 310 311 312 312 313 312 312 313 315 317 318 317 317 318 318 317 314 313 312 311 309 307 306 306 305 305 305
306 307 307 307 307 308 308 309 309 309 310 310 310 310 310 311 311 312 312 312 312 312 313 315 316 316 316 317 317 317 315 313 310 309 308 306 306 305 305 304 304 304
306 307 306 307 307 307 307 307 308 308 309 309 309 310 310 311 311 312 311 311 311 312 312 313 314 314 314 315 315 314 312 311 308 307 305 305 304 303 303 302 301 301
306 306 306 306 307 307 307 308 308 309 310 310 310 310 311 311 311 311 311 310 310 311 312 312 312 312 311 311 311 311 309 308 306 305 304 302 301 301 300 299 298 297

ECMWFNIL_925_thetae_036.txt.gz
Theta_e
321 321 321 319 317 320 321 320 319 318 316 315 313 313 312 311 312 314 314 314 312 310 310 312 314 316 316 317 315 312 310 311 309 309 311 313 314 313 313 313 311 311
322 321 321 319 318 319 320 319 319 318 317 316 314 313 312 312 313 314 314 315 314 311 308 308 313 316 316 316 316 313 310 310 313 312 310 310 313 314 314 313 311 309
322 321 321 320 318 319 318 318 319 319 318 317 316 316 315 314 313 314 315 315 315 313 310 308 311 316 316 315 315 315 312 310 313 315 313 311 312 314 314 313 312 310
322 321 321 320 319 319 318 318 319 319 319 318 318 317 318 316 315 315 316 316 315 315 313 310 311 313 315 315 314 314 315 312 312 315 316 313 312 313 313 313 313 313
322 321 320 320 320 319 319 319 319 319 319 319 319 318 318 318 316 316 316 316 315 315 315 314 312 311 313 315 314 314 316 314 313 314 315 314 313 313 312 312 313 313
322 321 320 320 321 320 320 320 320 320 319 319 319 319 318 318 318 317 317 317 316 316 316 316 316 313 313 314 313 313 316 316 314 315 313 313 314 314 311 311 312 313
321 321 320 320 321 321 321 321 320 320 319 319 320 319 319 318 318 318 318 318 317 317 317 317 317 316 315 315 313 313 315 316 315 315 314 313 314 315 312 311 311 312
321 321 321 321 321 321 321 320 321 321 320 319 319 319 319 319 319 319 319 318 318 318 318 318 318 318 317 317 315 314 314 315 315 314 314 314 315 315 314 311 311 311
323 323 322 322 321 322 322 321 321 321 320 319 319 319 320 319 319 319 319 319 318 318 319 318 318 318 319 319 318 317 315 314 314 314 314 314 314 315 315 314 312 311
325 325 323 323 323 322 321 321 321 321 321 320 320 320 320 320 320 320 319 319 319 319 319 319 319 319 319 319 319 319 318 315 315 315 314 314 314 315 315 314 313 312
324 323 321 321 322 321 320 320 321 321 321 321 321 321 321 321 321 320 320 320 319 320 319 319 320 320 320 320 319 319 319 317 316 315 315 315 314 315 314 314 314 313
322 320 318 319 320 321 321 322 321 322 321 320 319 320 321 321 321 321 321 321 320 320 320 320 320 319 319 320 320 320 319 319 318 317 316 315 315 315 314 314 314 314
321 320 320 321 322 322 323 323 323 322 320 320 319 320 320 320 321 321 321 321 321 321 320 320 319 319 319 320 320 320 318 318 319 317 316 316 316 315 316 315 314 314
321 321 322 322 322 322 323 323 323 322 321 320 320 321 321 321 320 320 321 321 321 321 321 321 320 319 319 319 320 318 317 317 318 318 317 316 316 316 316 315 314 314
318 318 318 319 319 320 321 323 323 322 321 321 321 321 321 322 321 321 321 321 322 321 321 321 321 320 320 319 319 318 317 318 319 318 318 317 316 316 316 316 315 314
315 315 314 313 314 315 317 319 319 319 320 320 320 321 321 321 321 321 321 321 321 321 321 321 321 320 320 320 319 319 319 319 319 319 319 318 317 317 316 316 315 314
312 313 312 311 311 311 312 313 314 315 315 316 317 317 318 319 319 320 320 320 320 320 320 321 321 321 321 320 320 320 320 320 320 319 319 319 319 317 316 316 315 314
308 309 309 309 309 309 309 310 310 310 311 311 312 313 313 314 315 317 318 319 319 320 320 320 319 319 320 320 321 321 320 320 320 319 319 319 319 317 316 316 315 314
307 308 308 308 309 309 309 309 309 309 309 309 309 309 310 310 311 312 313 314 316 317 318 319 319 318 318 319 320 320 321 321 320 319 319 319 318 317 316 315 314 313
307 307 308 308 309 309 309 309 308 307 308 308 309 309 309 310 310 310 311 311 312 312 313 314 316 318 319 319 318 318 320 320 321 320 319 318 318 317 316 315 314 312
308 308 307 308 309 309 309 309 308 307 307 308 309 309 309 310 311 311 311 311 311 311 311 312 312 315 318 319 318 318 319 320 320 320 319 317 316 316 316 314 312 310
307 307 308 308 309 309 309 308 308 308 307 308 308 308 309 310 310 310 310 310 311 312 312 312 312 313 315 318 319 318 318 319 319 318 317 315 315 315 314 312 311 310
306 306 307 307 308 308 308 308 308 309 309 309 309 309 309 310 310 310 310 310 311 311 311 311 311 311 313 315 317 318 318 318 318 316 314 313 312 311 310 309 308 307
306 306 306 306 306 306 306 307 307 308 308 308 309 309 309 309 309 309 310 310 310 310 311 311 311 311 312 314 316 318 318 317 316 313 311 310 308 307 306 306 306 305
306 306 306 306 306 306 306 307 307 307 308 308 308 308 309 309 309 309 310 310 310 311 311 311 311 312 312 314 315 316 315 315 313 311 309 307 306 305 305 305 305 304
305 305 305 306 306 306 306 306 306 307 308 308 309 309 309 309 309 309 310 310 310 311 311 311 311 311 312 313 313 312 312 311 310 309 307 305 304 303 303 301 301 301

ECMWFNIL_925_thetae_039.txt.gz
Theta_e
317 317 319 319 319 316 315 316 317 318 316 314 312 312 312 311 310 310 309 309 310 312 313 313 313 314 314 314 311 307 306 307 310 313 314 313 312 313 312 311 311 312
317 318 319 319 319 316 316 317 317 317 315 312 311 312 312 310 310 310 309 308 309 310 310 311 312 313 314 314 312 309 306 306 307 309 313 313 313 312 311 310 309 309
318 319 319 320 319 317 317 318 318 317 314 312 312 312 311 310 311 311 312 311 311 309 308 309 311 312 313 313 313 310 308 308 307 307 309 312 313 313 312 312 310 308
320 321 320 320 319 316 316 318 318 318 316 315 313 312 312 311 311 313 314 314 315 312 308 308 311 313 313 312 312 313 311 310 310 309 309 311 312 312 312 313 312 310
321 322 321 320 319 317 316 317 317 318 318 317 316 314 314 313 312 313 314 315 316 315 311 309 311 313 313 312 311 312 313 312 311 311 310 310 311 312 311 312 313 312
321 321 321 320 320 317 317 317 316 317 317 318 317 317 316 316 314 314 315 316 315 316 314 311 311 312 313 313 311 311 314 314 312 312 311 310 311 312 311 310 312 312
322 321 321 321 320 318 318 318 317 317 317 318 318 318 318 318 317 316 316 316 316 316 316 314 314 313 312 313 312 311 314 315 314 314 313 312 312 313 312 310 310 311
322 322 321 321 320 319 318 319 319 319 318 318 318 319 318 318 318 318 317 317 317 316 317 316 316 315 314 314 314 312 313 315 314 314 314 314 313 313 313 311 309 310
322 322 321 321 320 320 320 320 320 320 319 319 319 319 319 318 317 318 318 318 318 318 317 317 317 317 316 316 315 314 313 314 314 314 314 314 313 313 314 313 312 310
322 321 320 320 320 320 320 320 321 321 320 319 319 319 319 318 318 317 317 318 318 318 318 318 318 318 318 317 317 317 316 315 315 314 314 314 314 313 314 314 314 312
322 321 321 321 320 320 320 320 321 320 320 320 320 320 319 319 319 318 317 317 318 318 318 318 318 318 318 318 318 318 318 317 316 315 314 314 314 314 314 314 314 314
323 322 321 321 321 320 320 320 320 319 320 320 320 320 319 319 319 319 318 318 317 317 318 318 318 319 318 318 319 319 319 319 318 317 316 315 314 314 314 314 314 314
323 322 322 322 321 320 320 320 319 319 319 319 319 319 319 319 319 319 319 319 319 318 317 317 318 318 319 319 319 319 319 319 319 319 318 317 316 315 315 314 314 314
322 321 321 321 321 320 319 320 319 318 319 319 319 318 318 319 319 318 319 319 319 318 317 317 318 319 319 319 319 319 319 320 320 320 319 318 317 317 316 316 315 315
320 320 320 319 320 319 319 320 319 318 318 319 318 319 319 319 319 319 318 318 318 319 318 319 319 320 320 320 320 319 319 319 319 319 319 318 317 318 318 317 316 316
318 319 319 318 319 319 319 320 319 318 319 319 319 320 320 321 320 319 319 319 320 320 320 320 321 321 321 320 320 320 319 319 319 319 319 318 318 318 318 318 318 316
314 315 315 314 315 315 315 316 316 316 317 317 318 318 318 319 320 320 320 320 321 320 320 320 320 320 320 320 320 320 320 320 319 319 319 319 319 319 319 319 318 318
310 310 310 309 310 310 310 310 310 311 311 311 312 312 313 314 315 316 316 316 317 317 317 317 318 318 319 319 320 320 320 320 320 320 320 319 319 319 319 319 318 318
307 307 308 308 309 308 308 309 308 309 308 308 309 309 309 310 310 311 311 311 311 311 312 312 313 314 316 318 319 319 319 320 320 319 320 320 320 319 319 319 318 318
307 307 307 308 309 308 308 308 307 307 308 308 309 309 309 309 310 310 310 310 310 310 310 310 310 311 312 313 316 318 319 320 320 319 319 320 320 319 319 318 317 316
307 307 307 308 309 309 309 308 307 307 308 308 307 308 309 309 309 309 309 309 309 310 310 310 310 310 311 311 312 315 318 319 319 319 319 319 319 318 317 317 316 315
307 307 307 308 308 308 308 308 308 308 308 308 308 309 309 309 309 309 309 309 309 309 309 310 309 309 310 310 310 311 314 317 318 319 319 319 318 317 316 315 315 315
306 306 306 307 307 307 307 307 307 307 308 307 308 308 309 309 309 308 308 308 308 308 309 309 309 310 309 310 310 310 312 315 317 318 318 317 316 315 314 313 313 312
306 306 306 306 306 306 306 306 306 306 307 307 307 308 308 308 308 308 308 307 307 308 309 309 309 310 310 310 310 311 313 315 317 316 315 313 312 311 310 310 309 308
306 306 306 306 306 305 306 306 305 306 306 306 307 307 308 308 309 309 308 308 307 307 308 309 309 309 310 310 310 311 313 314 315 314 312 310 309 308 307 306 306 305
305 305 305 305 305 305 305 305 305 305 304 305 305 305 306 307 309 309 309 308 308 308 309 309 309 309 309 310 310 311 312 312 312 311 310 307 306 305 305 304 304 303

ECMWFNIL_925_thetae_042.txt.gz
Theta_e
321 321 320 315 312 312 314 316 316 315 316 316 311 309 310 312 313 313 314 313 313 315 315 314 314 314 311 308 306 307 310 311 313 313 312 312 311 310 310 310 311 311
321 321 319 316 313 312 313 314 313 314 316 316 314 311 311 311 311 312 312 312 312 313 314 314 315 315 313 310 306 305 305 306 310 312 312 312 311 309 308 308 307 307
321 321 318 316 314 312 313 313 312 314 316 317 314 313 313 313 311 311 310 310 311 312 312 313 315 316 315 313 310 307 306 305 306 308 309 309 310 310 309 307 306 306
321 321 318 316 314 313 314 314 313 313 315 315 314 313 314 313 310 310 310 310 311 313 312 311 312 315 315 314 312 311 309 308 307 307 306 306 308 309 309 309 307 307
321 320 318 316 316 315 316 315 313 313 313 314 314 313 313 312 310 310 310 311 312 314 315 311 311 313 315 315 314 313 312 311 310 310 308 307 308 309 309 310 308 308
321 319 317 317 318 318 318 317 314 314 314 314 315 315 314 313 312 311 311 312 313 315 316 314 312 312 314 314 314 314 314 313 312 311 310 310 310 309 309 310 309 307
320 319 318 318 319 319 320 318 316 316 317 316 316 316 317 315 314 314 313 314 315 315 316 316 315 313 313 314 314 314 314 314 314 313 312 311 311 310 309 310 310 308
320 319 319 320 320 320 320 319 317 318 319 318 316 317 317 317 316 315 315 315 315 316 316 317 316 315 314 314 315 314 314 314 314 314 314 313 312 312 311 310 310 309
320 320 320 320 320 320 320 319 318 319 319 318 318 317 318 318 317 316 316 316 316 316 317 317 316 316 316 315 315 315 314 313 314 314 314 314 313 314 313 312 311 310
321 321 321 321 321 320 319 319 318 318 319 319 319 319 319 319 318 317 317 317 317 317 317 317 317 317 317 317 316 316 315 314 314 314 314 314 314 314 314 314 313 312
321 322 322 321 321 320 319 319 319 319 319 319 319 320 319 319 319 319 318 318 318 318 317 317 317 317 317 317 317 317 316 316 315 315 314 314 314 314 314 314 314 313
322 321 321 321 320 319 319 319 319 319 320 320 319 319 319 319 319 319 319 318 318 318 318 318 318 318 318 317 317 317 317 317 316 316 316 316 316 315 314 314 314 314
322 321 320 320 319 319 320 320 320 320 319 319 319 319 319 319 318 319 319 318 318 318 319 319 319 318 318 317 317 317 316 316 317 317 317 317 318 317 316 315 315 314
322 321 321 320 319 319 319 320 319 319 319 319 319 318 318 319 318 318 318 318 318 319 319 319 318 318 318 318 318 317 317 317 317 317 318 318 318 318 318 317 316 316
321 321 320 320 319 318 319 319 319 319 319 318 317 317 318 318 318 318 318 318 318 319 318 318 318 318 319 320 319 319 318 318 318 318 318 319 319 318 318 318 317 317
321 321 320 319 319 318 319 319 319 319 319 318 317 318 318 319 319 319 319 319 318 318 319 319 319 320 320 320 320 320 319 319 319 319 319 318 318 318 319 319 318 319
318 319 318 316 316 316 316 317 317 318 319 318 319 319 319 320 319 320 320 320 320 319 320 319 319 319 319 319 319 319 319 319 319 319 319 319 319 319 319 319 319 319
315 315 314 313 312 312 313 313 314 315 316 316 316 316 316 317 317 317 318 318 317 317 316 315 315 315 314 316 317 318 319 319 319 319 320 319 319 319 319 319 319 319
310 310 310 310 310 310 310 310 310 311 310 310 310 311 311 312 312 312 312 312 311 311 311 311 311 311 311 311 312 314 316 317 318 319 319 319 319 319 319 319 319 318
308 308 308 308 308 308 308 308 308 308 308 308 309 309 310 310 310 310 309 309 309 309 309 310 309 309 309 309 309 310 311 313 316 318 319 319 319 319 319 319 318 318
307 308 308 308 307 307 307 307 307 308 307 307 308 308 309 309 309 309 308 308 308 308 308 308 308 308 308 308 308 308 309 310 311 315 317 318 318 319 319 319 318 316
307 307 308 308 308 308 308 307 308 307 307 307 308 308 308 308 308 308 308 308 307 307 307 307 308 308 308 309 309 308 309 309 310 312 315 317 318 318 318 318 316 315
306 306 307 307 307 307 307 307 307 307 307 308 308 308 308 308 308 308 307 307 307 307 307 307 307 308 309 309 308 309 309 309 311 313 316 316 317 316 316 315 314 313
306 306 306 306 306 306 306 306 306 306 306 307 307 308 308 308 308 308 308 308 307 307 308 307 307 308 309 308 308 308 309 309 311 313 315 315 314 313 312 311 311 310
306 306 305 305 305 305 305 305 305 305 305 305 305 306 306 306 307 307 308 308 308 308 308 308 308 308 308 308 308 308 308 308 310 312 313 312 311 309 308 308 308 307
306 306 306 306 306 305 305 305 305 305 305 305 304 305 304 305 305 306 306 307 307 308 308 309 309 308 308 308 308 307 307 308 309 311 311 310 308 307 307 306 305 304

ECMWFNIL_925_thetae_045.txt.gz
Theta_e
322 321 321 319 315 313 315 317 318 317 315 313 313 313 314 315 315 315 314 314 314 314 314 314 313 311 308 308 311 312 313 312 312 313 312 312 311 311 311 311 312 312
322 321 321 319 316 314 315 315 316 315 314 313 312 312 313 313 313 314 313 313 314 313 314 314 315 314 311 308 308 310 312 312 312 312 311 309 308 307 308 309 309 310
322 321 321 320 317 315 315 315 315 314 313 314 313 312 313 313 312 313 313 313 313 312 313 314 315 316 314 311 310 309 309 311 311 312 311 310 308 306 306 306 307 308
322 321 321 321 318 315 314 314 315 314 313 313 313 313 313 313 312 312 313 314 314 313 313 313 314 315 315 314 313 312 311 310 311 312 312 311 310 308 307 307 308 308
322 321 321 321 318 316 315 314 314 314 314 313 313 313 313 313 313 312 313 315 316 316 314 313 313 314 315 314 314 314 313 313 312 311 312 312 311 310 309 309 309 309
322 321 321 320 319 317 316 316 314 314 315 315 315 313 313 314 313 312 313 314 316 316 316 315 314 313 314 314 314 314 314 315 314 312 313 313 312 311 311 311 310 310
321 321 321 321 319 317 317 317 315 315 316 316 315 315 315 315 314 313 314 314 315 316 316 316 316 315 314 313 314 314 314 315 314 314 314 314 312 312 312 311 311 311
321 321 321 320 319 317 318 318 317 316 316 317 317 316 316 316 316 316 315 315 315 315 316 316 316 317 316 315 315 315 315 315 314 314 314 314 314 314 313 311 310 310
320 320 320 319 318 318 319 319 318 317 316 317 317 317 317 317 317 317 317 317 316 316 316 317 316 317 317 317 317 317 316 316 315 314 314 314 314 315 315 313 311 311
320 320 319 319 318 318 319 319 319 318 317 317 317 318 318 318 318 319 318 318 317 317 317 318 318 317 317 317 317 317 317 317 316 316 316 315 315 315 314 314 313 313
321 320 319 319 319 319 319 319 319 318 318 318 318 319 320 320 319 319 318 318 317 316 317 318 318 318 318 317 318 318 317 317 317 317 317 316 316 316 315 314 314 314
321 320 320 319 319 321 320 320 319 319 318 318 318 319 319 319 319 318 318 318 316 315 316 318 318 318 318 318 318 318 317 317 317 317 317 316 317 317 316 315 314 314
322 321 320 318 320 321 320 319 319 319 318 319 319 319 319 318 318 318 318 317 316 316 317 318 318 318 318 318 318 318 318 317 317 317 316 316 317 318 318 316 315 314
322 321 320 320 320 320 319 319 319 319 319 319 319 319 319 319 318 318 318 318 317 317 317 318 318 319 318 318 318 319 319 319 318 318 318 317 318 318 318 318 317 316
320 320 320 320 320 319 319 319 319 320 320 319 319 319 318 317 317 318 318 318 318 318 318 318 318 318 318 318 319 320 320 320 320 319 319 319 319 319 318 318 317 317
320 320 319 320 319 319 319 319 319 319 319 318 318 318 317 317 317 318 318 318 318 318 318 318 319 319 320 319 320 320 320 320 320 320 320 320 319 319 319 318 317 317
320 320 319 320 319 319 319 319 319 319 319 318 318 317 317 318 319 319 319 319 319 319 319 319 319 318 318 317 318 318 318 319 319 319 320 320 320 320 320 318 318 318
320 319 319 319 319 318 318 319 319 319 318 318 318 318 319 319 320 320 320 319 319 318 317 316 315 313 312 312 312 313 315 316 318 319 319 319 319 319 319 319 319 318
319 318 317 316 316 317 317 317 318 318 318 318 318 318 318 317 317 316 316 314 313 312 311 310 310 309 309 309 309 309 310 311 313 315 318 319 319 319 319 319 318 318
314 314 314 314 314 314 315 315 315 315 314 314 313 313 313 312 311 310 310 309 309 309 308 308 308 308 307 308 308 307 308 308 309 311 314 316 318 318 318 318 318 318
309 310 310 311 311 311 310 310 310 309 310 310 310 310 309 309 308 308 308 308 308 307 306 306 306 307 307 307 307 307 307 307 308 309 310 313 316 317 318 318 318 317
308 308 308 308 308 308 308 308 308 308 308 308 309 309 308 308 308 308 307 307 307 306 306 306 307 307 308 307 307 307 306 307 308 309 310 312 315 316 317 316 316 315
307 307 307 307 307 307 308 307 307 308 308 308 309 308 309 308 308 307 307 307 307 307 307 307 307 308 308 308 307 306 306 306 307 309 310 313 314 314 314 313 312 312
306 305 306 307 307 307 307 307 307 308 308 308 308 308 308 308 308 308 308 308 308 308 308 307 308 308 308 308 308 307 306 305 306 308 311 312 312 311 311 310 310 310
306 305 306 306 307 307 306 306 306 306 306 307 307 307 307 307 308 307 307 307 307 307 307 308 308 308 308 308 307 307 306 305 305 307 310 311 310 309 308 308 308 307
305 305 306 306 306 306 305 305 305 305 306 306 306 306 306 306 305 305 305 305 305 305 306 307 308 308 308 307 307 307 307 306 305 307 309 310 308 307 307 306 305 305

ECMWFNIL_925_thetae_048.txt.gz
Theta_e
325 326 328 327 324 324 324 322 321 319 317 318 318 318 319 319 319 318 318 319 318 318 318 317 316 315 315 315 316 315 314 316 317 316 316 316 316 317 317 317 317 316
322 324 326 326 325 323 321 320 321 320 319 318 318 319 318 319 319 319 319 319 318 318 319 319 317 316 315 315 316 315 314 315 315 314 314 314 314 314 316 316 316 315
322 321 321 322 321 317 314 314 317 319 318 318 318 318 318 319 319 319 319 319 318 318 319 319 319 317 316 316 316 315 315 315 315 314 314 313 313 313 314 314 315 315
322 321 321 323 321 317 315 314 314 313 313 316 318 317 318 319 319 319 319 319 318 319 319 319 320 319 318 318 317 316 315 315 316 316 315 314 314 314 314 314 314 314
322 322 323 325 322 317 314 314 314 314 313 316 319 318 317 318 319 319 319 319 320 319 319 319 320 319 319 319 319 318 317 316 316 317 316 315 315 315 315 314 314 314
323 323 325 326 323 317 315 315 317 318 317 318 320 319 319 319 319 319 319 320 320 320 320 320 320 320 319 319 319 319 319 318 318 318 317 316 315 314 314 315 314 314
325 325 326 326 323 317 318 320 320 321 320 319 319 320 320 320 320 320 320 320 320 320 320 320 320 320 320 320 320 320 319 319 319 319 318 317 317 316 315 315 314 313
328 327 326 326 324 321 322 323 322 322 322 320 318 318 319 319 320 320 320 321 321 321 321 321 321 321 321 321 321 321 320 320 319 319 319 319 319 318 317 316 315 314
328 327 326 326 325 324 324 323 323 323 322 321 320 320 320 320 319 320 321 321 321 321 321 321 321 322 322 322 322 321 321 321 321 320 320 320 320 319 319 318 317 316
328 327 326 326 326 326 325 324 324 323 322 322 321 321 321 321 321 321 322 322 322 322 321 322 321 322 322 322 322 322 321 321 321 321 321 321 320 320 320 319 319 318
327 327 326 326 326 326 326 325 325 323 323 323 322 322 322 322 323 323 323 322 323 322 322 322 322 322 322 322 323 322 322 322 322 321 322 322 321 321 321 320 320 319
327 326 327 327 326 326 327 326 325 324 324 324 323 322 322 323 323 323 323 323 323 322 322 322 322 322 322 322 322 322 323 323 322 322 322 322 322 321 321 321 321 320
326 326 326 325 324 325 326 326 326 325 325 324 323 323 324 324 324 323 323 323 323 322 322 322 322 322 322 322 322 323 323 323 323 323 322 322 322 321 321 322 322 321
326 324 322 321 323 324 325 325 326 325 324 324 324 324 324 324 324 323 323 323 323 322 322 322 322 322 323 323 323 323 323 323 323 323 323 323 322 322 322 321 321 321
325 323 321 321 324 324 323 324 325 325 325 324 324 325 324 324 324 323 324 324 323 323 323 323 323 323 322 322 322 323 323 323 323 324 323 323 323 323 322 320 320 319
324 324 322 323 323 323 323 324 325 325 324 323 322 323 322 321 323 323 323 323 323 323 323 323 323 322 320 319 320 321 321 322 322 322 323 323 323 323 322 321 320 320
323 323 323 323 323 323 323 324 324 323 322 320 321 322 320 320 321 323 322 322 322 322 323 323 322 320 319 319 319 319 319 320 321 320 321 321 321 321 321 321 321 320
323 322 322 322 323 323 323 323 323 323 322 322 323 322 321 321 322 322 322 322 323 323 322 321 318 315 315 314 315 315 315 317 319 319 319 319 319 318 318 319 319 318
323 322 322 322 322 322 321 321 322 322 322 322 322 321 321 322 322 322 321 321 321 320 319 316 311 309 310 309 309 310 309 312 316 317 318 319 319 318 318 317 317 316
320 320 320 320 320 320 320 321 322 322 321 321 321 320 320 321 321 320 319 318 317 316 316 313 309 307 308 307 307 307 306 308 311 312 314 317 318 318 318 318 317 317
314 315 316 317 317 317 318 319 320 320 319 319 319 319 318 317 317 316 315 315 314 313 313 311 307 306 307 306 306 305 304 307 310 311 314 316 317 318 318 317 317 317
312 312 313 314 314 314 315 315 316 316 316 315 315 315 315 314 314 313 312 312 312 311 311 309 306 306 307 306 305 304 305 309 312 313 315 316 316 317 316 316 317 316
311 311 311 311 311 311 312 313 313 313 312 313 313 312 312 312 312 312 311 311 311 311 312 310 308 307 307 306 305 305 307 311 312 311 313 313 314 315 314 313 314 313
310 310 310 310 310 311 311 312 312 312 311 311 311 311 311 311 311 311 311 311 312 312 311 311 309 307 307 307 305 305 307 311 310 310 311 311 312 312 311 310 311 310
309 309 309 309 309 310 310 310 311 312 311 311 311 311 311 310 310 310 311 311 312 310 309 310 310 308 307 307 306 305 306 309 310 310 310 310 310 311 310 308 308 308
309 309 309 308 309 309 309 309 312 311 310 311 311 310 310 310 309 310 310 310 311 309 309 310 311 310 307 307 307 305 305 306 309 309 309 309 309 309 309 307 305 304

ECMWFNIL_925_thetae_051.txt.gz
Theta_e
328 328 325 323 323 323 323 322 321 320 320 320 320 319 319 319 319 318 318 318 318 317 316 316 316 316 317 317 316 315 316 317 316 316 317 316 317 318 318 318 318 316
328 328 326 324 323 323 323 322 321 320 320 320 320 319 319 319 319 319 319 318 318 319 318 317 317 316 316 317 316 315 316 316 315 314 315 315 315 316 317 317 317 316
330 329 328 326 325 325 325 323 321 320 321 321 320 319 319 319 320 320 319 318 319 320 319 318 317 316 317 317 316 316 316 316 315 315 315 315 315 316 316 317 317 316
330 330 328 327 326 326 326 324 322 322 322 322 320 319 320 320 320 320 320 319 319 320 320 320 319 318 318 317 316 317 316 317 317 316 316 316 316 316 316 316 317 316
330 329 328 327 324 323 323 323 323 322 322 322 320 320 320 320 320 320 320 320 320 321 321 320 320 320 320 319 318 318 318 318 318 317 316 316 316 316 316 316 316 316
329 328 328 327 325 322 321 321 321 320 320 321 321 320 320 320 320 320 320 321 321 321 322 321 321 321 321 320 320 320 319 319 319 318 317 317 316 316 316 316 316 315
328 327 327 328 326 323 321 320 319 318 319 321 321 320 320 320 320 320 321 321 321 322 322 322 322 322 322 321 321 322 321 320 320 320 319 318 317 316 316 316 316 315
327 327 328 329 328 325 321 320 320 319 320 322 321 320 320 320 320 321 322 322 322 322 322 322 323 323 323 323 323 322 322 322 321 321 320 320 319 318 317 317 317 316
328 329 329 329 329 326 322 320 321 320 320 321 322 322 321 321 320 321 322 322 322 322 323 323 323 323 324 324 324 323 323 323 322 322 322 321 321 321 320 319 318 318
329 330 329 328 328 327 324 322 321 322 322 321 321 321 321 321 321 321 321 322 322 322 322 323 323 324 324 324 324 324 324 323 323 323 323 323 322 322 321 321 321 321
330 330 329 328 328 326 325 323 322 322 322 321 320 320 321 321 321 321 321 321 322 322 322 322 323 323 324 324 324 324 324 323 323 323 323 323 323 323 322 322 322 322
329 331 330 329 328 327 326 324 322 322 322 321 321 320 321 321 321 321 321 322 322 323 322 322 323 322 322 323 324 324 324 324 323 323 324 323 323 323 322 322 322 322
328 330 331 330 329 329 327 325 324 323 322 321 322 322 322 322 321 322 323 323 323 323 323 323 323 322 323 323 324 323 324 324 324 324 324 324 324 323 322 322 322 321
326 326 328 328 328 327 325 325 325 324 323 322 322 322 323 322 322 323 324 323 323 323 323 323 323 323 323 324 323 323 324 324 324 324 324 324 323 323 322 323 323 323
325 324 325 325 325 324 324 324 325 324 323 323 323 323 323 323 323 323 324 324 324 324 323 324 324 323 323 324 324 324 324 324 324 323 323 322 321 322 323 324 324 323
325 324 324 324 323 323 323 323 324 325 324 322 323 323 323 322 322 322 323 323 322 323 324 325 323 323 323 324 323 322 322 322 323 323 323 322 320 320 323 324 323 323
325 325 324 324 323 322 322 322 323 325 324 322 322 322 321 321 321 321 322 322 320 320 321 322 322 322 323 321 320 320 321 322 322 322 322 321 319 319 321 322 322 323
324 324 324 324 323 322 322 323 323 323 322 320 319 319 319 319 319 321 322 321 320 320 321 322 322 321 319 319 318 318 319 320 320 319 319 320 319 318 319 320 320 320
324 324 324 324 324 323 322 322 322 321 321 320 320 319 320 320 321 321 322 321 320 320 320 318 316 315 314 313 314 314 314 316 318 318 317 317 317 317 317 317 317 316
324 324 324 324 324 323 323 322 321 320 321 321 321 321 321 322 322 321 321 321 320 319 317 313 310 309 308 308 309 308 308 311 314 315 315 316 316 316 316 316 315 315
319 320 320 321 322 322 322 322 322 321 321 321 321 321 321 321 320 319 318 318 318 317 315 310 306 306 306 305 305 304 303 307 313 314 314 315 316 316 316 316 316 316
315 315 316 317 318 318 319 320 320 320 320 320 320 319 319 318 317 317 317 316 315 315 313 309 305 304 304 303 302 303 306 311 313 313 314 315 315 315 316 316 316 316
313 313 313 314 314 315 316 316 317 317 317 317 317 316 316 315 315 315 314 314 314 313 312 309 306 303 303 303 302 304 310 314 313 312 314 314 313 314 315 314 314 314
312 312 312 313 313 313 314 313 313 314 314 314 314 314 314 314 314 313 312 312 312 312 313 311 307 304 304 304 302 303 308 313 312 311 312 312 312 313 313 311 312 313
311 312 312 312 312 312 313 312 312 312 312 312 312 312 312 312 312 312 311 311 311 312 313 312 308 305 304 304 303 302 306 311 312 310 310 311 311 311 311 310 310 311
311 311 311 311 311 311 312 311 311 311 312 312 312 311 311 311 311 311 311 311 312 311 311 312 310 307 305 305 303 302 304 308 311 310 309 310 310 309 310 309 307 307

ECMWFNIL_925_thetae_057.txt.gz
Theta_e
324 324 324 323 324 324 323 323 322 320 319 318 318 318 319 318 316 315 316 316 317 318 317 316 316 317 316 315 315 316 316 316 316 316 316 316 316 315 315 315 315 315
324 324 324 324 324 323 323 323 321 320 319 318 318 319 319 317 316 315 315 315 315 316 316 315 315 315 315 315 315 315 316 316 315 316 316 316 316 315 314 313 313 314
325 324 324 324 323 324 323 322 321 320 319 318 318 319 318 317 316 316 315 316 316 316 316 316 315 315 314 314 314 314 315 315 315 316 316 316 315 315 314 313 313 312
325 324 324 324 324 323 322 321 321 320 319 319 319 318 318 316 317 318 317 316 316 316 316 316 316 316 315 315 315 316 316 316 316 315 315 315 316 316 316 316 315 314
325 324 323 324 324 322 321 320 321 320 319 319 319 318 318 317 318 319 318 316 317 317 317 317 317 316 316 317 317 317 316 316 316 315 315 316 315 315 315 317 316 315
327 325 324 324 323 321 320 321 321 320 319 319 319 319 318 318 319 319 318 319 319 319 317 317 317 317 317 317 317 317 316 317 316 316 316 317 316 314 314 315 315 315
328 326 325 324 323 321 321 322 321 320 319 319 319 319 319 319 319 319 320 320 320 319 319 319 319 319 319 319 318 317 318 318 317 316 316 317 316 315 314 314 313 313
328 327 326 324 323 321 321 323 322 320 320 319 319 320 320 320 320 320 320 321 321 320 320 321 321 320 321 321 319 319 320 320 319 317 317 317 316 316 316 315 314 313
328 326 326 325 325 322 322 323 322 321 320 319 320 321 321 321 320 320 321 321 321 321 321 322 321 321 322 322 321 321 321 322 321 319 319 320 318 317 317 317 317 317
328 326 324 324 323 321 322 323 322 322 321 319 320 320 320 320 320 321 321 321 321 322 322 322 322 322 323 323 322 323 323 323 322 322 322 322 321 319 319 319 319 319
326 326 325 322 319 317 319 321 321 321 321 319 319 320 320 320 321 321 322 322 322 322 322 322 323 323 324 324 324 324 324 323 323 323 322 322 322 321 321 321 321 321
324 325 325 321 319 319 319 319 318 320 320 319 319 320 320 321 321 321 321 322 321 321 321 321 321 323 324 324 324 324 324 323 322 322 322 322 322 322 321 321 321 322
326 326 325 322 321 322 322 320 318 318 319 319 320 320 320 320 321 320 321 322 321 320 320 319 321 322 323 323 323 324 324 323 322 321 322 322 322 321 320 320 321 321
325 326 325 323 322 323 323 323 321 318 318 319 321 321 321 321 321 321 321 321 321 320 319 319 320 320 321 322 323 322 322 323 322 320 321 321 321 321 320 320 320 321
323 324 324 322 322 323 324 325 324 321 320 320 321 321 321 321 321 321 321 321 320 320 320 320 320 319 319 321 321 321 321 321 321 320 319 319 320 321 321 320 320 320
323 323 324 322 322 323 323 324 324 323 322 321 321 321 321 321 321 321 321 321 321 321 320 320 319 319 319 320 321 321 321 321 321 320 319 319 320 321 321 320 320 320
323 323 323 323 323 324 323 323 324 323 322 321 321 321 321 321 321 321 321 321 321 321 321 320 319 319 319 320 321 322 322 321 320 319 318 319 320 319 320 321 321 321
321 322 323 323 324 324 323 323 323 323 322 322 321 321 321 321 321 321 321 321 320 320 320 320 319 318 318 320 321 321 321 320 319 319 318 318 318 318 319 321 322 322
322 322 323 323 324 324 322 322 323 323 322 322 322 322 321 320 321 321 321 321 320 320 319 319 318 319 319 320 320 320 320 319 319 319 317 317 318 319 320 321 321 321
322 323 322 322 323 322 322 322 322 322 322 322 322 322 322 321 321 321 320 320 319 319 318 318 318 320 320 320 319 319 319 318 318 317 317 317 319 319 320 321 321 321
321 321 321 322 322 322 322 322 322 321 322 322 321 322 322 321 321 320 319 318 319 319 318 319 320 320 319 318 318 318 317 316 316 317 317 317 317 318 319 318 319 321
320 320 321 321 322 323 323 322 322 322 321 321 321 321 320 320 320 320 319 319 320 319 319 319 319 318 316 316 317 316 313 312 314 315 316 316 316 316 316 316 317 319
317 320 320 321 322 323 322 321 322 322 321 321 320 320 320 320 320 319 319 320 320 318 317 317 316 314 313 312 312 310 309 311 314 315 315 315 315 315 316 315 316 317
311 314 316 317 320 321 321 321 321 321 321 321 320 320 320 320 320 319 318 319 318 316 314 314 312 310 308 306 305 305 307 312 314 315 315 315 314 315 314 312 313 315
307 308 310 312 314 316 317 319 319 319 319 319 319 318 318 318 319 319 317 317 317 315 313 313 310 306 304 302 302 305 309 312 313 314 314 314 313 313 311 308 310 312
307 307 308 308 310 310 312 314 315 316 316 318 318 317 316 317 318 318 318 317 316 315 314 312 308 304 302 301 303 307 310 311 311 313 314 313 312 312 310 307 307 308

ECMWFNIL_925_thetae_060.txt.gz
Theta_e
324 325 325 324 324 324 323 322 321 320 320 320 319 318 318 319 319 320 319 319 319 319 318 318 318 318 317 316 317 319 318 315 315 315 314 315 315 315 316 317 318 321
324 324 324 323 324 324 323 322 321 320 319 318 318 318 317 318 318 319 319 318 318 318 318 318 316 315 315 314 314 316 316 315 315 314 314 314 314 315 315 316 316 317
324 324 323 323 324 323 322 322 322 321 319 317 317 317 316 316 316 318 319 317 316 317 317 316 314 313 315 315 314 315 315 315 314 314 313 313 313 313 314 314 315 315
324 323 323 323 323 323 322 321 321 319 318 317 317 317 316 315 315 316 317 317 315 315 315 314 313 314 315 315 314 314 315 315 314 313 313 313 313 312 312 313 314 314
324 323 323 324 323 323 322 321 320 318 317 318 319 318 316 315 314 315 316 316 316 315 314 314 314 314 314 314 314 313 314 315 314 314 314 315 315 313 312 313 314 314
324 324 323 323 323 323 322 321 319 318 318 318 319 317 315 315 315 316 316 316 315 315 315 314 314 314 315 315 315 314 314 315 314 314 315 315 316 315 314 313 313 314
324 324 323 323 323 322 321 320 319 318 318 318 318 316 316 316 316 316 316 316 316 316 316 316 316 316 316 316 315 315 315 315 315 315 314 313 315 315 315 314 313 313
324 324 324 323 323 321 321 320 319 318 318 319 318 317 317 318 317 316 316 317 317 316 316 316 316 317 317 316 316 316 316 316 316 316 315 314 314 314 314 313 313 313
325 324 323 323 322 321 320 320 319 319 319 318 318 317 318 319 318 318 319 318 317 317 318 317 317 318 317 317 318 318 317 315 316 316 315 315 315 315 314 313 313 313
324 323 322 322 322 321 321 320 319 319 319 318 318 318 319 319 319 320 320 319 318 319 320 319 320 320 319 318 320 320 318 316 316 317 316 316 316 316 316 316 315 314
323 322 322 322 322 323 321 320 320 319 319 319 319 319 320 320 320 320 320 320 319 321 321 321 321 321 320 319 320 321 320 318 318 319 319 318 317 317 317 318 318 317
323 322 323 323 323 322 322 322 320 320 320 319 319 320 320 320 320 320 320 321 321 321 321 322 322 322 322 321 321 322 321 321 320 321 321 320 319 318 319 319 319 319
324 323 323 323 320 320 322 321 316 317 320 320 320 320 320 320 320 321 321 321 321 322 322 322 323 323 323 323 323 323 322 322 322 321 322 322 321 321 321 321 320 320
323 323 322 319 316 316 318 315 311 315 320 320 319 319 320 321 321 321 322 321 321 322 322 322 323 323 323 323 323 324 323 323 322 321 321 321 322 321 321 320 320 321
323 323 322 319 317 318 318 316 315 318 321 319 319 319 320 321 321 320 321 321 321 321 320 321 321 322 323 323 323 323 323 323 322 322 321 320 321 321 321 320 320 320
323 324 324 321 320 321 321 320 319 319 320 319 319 319 320 320 321 320 320 321 321 320 319 319 319 320 321 322 321 322 323 322 321 321 321 320 319 320 320 320 320 320
323 324 325 323 322 322 322 322 321 319 319 320 320 320 321 320 321 321 320 320 321 320 319 319 319 320 320 319 319 320 321 321 321 320 320 319 319 319 320 321 320 320
324 324 325 324 322 322 323 324 322 321 320 320 321 321 321 321 321 321 321 321 320 320 320 320 320 319 319 318 318 319 320 321 321 320 319 319 318 319 320 320 320 320
323 323 323 323 322 322 323 324 323 322 321 321 321 321 321 321 321 321 321 321 321 320 320 320 320 319 318 318 318 318 320 321 321 319 319 318 317 318 320 320 321 321
322 322 322 322 322 322 323 323 323 322 322 321 321 321 321 321 321 321 321 321 321 321 320 320 320 319 318 317 317 317 319 319 319 319 318 318 317 317 319 321 321 321
321 321 322 322 323 323 323 323 322 322 322 322 322 321 321 321 321 321 321 321 321 320 320 319 319 318 317 317 318 318 319 319 319 319 318 318 317 318 320 321 321 321
320 320 321 321 321 321 321 321 321 322 321 321 321 321 322 321 321 321 321 320 320 320 319 319 318 317 318 319 318 319 319 318 318 318 318 318 318 319 320 321 321 321
316 318 319 320 321 321 321 321 321 321 321 321 321 321 322 322 322 321 320 320 319 319 319 318 318 318 319 319 319 319 317 315 315 317 317 317 318 318 319 320 321 321
307 310 311 313 315 318 320 321 322 321 321 321 321 321 321 321 320 320 319 319 319 319 319 318 318 319 318 317 318 317 314 312 314 316 316 316 316 316 317 318 319 319
303 304 304 305 306 308 312 315 318 320 321 321 321 320 320 320 320 319 319 318 318 319 319 318 318 318 316 315 314 312 310 311 315 315 315 316 315 316 316 317 317 317
302 302 302 303 303 304 305 306 308 312 316 320 321 321 320 320 320 319 318 318 318 318 317 317 317 316 313 312 309 306 306 311 315 315 315 315 314 315 315 316 316 315

ECMWFNIL_925_thetae_063.txt.gz
Theta_e
324 325 325 325 325 324 322 322 320 319 319 318 319 319 320 321 321 320 319 319 319 319 319 320 321 321 321 322 320 317 315 315 315 315 316 317 317 318 319 321 322 324
325 325 324 324 325 323 322 322 321 319 319 319 319 319 319 320 320 319 319 319 319 319 318 319 320 319 319 320 320 317 315 315 314 314 315 316 317 318 320 322 323 324
325 324 323 324 325 323 322 321 320 320 319 319 319 318 318 319 319 319 319 319 319 318 318 317 318 317 316 318 319 317 315 315 314 314 314 315 316 317 318 320 321 322
324 323 323 325 325 323 322 320 320 320 319 319 319 318 318 318 319 318 318 318 318 318 318 316 315 314 314 316 317 316 315 315 314 313 313 314 315 315 315 316 318 319
324 324 324 325 324 323 322 321 320 320 319 318 318 317 317 317 318 318 317 317 318 318 316 314 313 313 314 315 316 315 315 314 313 312 313 313 314 314 313 314 316 317
324 324 324 324 324 323 322 321 321 320 318 317 316 316 316 315 316 317 317 316 316 316 314 313 314 314 314 314 315 315 314 313 313 314 313 312 313 313 313 313 313 314
324 324 323 323 323 323 322 321 321 320 317 316 316 317 316 315 314 316 316 315 315 314 314 314 314 314 314 313 314 315 314 314 314 315 315 314 313 313 313 313 313 313
324 323 323 323 323 322 322 321 320 319 317 317 318 317 316 315 314 315 316 315 315 314 314 314 313 314 314 314 313 314 314 314 315 314 314 315 314 314 313 313 313 313
324 324 323 323 323 322 322 321 320 318 317 318 318 317 315 314 314 315 316 316 315 315 314 314 315 315 315 315 314 314 315 315 315 314 313 314 314 313 313 313 313 314
324 323 323 323 323 323 322 321 319 318 318 318 318 316 314 315 316 315 315 316 316 316 316 316 316 316 315 315 315 315 316 316 316 315 314 314 314 313 313 313 313 314
324 323 323 323 322 322 321 320 319 318 318 318 318 316 316 316 317 315 316 317 317 316 316 316 316 317 316 316 317 317 317 316 316 315 315 315 315 315 315 315 314 314
324 323 322 322 322 321 321 319 319 319 318 319 317 316 317 316 316 316 317 318 318 316 317 317 317 317 317 317 318 319 319 317 315 316 316 316 316 315 316 316 317 316
323 322 321 320 319 319 318 318 319 320 319 319 318 316 317 317 317 317 318 319 318 317 318 319 319 319 320 318 318 320 320 318 316 317 318 318 318 317 317 318 318 318
322 321 321 320 317 316 317 318 319 320 319 318 318 317 317 318 319 319 319 320 319 318 319 320 320 321 321 319 319 320 320 319 318 319 320 320 320 319 318 319 319 320
320 320 320 320 316 315 320 321 319 320 319 319 319 318 317 318 319 319 320 320 320 319 320 321 321 321 322 321 321 321 321 321 321 321 321 321 321 320 320 320 320 320
320 320 320 319 317 318 321 321 319 320 319 319 319 319 319 319 320 320 320 320 320 320 320 321 321 321 322 322 322 322 322 323 322 322 322 321 321 321 321 321 321 320
320 321 322 321 321 321 322 321 320 319 317 316 317 318 319 319 319 320 320 320 320 321 321 321 321 321 322 323 323 323 323 323 323 323 323 322 321 320 320 320 320 320
320 320 321 321 320 320 320 320 317 315 314 316 318 319 319 318 318 319 320 320 321 321 321 321 321 321 321 322 322 323 322 323 322 322 322 321 321 320 319 319 319 320
322 321 320 321 321 321 321 320 317 315 316 319 320 319 319 319 319 319 320 320 321 321 321 321 320 320 320 319 320 321 321 320 321 321 321 320 320 320 319 318 319 320
321 321 321 320 321 321 322 322 321 319 320 320 320 320 319 319 319 319 320 320 320 320 320 320 320 319 319 319 319 319 319 319 319 320 321 320 320 319 319 318 319 320
320 321 321 320 319 320 320 321 320 320 320 320 320 320 320 320 320 320 320 320 320 320 320 320 320 320 320 319 319 319 318 318 319 320 321 320 319 318 318 319 319 320
315 317 318 319 319 319 320 320 319 319 320 320 320 320 320 320 320 321 321 320 319 319 319 319 320 320 320 319 319 318 318 317 318 320 320 320 319 318 317 318 320 320
307 309 311 312 314 315 317 319 320 320 320 319 320 320 320 319 319 319 320 319 319 319 319 319 319 319 320 319 318 317 317 318 319 319 320 319 319 318 317 318 320 321
303 304 304 305 305 306 308 312 316 319 320 320 320 320 320 320 320 320 320 320 320 319 319 319 319 319 318 318 318 318 318 319 319 319 319 318 318 317 317 319 321 321
302 302 303 303 302 302 303 304 307 311 315 319 320 320 321 321 321 320 320 320 320 319 319 319 319 318 318 318 318 318 319 319 319 317 317 317 317 317 318 319 320 321
301 301 302 302 302 302 302 302 302 303 306 309 313 316 318 320 320 320 320 320 319 319 319 319 319 319 318 318 318 318 318 318 316 314 314 316 316 317 317 318 319 320

ECMWFNIL_925_thetae_066.txt.gz
Theta_e
329 329 328 326 326 325 323 325 327 326 323 322 322 322 321 321 322 323 322 320 318 317 319 321 322 322 322 321 318 316 316 316 317 318 319 320 320 320 321 322 323 324
328 327 326 326 325 323 323 324 325 325 323 321 321 321 321 322 322 322 320 318 317 317 318 320 321 321 321 320 317 314 315 315 315 316 317 317 318 319 320 322 323 324
326 325 325 325 324 323 323 324 323 322 320 319 320 320 321 322 321 319 318 318 318 317 317 318 319 319 319 320 318 314 314 315 315 315 316 317 318 318 319 321 323 324
325 325 324 324 324 323 323 322 321 320 318 318 319 319 320 321 320 319 319 319 318 317 317 317 317 316 316 318 319 315 314 314 314 314 315 316 317 317 318 319 321 323
324 325 325 324 324 323 322 321 320 319 318 319 318 318 318 319 319 319 319 319 318 317 317 315 314 313 314 317 318 316 314 314 314 314 314 314 315 315 317 318 319 321
324 325 324 324 324 323 322 321 320 319 319 319 318 318 318 318 318 318 318 318 318 317 317 315 312 312 314 316 316 315 314 313 313 313 313 313 313 313 314 316 317 320
324 324 324 323 323 323 322 321 321 320 319 319 318 317 317 317 317 318 317 317 317 317 315 314 312 312 314 315 315 314 313 313 313 313 313 313 313 312 313 313 315 317
324 324 323 323 324 323 322 321 321 321 319 318 317 316 316 315 315 316 317 316 316 315 314 313 313 313 313 314 314 314 313 313 314 315 314 313 313 313 312 313 313 314
324 324 323 324 324 323 322 322 322 321 319 317 316 316 316 316 314 315 316 316 315 314 314 313 313 313 313 313 314 314 314 314 314 314 314 314 313 313 313 313 313 313
323 324 323 324 323 323 323 323 322 320 318 316 316 317 317 315 314 314 315 316 315 314 313 313 313 314 314 314 314 314 314 314 315 314 313 314 313 313 313 312 313 313
323 323 323 323 323 323 323 322 321 320 318 316 317 317 316 314 313 314 316 316 315 315 314 314 315 315 315 315 314 314 314 315 315 315 314 314 314 314 313 314 313 313
323 323 323 322 322 323 322 322 321 320 317 317 318 317 315 313 313 314 315 315 315 315 315 315 315 316 316 315 315 315 316 317 316 315 315 315 315 315 315 316 316 315
323 323 323 323 322 322 321 321 321 319 318 318 318 317 315 314 314 314 315 315 316 316 316 315 316 316 316 316 316 317 318 318 317 316 315 315 316 316 316 316 318 317
323 323 322 321 321 321 320 320 320 319 318 318 318 317 316 315 315 315 315 315 316 316 316 316 316 317 317 317 318 318 318 319 319 317 315 317 318 318 317 317 318 319
322 322 322 321 320 320 319 319 318 317 316 318 319 318 317 316 316 316 315 315 316 316 316 316 317 318 318 319 320 319 318 319 320 318 317 318 319 320 319 319 319 319
321 322 323 322 321 320 319 317 315 313 315 318 319 318 318 317 317 318 317 316 317 317 317 316 316 318 319 320 320 320 319 319 320 320 319 320 321 321 320 320 320 320
319 320 321 321 320 320 318 315 312 312 316 319 319 318 318 317 317 318 318 318 319 318 318 317 317 318 319 320 321 321 320 320 321 321 321 321 322 322 321 321 320 320
318 318 319 319 319 318 317 316 315 316 318 319 318 318 318 318 318 319 319 319 319 319 319 319 319 319 320 320 321 321 321 321 321 322 322 322 322 322 322 321 321 320
318 319 319 319 319 318 318 318 319 319 319 319 319 319 319 319 319 319 319 319 319 319 320 320 320 320 320 321 321 321 321 322 322 323 323 323 322 322 322 321 320 320
319 319 319 319 319 319 319 319 320 319 319 319 319 318 318 318 318 319 319 319 319 319 319 320 320 320 321 321 321 321 322 322 323 323 322 322 321 320 320 320 320 319
318 318 318 318 319 320 320 320 320 320 319 318 318 317 317 318 319 319 319 319 319 319 319 320 320 320 320 321 321 321 321 321 322 321 321 320 319 319 320 320 320 319
313 315 316 317 318 320 320 320 319 319 319 319 319 319 319 319 319 319 319 319 319 319 319 319 320 320 319 319 319 319 319 320 320 320 319 319 318 319 320 320 319 318
307 309 310 312 315 317 318 319 319 319 319 319 319 319 319 319 319 319 319 319 319 319 320 319 319 319 318 317 318 319 319 319 319 319 318 318 318 319 320 320 319 317
302 303 303 305 307 308 310 312 315 317 319 320 320 319 319 319 318 318 318 318 318 318 319 319 318 318 318 318 319 319 319 319 318 318 318 318 318 319 319 319 318 317
301 301 301 301 301 302 302 304 306 309 312 316 318 319 320 320 319 319 320 319 318 317 318 319 319 318 318 318 318 318 318 318 318 318 318 318 318 319 319 319 318 317
300 300 300 301 301 301 301 302 302 303 304 307 309 311 314 316 317 318 319 319 319 319 319 319 319 318 319 319 318 318 318 318 318 318 318 318 319 319 318 318 317 317

ECMWFNIL_925_thetae_069.txt.gz
Theta_e
327 324 324 324 324 324 325 325 324 324 323 323 323 323 323 323 322 323 324 323 321 320 321 322 322 322 322 320 319 317 317 319 321 322 323 323 323 324 324 324 325 326
326 324 323 323 324 325 325 325 325 324 323 322 322 322 323 322 322 323 323 320 318 318 320 322 322 321 320 317 315 315 316 317 318 318 319 320 320 321 322 323 323 324
328 326 325 324 325 325 326 326 326 325 323 322 322 322 321 321 322 323 320 317 317 318 320 320 320 320 320 317 314 315 316 315 316 317 317 319 319 319 321 323 324 324
329 328 328 326 326 325 325 325 326 326 324 322 321 321 321 322 322 321 318 317 318 318 318 319 318 317 319 318 315 314 315 315 315 316 317 317 317 317 319 322 324 324
329 328 328 327 325 324 323 323 326 325 323 320 319 320 321 322 321 319 318 318 317 317 317 317 315 314 316 319 317 313 314 314 314 314 315 316 315 316 318 321 323 324
327 327 326 325 324 323 323 323 324 323 321 319 318 319 320 321 320 318 319 319 317 317 316 314 313 314 316 319 317 314 314 314 313 313 314 314 314 315 316 319 322 324
326 325 325 324 323 323 323 323 322 321 319 318 318 318 319 320 319 318 319 318 317 317 315 312 312 315 316 317 316 315 314 313 313 312 313 313 313 313 315 317 320 323
326 325 324 324 323 323 323 322 321 319 319 319 318 318 318 318 318 318 318 318 318 316 314 312 312 314 315 315 315 314 313 313 313 313 313 313 312 313 313 314 317 320
325 325 324 324 323 323 323 322 320 319 319 319 318 318 317 316 317 318 318 317 317 315 313 313 313 314 314 315 314 314 313 314 314 314 313 313 313 313 313 313 314 317
324 324 324 324 323 323 323 322 320 319 319 319 318 317 316 315 315 317 317 316 316 314 314 314 313 313 313 314 314 314 314 314 314 314 313 313 313 313 313 313 313 313
324 324 324 324 323 323 323 322 320 320 319 318 317 316 316 315 315 315 316 316 315 314 314 313 313 313 313 313 314 314 314 314 314 314 313 313 313 313 313 313 313 313
323 323 323 323 323 323 323 322 320 320 319 317 316 316 316 315 315 315 316 315 314 314 313 313 314 314 314 314 313 314 314 315 316 315 314 314 314 314 314 314 314 314
322 322 322 321 321 321 320 320 320 319 318 316 316 316 316 315 314 315 316 315 315 314 314 315 315 315 315 314 314 314 315 317 317 316 315 315 315 315 315 316 317 316
321 320 320 321 322 321 319 319 319 319 318 317 316 317 316 315 314 315 315 315 315 315 315 315 315 315 315 315 315 316 317 318 319 318 316 315 316 317 316 316 317 318
321 319 319 320 322 321 320 319 319 318 318 317 317 317 316 315 314 315 316 315 315 316 316 315 315 316 316 316 317 318 318 318 319 319 318 316 316 318 318 318 318 318
320 319 319 320 320 320 319 319 319 318 318 317 317 317 317 316 316 316 316 315 315 316 316 316 316 316 317 318 319 320 320 320 319 319 319 317 318 319 320 320 319 319
319 319 319 319 319 320 320 319 317 316 317 317 317 317 319 318 317 317 318 317 316 316 317 317 317 317 317 318 319 319 320 320 320 320 320 319 319 320 321 321 321 320
318 318 319 319 319 319 319 317 314 314 315 315 315 316 318 319 317 317 318 318 317 317 318 318 319 318 318 318 318 320 320 320 321 320 320 320 321 321 321 321 321 321
318 318 318 318 318 318 318 316 315 315 316 315 315 317 318 318 318 318 318 318 318 319 319 319 319 319 319 319 319 320 320 320 321 321 321 321 321 322 322 322 321 321
318 318 319 319 318 318 318 317 317 317 317 317 318 318 318 318 318 318 318 319 319 319 319 319 319 319 319 320 320 320 320 320 321 321 321 321 322 322 322 322 321 321
316 317 318 318 318 318 318 318 318 318 318 318 318 318 318 318 318 318 318 318 319 319 319 319 319 319 319 320 320 320 320 321 321 321 321 322 322 322 322 321 320 320
313 315 316 316 317 318 318 318 319 319 319 319 319 319 319 319 319 319 319 319 319 319 319 319 319 319 319 319 319 319 319 319 319 320 320 320 321 321 320 320 319 319
308 310 312 312 314 315 316 317 317 318 319 319 319 319 319 319 319 319 318 319 318 319 319 319 319 318 318 318 318 318 318 318 318 319 319 319 319 319 319 318 318 319
303 305 306 306 307 308 310 312 314 315 317 318 318 318 318 318 318 318 318 318 318 318 318 318 318 319 319 318 318 318 318 318 318 318 318 318 318 318 318 318 318 318
302 302 303 303 303 303 304 307 309 310 312 313 314 315 316 317 317 318 318 318 318 317 316 316 317 319 319 318 318 318 318 318 318 318 318 318 318 318 318 318 318 318
300 300 301 302 303 303 304 305 306 306 307 308 308 309 311 312 312 313 314 315 316 316 315 316 317 318 318 318 318 317 317 317 317 317 317 317 317 318 318 318 318 318

ECMWFNIL_925_thetae_072.txt.gz
Theta_e
335 335 335 333 330 331 332 330 329 328 327 326 327 327 327 328 328 328 328 328 327 327 326 325 324 325 326 325 325 325 325 326 327 328 330 331 330 331 332 331 332 331
334 334 333 331 331 331 331 330 328 327 327 327 327 326 327 327 328 328 328 327 325 324 324 324 324 324 324 323 323 323 324 325 325 325 326 327 326 327 329 330 331 331
333 332 330 330 330 328 327 328 328 327 327 327 327 327 327 327 327 327 327 324 322 323 324 324 323 323 322 321 322 322 323 323 323 323 324 324 323 324 326 329 330 330
332 331 329 330 330 327 326 328 329 327 327 327 326 326 326 326 327 327 325 322 321 322 323 323 323 323 321 319 320 321 321 321 322 322 322 321 322 323 325 328 329 330
332 330 330 329 329 329 329 329 329 328 327 326 326 325 325 325 326 326 324 322 322 322 322 321 322 323 321 320 320 320 320 320 320 320 319 319 321 323 325 327 329 330
332 330 330 329 329 329 329 329 329 328 327 326 325 324 325 326 326 324 323 323 322 321 320 319 320 322 322 321 320 320 320 319 319 318 318 319 320 322 323 325 327 328
332 331 330 329 329 329 329 328 327 327 326 325 324 324 325 325 324 323 322 322 321 320 319 318 319 321 322 321 320 320 320 318 317 317 318 319 319 321 322 323 324 326
332 331 330 329 328 328 328 327 327 327 326 324 323 324 325 324 323 323 322 321 320 320 318 318 319 320 321 321 320 319 318 317 317 317 318 319 319 319 321 322 323 323
332 331 330 329 328 328 328 327 327 326 325 323 322 323 323 323 323 322 322 321 320 319 317 317 318 320 320 320 319 318 317 318 318 318 319 319 318 318 319 321 322 322
332 330 329 329 328 327 327 327 327 326 324 323 322 322 322 322 322 322 321 321 320 318 317 317 318 319 320 319 318 318 317 318 318 319 319 319 318 318 318 319 320 321
331 330 329 329 328 327 327 326 326 325 324 323 323 322 321 321 321 321 321 321 319 318 317 317 317 318 319 319 319 319 319 318 318 318 319 318 318 318 317 318 319 319
329 328 328 328 328 328 327 326 325 324 324 323 322 321 321 321 320 320 320 320 319 317 317 317 316 317 318 318 319 319 319 319 319 318 318 318 318 318 318 318 318 318
326 326 326 327 327 327 326 325 325 324 323 322 321 321 321 320 318 318 319 319 318 317 317 317 317 318 318 318 318 319 319 320 320 319 319 320 320 320 320 320 319 319
325 324 324 325 325 324 324 324 324 324 323 321 320 320 320 319 318 318 319 319 319 318 317 318 319 319 319 319 318 319 320 320 321 320 320 321 322 322 322 322 321 321
323 322 322 323 323 322 321 321 322 322 323 322 322 321 320 319 318 318 319 320 320 320 320 320 320 320 320 320 319 320 321 322 322 322 322 322 322 322 322 323 322 322
322 321 321 321 321 321 319 319 319 320 320 320 321 322 321 320 319 318 319 319 320 321 322 321 322 322 320 319 319 321 322 322 323 323 323 323 322 323 323 323 323 323
322 321 321 320 320 319 319 318 318 318 318 317 318 319 319 319 320 319 319 318 318 319 321 322 322 320 317 318 319 321 322 323 324 324 324 324 323 324 324 325 324 324
321 320 319 319 319 318 318 318 318 317 316 316 316 317 317 318 319 318 318 317 317 317 319 321 321 318 316 317 318 319 320 322 324 325 325 324 325 325 325 325 325 325
320 319 320 319 319 319 318 318 318 316 315 314 315 315 315 317 318 318 317 317 318 317 317 319 320 319 318 318 318 318 319 321 323 326 325 325 325 325 325 325 325 325
321 320 320 320 320 320 319 318 318 317 315 315 316 315 315 317 318 318 317 318 318 318 318 320 320 319 319 319 319 319 319 320 322 325 326 326 326 326 326 325 325 325
319 319 320 320 320 320 319 319 319 318 316 315 317 316 317 318 318 318 318 318 318 319 321 322 320 318 319 319 319 320 320 320 321 323 325 325 325 326 326 326 325 325
314 315 316 318 319 319 319 319 319 319 318 317 318 318 318 319 319 319 319 320 319 320 322 322 320 318 319 319 319 320 319 320 321 323 323 324 324 325 325 325 325 324
311 312 312 313 316 318 318 317 318 319 319 320 320 320 320 320 320 320 320 321 321 321 322 322 319 318 318 318 319 319 318 320 322 322 323 323 323 323 323 323 324 323
308 309 309 310 312 314 315 315 316 317 318 319 320 321 320 320 320 320 320 320 320 320 321 320 318 318 318 318 318 319 318 319 321 321 322 322 322 322 322 322 323 322
305 306 306 307 308 309 310 311 312 314 315 315 315 316 317 317 319 319 318 318 318 317 318 318 317 316 318 318 318 318 318 319 320 320 321 321 322 322 322 322 322 322
303 303 304 305 305 306 307 308 309 311 314 313 312 313 313 313 314 314 313 313 313 313 313 314 313 312 314 316 316 316 316 316 318 319 320 321 322 322 322 322 322 321

ECMWFNIL_925_thetae_075.txt.gz
Theta_e
333 331 329 330 332 331 331 330 330 330 330 329 329 330 329 328 328 328 328 328 327 327 327 327 327 327 327 327 327 326 327 328 330 332 333 333 333 333 332 331 331 329
332 331 330 331 332 330 330 331 330 330 329 329 329 329 329 328 328 328 327 327 327 326 327 326 326 326 326 326 327 326 327 328 328 328 330 330 330 331 331 332 332 330
332 331 331 332 331 331 331 330 329 329 329 329 328 328 329 328 328 327 326 326 326 326 326 326 326 326 325 325 326 326 327 327 327 326 327 327 326 327 328 330 332 331
331 332 332 331 332 332 330 329 328 329 329 328 328 328 329 328 327 326 326 325 324 325 326 326 326 325 324 324 324 325 325 325 325 325 325 325 325 326 327 329 330 331
333 333 331 330 330 330 328 328 328 328 328 328 328 328 328 327 326 326 325 323 324 325 325 325 325 324 323 324 324 324 324 324 324 324 323 323 323 325 326 328 330 331
334 332 330 330 329 327 327 328 328 327 327 327 327 327 327 326 326 326 324 323 323 323 324 325 325 324 322 323 323 322 322 322 322 321 320 321 322 323 325 326 329 331
332 331 330 329 328 327 328 329 328 327 327 327 326 326 326 326 326 325 324 323 322 321 322 323 324 324 323 322 322 322 321 321 319 319 319 320 321 323 323 324 326 328
331 331 330 329 329 328 328 328 328 327 326 325 325 326 326 326 326 324 323 322 321 320 319 320 322 324 323 322 322 322 321 319 318 319 320 320 321 322 323 324 325 327
331 331 330 329 328 328 327 327 327 327 326 324 324 325 326 325 324 323 322 322 320 319 318 318 321 323 323 322 321 320 319 318 319 319 320 320 321 321 322 323 324 326
331 330 330 328 326 327 327 326 327 327 325 324 323 324 325 324 324 323 322 322 321 319 318 318 320 322 322 321 319 318 318 319 320 320 320 320 320 320 322 323 323 324
330 329 329 328 326 327 328 327 327 326 325 323 322 322 323 324 324 324 323 322 321 318 317 318 320 320 320 320 319 318 319 320 320 320 320 320 320 320 320 321 322 323
330 330 330 329 327 327 327 327 326 326 325 324 323 322 323 324 323 323 323 322 320 319 317 318 319 319 319 319 319 319 320 320 320 320 320 320 319 319 320 320 321 321
329 329 330 329 328 327 327 326 326 325 324 324 323 322 322 322 322 322 322 322 320 318 317 317 318 319 319 320 320 320 320 320 320 320 320 320 320 320 320 320 320 320
328 327 328 329 328 328 327 326 326 325 324 323 323 322 322 320 320 321 321 320 319 318 318 317 318 319 319 319 319 320 320 321 320 321 321 321 322 322 322 322 321 321
327 327 327 328 328 328 328 327 325 325 324 322 322 322 321 320 319 319 319 320 320 319 318 319 320 320 320 319 319 319 320 321 321 321 322 322 323 323 323 323 323 322
327 326 326 326 326 326 326 326 326 325 324 322 322 321 320 319 318 318 319 321 321 321 321 321 322 322 320 319 319 320 321 322 322 322 323 323 323 324 323 323 323 324
325 325 325 325 324 324 324 325 325 325 324 324 323 322 321 320 319 319 320 320 321 322 322 322 323 323 320 318 319 320 322 323 323 322 323 323 323 324 324 324 324 324
323 323 324 324 324 323 323 323 323 323 323 323 324 322 322 322 321 321 321 321 321 322 322 323 323 322 319 318 319 320 321 324 324 323 324 324 324 324 324 324 325 325
322 323 322 322 322 321 319 319 320 319 319 319 320 319 319 320 321 321 320 320 320 321 322 323 322 319 317 317 317 318 319 321 323 324 325 324 324 324 324 324 324 325
321 321 321 321 320 319 318 318 317 317 317 316 316 316 316 317 318 317 316 315 314 315 319 323 322 319 318 317 317 317 317 318 320 323 325 326 325 325 325 325 324 325
322 322 321 321 321 320 320 319 317 315 316 316 316 317 315 316 319 320 317 315 314 316 320 322 321 320 319 318 318 318 318 318 319 322 325 326 325 324 324 324 325 325
319 321 321 321 321 321 321 321 318 317 317 318 319 319 318 318 320 321 319 319 319 320 322 323 321 320 319 319 319 319 319 319 319 321 323 324 324 322 322 323 325 325
315 318 319 320 320 320 320 320 319 319 319 319 319 320 320 320 321 322 321 321 321 321 321 322 321 319 319 319 319 319 319 319 320 322 323 322 322 321 322 324 325 324
311 313 316 318 319 319 319 319 319 319 320 320 320 320 321 321 322 322 321 321 321 320 321 321 320 319 319 319 319 319 319 319 320 321 322 321 321 322 323 323 323 323
309 310 312 314 315 315 316 317 317 318 319 320 320 320 321 321 321 321 320 319 319 319 319 318 318 318 318 318 318 318 319 319 319 320 320 319 321 321 322 322 321 321
308 308 309 310 311 312 312 314 315 316 317 318 318 319 319 318 318 318 318 317 317 317 317 315 315 316 317 317 317 317 318 317 318 319 319 318 319 320 320 320 320 319

ECMWFNIL_925_thetae_078.txt.gz
Theta_e
334 334 334 334 333 334 333 333 333 333 332 332 332 332 331 330 329 329 329 328 328 327 328 328 328 328 327 327 327 328 329 329 331 332 333 333 332 332 331 330 331 331
333 332 333 333 332 332 332 332 332 331 330 330 331 330 329 328 328 328 327 327 327 327 327 327 327 327 327 327 327 327 328 329 330 331 332 332 331 332 331 330 330 330
332 331 332 332 332 332 332 332 331 330 330 330 330 329 328 328 328 327 327 327 327 326 326 326 327 327 326 326 327 327 327 328 329 329 329 329 329 331 330 330 330 329
331 331 332 331 332 332 331 331 330 330 329 329 329 329 328 328 327 327 326 326 326 326 326 326 326 326 325 326 326 326 327 327 327 327 327 326 327 328 329 330 330 329
331 332 332 331 332 331 330 330 329 329 328 329 329 329 328 328 327 326 325 325 325 326 326 326 325 325 324 325 325 325 325 325 325 325 325 325 325 327 328 330 330 329
332 332 332 332 332 330 329 329 329 328 328 328 329 328 327 327 327 325 324 325 325 325 326 326 324 323 323 324 324 324 323 324 323 322 322 323 323 325 327 329 330 329
331 331 331 331 330 329 328 329 328 328 328 328 328 328 327 327 326 324 323 324 324 324 326 325 323 323 323 323 323 322 322 322 320 320 320 321 322 323 326 327 328 329
330 329 329 329 328 328 328 329 328 328 327 327 327 327 326 327 326 323 323 322 322 323 324 324 324 323 323 323 322 322 321 320 319 319 320 320 322 323 324 325 327 329
329 328 328 327 327 328 328 328 328 327 326 326 326 326 326 327 325 323 323 321 320 320 321 323 324 323 322 322 323 321 319 318 319 320 320 321 321 323 324 325 327 328
328 328 328 328 328 328 328 328 327 326 325 325 326 326 326 326 324 322 322 321 319 319 319 321 324 323 322 322 321 319 318 319 320 320 320 321 321 322 323 324 326 328
329 328 328 328 328 328 328 328 327 325 324 325 326 326 325 325 323 322 322 321 319 318 318 320 322 323 322 321 319 318 318 319 320 320 320 321 321 322 323 323 325 326
328 328 328 328 327 327 327 327 327 325 324 324 324 325 325 324 323 323 322 321 319 318 318 320 320 321 320 319 318 318 319 320 320 320 321 320 320 321 322 322 323 324
328 328 328 327 327 327 327 327 326 324 323 323 323 324 324 324 324 323 323 321 319 318 318 319 320 320 319 319 319 319 320 320 321 321 320 319 320 320 320 321 322 322
328 328 328 327 327 327 327 327 326 325 324 323 323 323 323 323 323 323 322 321 319 318 318 318 319 319 320 320 320 320 320 320 321 320 320 321 321 321 321 321 320 320
329 329 328 327 328 327 326 326 325 325 324 323 323 322 321 322 322 322 321 320 319 318 317 318 321 321 320 320 320 320 321 321 321 321 321 322 322 323 323 322 321 322
329 328 328 328 328 327 326 326 325 324 323 322 323 322 320 320 320 320 320 320 320 319 319 321 323 321 320 321 321 321 321 321 321 321 322 322 323 324 323 323 323 323
327 326 327 327 328 327 326 326 325 325 324 322 322 321 320 319 319 319 320 321 321 322 322 323 323 321 320 320 321 321 322 322 322 321 321 322 323 323 323 323 323 323
326 325 325 325 326 326 326 325 325 325 324 323 322 321 320 320 319 320 321 321 322 323 323 323 323 321 320 320 320 321 322 323 323 323 322 322 322 323 323 322 322 323
325 325 324 324 324 324 324 324 324 324 323 323 323 323 322 322 322 322 322 322 323 323 323 322 320 318 318 318 319 320 320 322 322 323 323 323 323 322 322 322 322 322
323 324 323 323 322 322 322 323 322 322 321 320 321 321 321 321 321 321 322 322 322 323 322 321 319 317 316 316 316 316 317 317 317 318 320 322 324 323 322 322 322 321
322 322 321 320 319 319 320 320 319 318 318 318 318 318 318 318 317 316 316 316 316 317 317 317 317 316 315 313 313 313 315 315 315 315 316 319 322 324 323 322 321 320
321 321 321 319 319 318 318 318 317 317 316 317 318 318 318 319 317 315 315 315 315 316 317 317 317 317 316 315 315 314 314 316 317 317 317 319 322 324 323 322 320 320
318 320 320 321 321 320 319 317 317 316 316 317 319 319 320 321 321 320 321 320 320 320 321 321 320 320 319 318 318 317 316 317 318 318 319 321 322 322 322 321 320 320
314 315 317 318 319 320 320 319 318 318 318 318 319 320 320 322 322 322 322 322 321 321 321 321 321 320 319 319 319 318 319 319 319 319 320 321 321 320 320 320 320 320
311 313 314 315 315 317 318 318 319 320 320 319 320 320 320 321 321 320 320 319 319 319 319 319 319 318 318 318 318 318 318 318 318 319 319 320 319 319 319 319 318 318
309 310 312 313 314 315 315 316 317 318 319 319 319 319 319 319 319 319 318 317 316 317 316 316 316 316 315 316 316 316 316 316 317 317 317 317 318 319 319 318 317 317

ECMWFNIL_925_thetae_081.txt.gz
Theta_e
332 334 334 333 333 333 333 333 331 331 331 331 332 332 332 332 331 331 331 330 330 329 329 328 327 328 329 329 328 328 328 329 330 332 333 333 332 331 331 333 332 331
329 333 335 334 334 334 333 332 331 331 332 332 332 332 332 331 331 330 329 329 329 328 328 328 327 327 327 328 328 328 328 330 331 332 333 332 332 330 330 332 332 331
329 333 335 334 334 334 333 333 332 332 332 332 332 331 331 330 330 329 328 327 327 327 327 327 326 326 326 327 328 327 328 329 331 332 332 331 331 330 329 330 330 330
332 334 334 333 333 333 333 333 333 333 332 332 332 330 329 329 328 328 327 327 327 326 326 326 326 326 327 327 326 326 327 329 330 330 329 330 330 330 329 329 329 328
333 333 331 331 331 332 333 332 331 331 331 330 330 329 328 327 327 327 327 326 325 325 325 326 326 326 326 326 325 327 327 327 328 327 327 329 329 329 329 330 329 328
332 331 330 330 331 331 332 330 330 330 329 328 328 327 327 327 326 326 326 325 325 326 326 326 325 325 326 326 326 327 326 325 325 325 325 327 327 328 329 330 329 328
331 331 331 331 329 329 329 329 329 329 328 328 328 327 327 327 326 325 325 324 325 326 325 324 324 324 325 325 324 324 323 323 324 323 323 324 325 327 329 329 329 329
331 332 331 330 328 328 329 328 328 328 328 328 327 327 327 326 325 324 324 325 325 325 325 323 323 323 323 323 322 322 322 321 321 321 321 321 323 326 328 328 329 329
331 332 330 329 328 328 328 327 327 328 328 328 327 327 326 325 324 323 323 324 324 325 324 323 323 323 322 322 321 321 320 319 319 320 320 321 323 325 326 327 329 329
331 331 329 328 329 329 328 328 327 328 328 327 326 326 326 324 322 323 323 323 323 324 324 323 323 322 322 322 321 319 318 319 320 319 320 321 323 325 325 327 328 329
330 330 328 328 329 329 328 328 327 327 327 326 325 326 326 323 322 322 322 321 321 322 323 324 323 322 322 322 321 319 319 319 320 320 320 322 323 324 325 327 328 328
328 328 328 328 329 328 328 327 326 326 326 325 325 326 325 323 322 322 320 319 319 319 321 323 323 322 321 320 318 318 319 320 320 320 321 322 323 323 323 326 327 327
327 327 328 329 328 327 327 326 325 325 326 326 325 325 324 322 322 321 320 319 318 318 320 322 322 321 319 317 317 318 319 320 320 320 320 321 322 322 323 325 326 325
328 327 328 328 328 327 326 325 324 325 325 325 325 324 323 322 322 322 321 319 318 319 320 321 321 320 318 317 318 320 320 320 320 320 320 320 320 320 321 323 324 323
328 328 328 327 327 327 326 325 324 324 324 325 325 324 323 323 322 322 321 319 318 319 319 320 320 319 319 319 320 320 320 320 320 320 321 322 321 322 322 322 322 322
328 328 327 327 327 327 326 325 324 323 323 324 324 323 323 323 322 321 321 319 319 319 319 320 320 320 321 320 320 320 320 321 321 321 322 323 323 323 323 323 322 322
327 327 327 326 326 326 325 325 324 323 323 323 322 322 322 322 321 321 321 320 320 320 320 320 320 321 322 322 321 321 321 321 322 322 322 323 323 322 322 322 322 322
326 326 325 325 325 325 325 325 324 323 322 321 321 320 321 321 321 322 322 321 321 321 320 320 319 319 320 321 322 322 322 322 323 323 324 323 322 322 321 321 322 322
325 324 324 324 324 324 324 324 323 323 322 321 321 321 321 321 322 323 322 322 322 321 319 318 318 318 318 319 320 321 322 321 321 321 322 323 323 322 321 321 321 321
324 323 322 322 323 323 322 322 322 322 321 321 321 321 321 322 323 323 322 322 321 320 319 317 317 316 316 316 317 318 319 318 316 316 318 321 322 322 322 321 321 321
322 322 322 321 321 320 320 320 320 320 320 319 319 319 319 319 321 321 321 321 319 318 317 316 315 315 314 313 313 313 313 313 313 315 319 322 322 322 322 321 321 321
320 320 320 320 320 320 319 318 318 318 319 319 319 318 316 315 316 318 319 319 316 314 313 314 315 315 315 314 313 312 312 313 314 317 321 323 322 321 321 321 321 320
319 319 318 318 319 319 319 318 318 318 317 317 317 317 317 317 317 318 319 319 318 316 316 316 317 317 317 317 317 316 316 316 318 320 321 321 320 320 320 320 320 319
317 318 318 318 318 317 317 317 318 318 318 317 317 318 320 321 320 319 319 319 319 318 318 317 317 316 317 318 318 318 318 318 319 319 320 320 320 319 319 319 318 318
315 316 316 317 318 318 318 318 319 319 319 319 320 321 321 321 320 318 317 316 315 315 315 315 314 313 314 316 317 317 318 318 318 319 319 319 319 319 318 317 316 317
312 312 313 314 316 318 319 319 319 320 320 320 320 320 320 319 318 317 315 312 312 312 311 311 310 309 310 312 314 315 315 316 316 316 316 315 317 318 317 315 314 314

ECMWFNIL_925_thetae_084.txt.gz
Theta_e
332 333 333 333 333 333 333 332 333 334 334 333 333 333 332 332 333 333 333 332 332 331 331 331 331 331 332 332 332 331 330 329 330 331 331 331 333 333 332 330 330 331
332 333 333 333 333 333 332 332 333 333 334 333 332 332 332 332 332 332 332 331 331 330 330 330 329 329 330 330 329 328 329 329 329 331 331 332 333 333 332 331 331 331
332 333 333 332 332 333 332 331 332 333 333 332 332 332 332 332 332 332 331 330 329 329 329 328 328 329 329 328 328 327 328 329 330 331 332 333 333 332 331 332 332 331
332 332 332 332 332 332 331 330 331 332 332 332 332 332 332 331 331 331 330 329 328 328 327 327 327 328 328 328 328 328 328 329 330 331 332 332 332 331 330 332 332 331
333 333 332 332 333 332 332 331 331 330 331 332 332 332 331 330 329 329 329 328 327 327 327 326 326 326 327 328 328 328 328 329 330 331 332 330 330 330 329 330 331 331
332 333 332 333 333 333 332 331 330 329 331 332 332 331 330 329 328 327 327 327 327 327 326 325 325 326 326 326 326 327 328 328 329 330 330 329 329 329 329 329 329 329
333 333 333 333 332 332 331 331 330 329 330 332 331 330 330 329 328 327 327 326 326 325 325 325 326 326 325 325 326 327 327 327 327 327 328 328 328 329 330 329 328 328
333 333 333 332 331 331 331 331 330 329 329 331 330 329 329 327 327 327 326 325 324 324 325 325 326 326 325 326 326 326 325 325 325 325 326 326 326 328 330 329 328 328
332 333 332 330 330 331 330 329 330 328 329 330 328 327 327 326 326 326 325 324 324 325 325 324 325 325 325 325 325 324 324 323 323 323 324 324 325 327 329 329 329 328
332 331 331 330 330 330 329 328 329 328 328 328 327 326 326 326 325 324 323 324 325 324 323 323 324 324 324 323 322 322 322 320 320 321 322 322 323 326 328 329 329 329
331 331 330 329 329 328 328 328 328 328 328 327 327 326 326 325 323 323 323 325 325 323 323 323 322 323 323 321 320 320 319 319 319 319 321 322 324 326 327 327 329 329
330 330 329 329 328 328 328 328 328 328 327 327 327 326 325 323 322 323 323 324 324 323 322 322 322 322 322 321 319 319 319 319 319 320 321 323 324 325 326 328 329 329
328 328 327 328 328 327 327 328 328 327 327 327 326 326 323 322 322 323 323 323 323 323 322 322 322 321 321 321 320 319 319 320 320 320 321 323 324 325 327 328 328 327
326 326 326 327 327 326 326 327 328 327 326 326 326 325 322 322 322 322 323 322 322 323 323 323 322 321 320 320 319 319 319 320 321 322 322 323 325 326 327 326 326 325
326 325 326 326 326 325 326 327 327 327 326 326 326 324 322 322 322 321 321 321 321 321 323 323 322 320 318 317 318 319 319 319 321 321 322 323 324 325 325 324 323 322
326 326 327 326 325 325 326 325 326 326 325 325 325 323 322 322 321 319 319 319 319 320 322 322 321 319 317 317 319 319 320 321 321 321 320 322 323 323 322 321 321 321
326 327 327 325 325 326 325 324 325 326 325 325 324 322 322 322 320 319 318 318 319 320 320 320 319 318 318 319 320 320 320 322 322 322 322 321 322 322 321 321 321 320
326 326 326 326 325 325 324 323 324 325 325 324 323 322 322 321 320 319 319 319 319 319 319 320 320 320 321 321 321 320 320 321 322 322 322 322 322 322 322 322 321 321
326 325 324 325 325 324 323 323 323 323 324 323 323 322 321 320 319 318 318 319 319 319 319 320 320 320 320 321 321 322 322 323 322 322 322 322 322 321 321 321 321 321
322 323 322 322 323 323 323 322 322 322 321 322 321 320 320 319 318 318 318 318 318 318 318 318 318 318 318 318 319 319 320 320 320 321 321 320 320 320 320 320 321 321
319 319 320 320 321 321 321 320 321 321 321 321 320 320 319 319 318 318 317 317 317 317 317 316 316 316 315 315 316 317 317 315 314 315 316 316 318 320 320 320 320 320
317 318 318 319 319 320 319 318 319 319 320 320 320 319 318 317 317 316 316 315 315 316 316 316 315 315 313 314 316 318 318 316 314 315 317 319 320 321 321 320 320 319
318 318 318 317 318 318 318 317 317 318 318 318 318 318 317 316 315 314 314 314 314 314 315 315 316 316 315 315 316 318 317 317 318 319 320 320 320 320 320 320 319 319
317 317 317 317 317 317 317 317 317 316 316 316 316 317 317 316 315 314 313 313 314 314 315 316 316 317 317 317 317 317 317 318 319 319 319 319 319 319 319 319 319 319
316 317 317 317 317 317 317 317 316 316 316 316 316 316 316 316 316 315 314 314 314 314 313 314 315 315 316 317 318 318 318 319 318 319 319 318 317 317 317 316 316 315
313 315 316 318 318 318 318 317 317 316 316 316 316 317 316 315 315 314 312 311 310 309 308 309 310 311 313 315 316 317 318 318 319 319 318 316 314 314 313 312 311 311

ECMWFNIL_925_thetae_087.txt.gz
Theta_e
333 332 332 330 330 330 330 331 331 331 331 332 333 333 334 334 333 333 333 332 333 332 333 334 334 333 333 333 333 333 332 332 332 332 331 331 331 331 332 331 331 331
333 332 332 331 331 330 330 331 332 332 332 332 333 333 333 333 333 333 333 333 333 332 333 334 333 333 333 333 333 332 332 332 332 331 331 330 331 331 331 331 331 330
332 332 332 332 331 331 331 332 332 332 332 332 333 332 333 332 332 332 333 333 333 332 333 333 332 333 333 332 333 332 331 331 331 331 330 330 331 332 332 331 330 330
333 333 332 332 332 332 332 332 332 332 333 333 333 332 332 331 332 332 332 332 332 331 332 331 331 331 331 331 331 330 329 329 329 330 330 331 332 332 332 331 331 331
333 332 332 332 332 332 332 332 332 332 332 333 333 332 332 331 331 332 331 331 330 330 330 329 329 329 329 329 328 327 328 329 329 330 331 332 332 332 332 331 331 331
331 331 331 332 332 332 332 332 332 332 332 333 332 332 331 331 331 331 330 329 329 329 329 328 327 328 328 327 327 327 328 329 330 331 332 332 331 331 331 330 331 331
329 330 330 331 331 332 332 331 331 331 332 332 332 332 331 330 331 331 329 328 327 328 327 326 326 327 328 327 327 328 328 329 330 331 331 330 330 330 329 329 330 330
329 329 330 331 331 331 331 331 331 331 331 331 331 331 331 328 329 330 328 327 327 327 326 325 325 326 327 327 327 328 328 329 330 330 329 328 329 329 329 329 329 328
329 329 330 330 331 331 331 331 331 330 330 331 331 330 329 327 327 328 327 327 327 326 325 325 325 325 325 326 327 327 328 328 328 327 327 327 328 328 329 329 328 327
329 329 329 330 330 331 331 331 331 330 330 331 330 328 327 327 327 327 327 326 325 325 325 325 325 325 325 325 326 326 325 326 325 325 325 326 326 327 329 328 328 327
328 328 328 328 328 328 329 329 328 329 330 330 329 328 327 327 327 327 326 325 324 324 324 325 325 325 325 325 325 324 323 323 323 322 323 324 324 325 328 328 328 328
328 328 328 328 327 326 326 326 326 327 328 328 327 328 327 326 326 326 325 324 324 324 324 324 325 325 325 324 323 323 322 321 320 319 320 322 322 323 326 328 328 328
327 327 328 328 328 327 327 327 327 327 326 325 325 326 326 326 325 325 324 324 324 323 323 323 324 324 323 321 320 320 320 319 318 318 319 320 322 323 326 327 328 329
326 327 328 327 327 327 327 327 326 326 326 324 324 325 326 325 324 323 324 324 324 322 322 322 322 322 321 320 318 318 319 319 319 319 320 322 323 325 326 327 327 327
326 326 327 327 327 326 326 326 324 325 325 324 323 325 325 323 322 323 324 324 323 322 322 322 321 321 321 320 320 318 319 320 320 320 321 324 325 326 325 325 325 324
326 326 326 326 327 326 325 325 324 325 325 324 324 325 324 321 322 324 324 324 323 323 322 322 321 321 321 320 319 318 319 321 321 321 322 324 325 324 323 322 321 320
326 325 325 327 327 325 324 325 325 325 324 324 324 324 322 321 322 323 323 323 323 322 322 322 321 321 319 318 318 318 319 321 322 322 323 324 324 322 320 319 319 319
325 325 325 326 326 325 324 324 324 324 323 323 323 323 322 321 321 321 322 322 322 322 322 322 321 319 317 317 319 319 319 320 321 322 323 322 321 320 320 319 320 320
323 325 325 325 325 324 324 324 323 322 322 323 322 322 321 320 319 320 320 320 320 320 321 320 319 318 318 319 321 321 320 320 321 321 321 321 320 320 320 320 320 320
320 322 323 323 323 323 322 322 321 321 321 321 321 320 319 318 317 318 318 318 319 320 320 320 320 320 320 321 321 322 322 321 321 321 321 320 320 319 319 319 320 320
318 319 320 321 321 321 321 320 320 320 318 318 318 318 318 317 316 317 317 318 318 319 320 321 322 322 321 321 322 322 322 321 321 320 319 318 318 318 318 319 319 320
317 318 318 319 319 320 320 319 318 318 316 314 314 315 315 316 316 316 316 316 316 317 319 319 320 321 320 319 320 320 321 320 318 317 316 316 318 319 318 319 319 319
316 317 317 317 318 318 317 317 316 315 314 312 310 311 312 313 314 315 315 315 315 316 316 316 316 317 318 317 316 316 317 316 315 315 315 316 319 320 319 319 319 319
316 317 316 316 316 315 315 315 314 313 312 312 311 311 311 311 312 314 314 315 315 315 315 315 315 316 318 317 316 316 316 316 315 315 315 316 318 319 319 319 319 318
316 317 317 316 315 315 314 315 315 314 313 312 312 311 311 311 312 313 313 314 314 314 315 315 315 316 317 317 317 316 317 316 316 316 317 317 317 317 317 316 316 316
316 316 316 316 316 315 315 314 315 315 314 313 312 311 311 311 312 312 312 312 313 313 314 315 315 316 317 318 318 317 316 317 317 317 317 316 314 314 313 312 312 312

ECMWFNIL_925_thetae_093.txt.gz
Theta_e
327 327 328 329 329 329 330 330 329 329 330 331 331 331 330 330 330 330 329 329 331 331 332 333 332 331 331 331 331 331 332 331 331 331 331 331 331 331 332 332 331 330
328 327 327 328 328 329 329 329 328 328 330 331 330 330 330 330 330 330 329 330 331 332 333 333 332 332 332 331 331 331 331 331 331 331 330 331 330 330 331 331 331 330
328 327 328 328 328 328 329 328 328 328 329 330 330 330 329 329 330 330 330 331 332 332 333 332 332 332 332 332 331 331 331 331 331 331 330 330 330 330 331 332 331 330
328 328 328 328 328 328 328 328 328 328 329 330 330 330 329 329 330 330 331 332 332 333 333 332 332 332 332 332 331 331 331 330 330 331 331 331 330 331 332 331 332 331
327 328 328 328 328 328 328 328 328 328 328 329 329 329 329 329 330 331 332 332 332 332 332 332 332 332 332 332 332 332 331 330 330 331 331 331 331 331 331 331 331 331
327 327 328 329 329 329 328 328 328 328 328 328 328 329 329 329 331 332 333 333 332 332 332 332 332 331 331 332 332 331 331 331 331 331 331 331 331 330 331 331 331 330
328 328 327 328 329 329 329 328 328 328 329 328 328 329 330 330 331 332 332 333 332 332 332 331 331 332 332 331 330 330 331 331 331 332 332 332 330 330 331 332 332 331
327 327 327 327 328 329 329 329 329 329 329 329 329 330 331 331 332 332 332 332 332 332 332 332 332 332 332 331 331 331 331 330 330 330 331 331 331 331 331 332 332 332
326 327 327 327 327 328 329 329 330 329 329 329 330 330 331 331 331 331 331 332 332 332 332 331 331 331 331 331 332 331 329 328 329 329 330 331 331 332 331 331 332 331
325 326 327 328 328 329 329 329 329 329 329 329 329 329 330 330 329 330 330 330 331 331 330 330 329 329 329 330 330 328 327 327 327 328 329 330 331 332 331 331 331 331
325 325 326 327 328 328 329 329 329 328 329 329 329 329 330 330 329 329 329 327 329 330 330 329 328 327 328 328 328 327 327 327 327 328 329 330 330 330 330 330 330 331
325 325 326 327 327 328 328 328 328 328 329 329 329 330 331 330 329 330 328 325 326 328 328 327 326 326 327 326 327 327 326 327 328 329 329 328 328 328 328 328 329 330
325 325 325 326 327 328 328 328 328 327 328 329 329 329 330 329 329 330 328 326 326 327 326 326 326 326 325 325 325 326 327 327 327 327 327 325 325 326 327 328 328 327
324 325 325 326 326 327 327 327 327 327 327 328 329 329 328 328 329 328 327 326 326 326 325 325 325 325 324 325 325 326 326 326 325 325 323 321 322 325 326 328 328 327
323 324 325 325 326 326 326 326 326 326 327 327 328 328 327 327 327 326 325 325 325 325 325 325 325 325 324 324 325 325 324 324 323 322 320 319 321 324 325 327 328 328
322 324 325 325 325 325 325 325 325 325 325 326 325 326 325 325 325 325 324 324 324 324 324 324 324 325 325 324 325 324 322 321 321 319 318 319 321 324 326 327 327 327
320 322 324 324 324 323 324 324 323 323 324 323 323 323 324 324 324 324 323 323 323 323 323 323 324 325 325 324 323 321 319 319 319 318 319 321 323 325 326 325 324 323
318 320 322 322 322 322 322 322 322 322 322 322 322 322 323 323 323 323 323 322 321 321 321 322 323 324 323 321 319 318 318 318 319 320 322 324 325 325 324 322 320 319
316 318 319 319 320 321 321 321 321 321 321 321 321 321 321 321 321 321 321 320 320 319 319 320 321 321 320 319 318 318 318 319 320 322 324 324 324 323 321 319 318 318
315 316 316 316 317 319 319 319 319 318 318 317 318 319 319 319 319 319 319 319 319 319 319 319 319 319 318 318 318 318 319 320 322 323 323 323 322 320 319 318 318 318
314 314 314 314 315 316 316 316 315 315 315 315 316 316 316 316 317 317 318 318 318 319 319 319 319 318 318 317 318 319 320 321 322 322 321 320 319 319 318 319 319 319
312 312 311 311 312 313 312 312 312 312 312 313 315 315 314 314 315 315 316 317 317 318 319 319 319 318 318 319 319 320 321 320 320 320 319 319 318 319 319 319 319 319
310 311 309 308 308 308 308 308 309 309 310 311 313 314 314 314 314 314 315 316 316 316 317 318 318 318 318 319 320 320 320 319 318 317 317 317 317 318 318 319 319 319
308 309 308 307 306 306 306 306 307 308 308 309 311 313 313 313 313 314 314 314 315 315 316 316 317 317 317 318 318 318 318 317 316 315 314 314 315 315 317 317 317 317
307 307 306 305 305 304 305 305 305 305 306 306 307 310 312 312 312 313 313 313 314 314 314 315 316 315 316 316 316 316 315 314 313 313 313 313 313 314 315 315 315 314
306 306 305 305 304 304 305 304 304 304 304 304 304 306 308 310 311 312 312 311 312 312 313 314 314 314 315 315 315 315 314 313 313 313 313 313 313 313 313 313 313 312

ECMWFNIL_925_thetae_096.txt.gz
Theta_e
331 331 331 331 331 331 332 333 333 333 333 333 333 333 333 333 333 332 332 332 332 331 331 330 331 331 331 331 332 332 332 332 332 332 332 332 331 331 331 332 332 331
331 330 330 331 331 331 332 332 333 333 333 333 333 333 333 333 333 332 332 332 332 331 331 331 331 331 331 331 332 332 332 332 332 332 332 331 330 330 331 331 331 331
330 330 330 331 331 331 332 332 332 332 333 333 332 332 333 332 332 332 331 331 332 331 331 331 332 332 332 332 332 332 331 331 332 332 332 331 331 331 332 332 332 333
329 329 330 331 331 331 332 333 333 333 332 332 332 332 333 332 330 330 331 332 332 332 332 332 333 333 332 333 332 332 332 331 332 332 331 331 332 332 332 332 332 332
329 329 330 330 330 331 332 332 332 332 332 332 332 332 332 331 330 330 331 332 332 333 333 333 333 333 333 333 333 333 332 332 332 332 331 331 331 332 332 331 332 333
329 330 330 330 330 330 331 331 331 331 331 331 332 332 332 331 330 330 331 332 332 333 333 332 333 333 332 332 333 333 333 333 333 332 332 331 331 331 331 331 332 331
329 329 330 330 330 330 330 330 331 331 331 331 332 332 331 331 331 331 331 331 332 332 332 332 332 333 333 332 333 333 333 333 333 333 332 331 330 331 332 331 331 330
328 329 329 330 330 330 330 330 330 330 330 330 331 331 331 331 332 332 331 331 332 332 332 332 332 332 333 333 333 333 334 333 332 332 331 331 332 332 332 332 331 331
327 328 328 328 329 330 329 330 330 331 330 330 331 331 331 332 332 332 331 331 331 332 333 332 332 333 333 333 333 334 334 333 332 331 331 332 333 333 333 332 332 331
327 327 327 328 329 330 330 330 331 331 330 331 331 331 332 332 331 331 331 331 331 331 332 332 332 333 332 332 332 333 333 332 330 330 330 331 333 333 333 333 333 332
326 326 327 327 328 329 329 330 330 330 330 331 331 331 331 331 331 331 332 331 330 330 330 331 331 331 331 331 331 330 329 328 328 328 329 329 332 333 333 333 333 332
325 326 326 327 327 328 329 330 330 330 330 330 330 330 331 331 331 331 331 331 330 329 329 330 331 331 331 331 330 329 329 328 327 328 329 329 331 332 332 332 333 332
323 325 326 326 327 328 328 328 329 329 330 330 330 331 331 331 331 330 330 331 330 329 329 329 329 330 331 331 330 329 328 328 328 329 329 328 329 331 332 332 333 332
323 325 326 326 326 327 327 328 327 328 329 329 330 330 330 331 331 330 329 329 328 327 327 328 329 329 330 330 328 327 327 327 328 328 328 327 328 329 332 332 332 332
322 324 325 325 325 326 327 327 326 326 327 328 328 328 329 329 329 329 328 327 326 326 326 328 329 329 329 327 327 326 326 327 327 327 326 327 327 328 330 332 332 332
321 322 324 324 324 324 325 325 325 325 326 326 326 326 326 327 327 326 326 325 325 324 325 327 327 327 326 325 326 325 325 326 326 325 325 325 325 326 328 330 331 330
320 320 321 322 323 323 323 324 324 323 324 324 323 323 324 324 324 323 323 324 324 324 324 325 325 325 325 324 325 325 325 325 325 324 324 324 325 326 327 328 328 327
318 317 317 318 319 320 320 321 321 321 321 320 320 321 322 322 321 322 322 322 322 322 323 323 324 325 325 325 325 324 323 324 324 323 323 324 325 325 326 327 327 326
316 315 314 314 315 315 316 316 316 317 318 318 317 318 319 319 318 320 321 320 320 319 320 321 323 324 324 323 322 320 319 321 323 323 324 325 325 326 326 327 326 326
314 313 312 311 312 312 312 312 312 313 314 315 316 316 316 317 317 317 318 318 317 317 318 319 320 321 320 319 318 318 318 321 324 325 326 326 327 326 326 326 325 324
313 311 310 309 310 310 310 310 310 310 310 312 314 314 314 316 317 316 316 317 317 317 317 317 318 318 317 317 318 318 320 324 327 327 328 327 326 326 326 325 325 325
311 310 309 308 309 309 309 309 308 308 308 309 311 312 313 315 317 316 315 316 317 317 316 317 317 318 318 318 319 320 322 326 327 326 325 325 323 323 323 323 324 325
310 310 308 308 307 308 308 308 307 307 307 308 308 309 310 312 314 314 313 314 316 315 314 315 317 318 318 319 320 321 323 323 323 322 321 319 318 319 319 319 320 321
309 309 308 307 307 306 307 307 307 306 306 306 306 306 306 308 310 312 312 313 313 313 312 313 315 317 318 318 319 319 320 319 318 317 315 314 314 315 316 317 317 319
309 308 308 307 306 306 306 306 306 306 306 305 305 304 304 305 308 309 311 311 311 311 311 311 312 313 314 315 316 316 316 316 315 315 314 314 314 314 315 316 317 317
308 308 307 307 306 305 306 306 305 305 305 304 304 303 303 303 305 307 308 308 308 309 310 310 310 311 312 313 313 313 314 313 313 313 314 313 313 313 313 314 314 314

ECMWFNIL_925_thetae_099.txt.gz
Theta_e
333 334 333 333 333 333 333 334 334 334 335 334 333 333 335 336 336 337 336 336 335 334 334 334 333 333 333 333 333 333 333 332 333 333 333 333 333 333 333 333 334 332
333 332 332 332 332 332 333 333 333 333 334 332 329 331 334 335 336 336 335 335 335 335 334 334 333 332 332 332 332 332 333 333 333 333 333 333 333 333 332 333 333 331
332 331 331 332 332 333 333 333 333 333 333 332 331 330 332 334 336 336 335 335 334 334 334 334 333 333 332 331 331 332 331 332 332 332 333 333 333 333 333 333 333 331
332 332 331 331 332 332 333 333 333 334 333 332 332 332 331 333 335 335 335 335 334 334 334 333 333 332 332 331 332 332 331 332 332 332 333 333 333 333 333 332 332 332
331 332 331 331 331 331 332 333 333 334 334 331 331 332 331 332 334 334 334 334 334 333 333 333 333 331 331 332 332 331 332 332 332 333 334 333 333 333 332 332 332 332
330 331 331 331 331 331 332 333 333 333 333 331 330 331 331 332 333 333 333 334 334 333 333 333 333 332 332 332 331 331 332 332 333 333 333 333 333 332 331 332 332 332
329 330 331 331 331 332 332 332 331 331 331 330 330 331 331 333 333 332 333 334 334 333 333 333 333 333 332 332 332 332 332 332 333 333 332 332 333 333 333 332 333 334
328 329 330 330 330 331 331 331 330 330 329 329 330 331 332 332 332 332 333 333 334 334 334 334 333 333 332 332 332 332 332 332 331 331 332 332 332 333 334 333 334 333
327 328 329 329 330 330 331 330 330 330 330 330 330 330 332 332 331 332 332 333 334 334 334 333 333 333 333 332 332 332 332 331 330 331 332 332 332 333 333 333 333 333
326 327 329 329 329 330 331 330 330 330 330 330 330 330 332 332 332 332 332 333 334 333 333 333 332 332 332 332 332 331 331 330 329 331 331 331 332 333 331 331 332 332
325 327 328 329 328 330 330 330 329 330 329 329 330 330 331 331 331 332 332 333 333 333 333 333 331 331 331 331 332 331 330 330 329 329 330 331 332 331 330 329 330 330
324 326 328 328 328 328 329 329 329 329 329 329 330 330 329 330 330 330 331 333 333 332 332 333 332 331 331 331 331 330 330 330 329 328 329 331 331 330 329 329 329 331
324 326 327 327 327 327 327 328 328 328 329 329 329 329 329 329 329 329 330 332 332 331 331 332 332 331 331 330 330 329 329 329 328 328 328 329 330 329 329 329 329 330
323 324 325 326 326 326 327 327 328 327 328 328 328 328 328 329 329 329 329 330 329 329 330 330 330 330 330 329 328 328 328 327 327 327 327 328 329 329 328 329 329 329
322 322 322 322 324 324 324 325 325 326 326 327 327 326 327 328 328 328 327 327 328 327 327 328 328 328 328 328 327 327 326 326 326 326 327 328 330 330 331 331 330 329
320 319 319 319 320 320 321 321 322 323 324 324 324 325 325 326 327 327 326 326 327 326 327 327 327 326 327 327 326 325 325 326 326 326 327 328 329 330 331 331 330 330
318 317 316 316 317 317 317 317 318 319 319 320 321 321 323 324 324 325 325 325 325 325 325 325 324 325 326 326 325 324 325 325 325 326 327 328 327 328 330 331 330 330
316 315 315 315 315 315 315 315 315 315 315 315 316 317 319 321 322 322 322 323 322 322 322 322 322 322 324 325 325 324 325 324 324 325 325 325 325 326 328 329 329 329
315 314 314 314 314 313 313 313 313 312 312 312 313 314 316 317 318 319 320 319 319 318 319 319 319 320 321 323 324 323 323 323 323 324 323 323 324 324 326 328 328 328
314 314 313 313 313 313 313 313 312 311 311 310 311 312 312 313 314 315 316 317 316 316 316 317 317 318 318 319 320 319 319 321 323 324 324 325 326 326 326 327 328 328
314 313 313 313 313 313 312 312 311 310 309 309 309 309 310 310 311 312 313 315 315 315 316 316 316 317 318 318 318 319 321 323 325 325 324 324 325 325 325 326 327 327
313 313 312 312 312 312 312 311 310 309 308 308 308 308 308 308 309 309 310 312 314 315 315 316 317 318 319 319 320 322 323 323 322 322 321 321 321 322 323 324 325 325
313 313 312 312 312 311 311 310 309 308 308 307 307 307 307 307 307 307 308 310 313 313 313 315 316 317 318 320 321 322 322 321 319 318 318 318 318 318 320 322 323 323
312 312 312 311 311 311 310 310 309 307 307 306 306 305 305 305 305 305 307 309 311 311 311 312 314 314 315 317 319 319 319 318 317 316 316 316 316 316 317 318 319 320
310 311 311 311 310 310 309 308 308 307 306 306 305 305 305 304 304 304 305 307 308 309 310 311 312 312 313 314 315 316 316 316 315 315 315 315 315 315 315 315 316 317
309 309 310 310 309 308 307 306 306 305 305 305 305 305 304 304 303 303 303 304 305 306 308 309 309 310 311 312 313 313 313 313 313 313 313 313 313 313 313 313 313 314

ECMWFNIL_925_thetae_102.txt.gz
Theta_e
334 334 334 333 332 332 332 333 333 334 334 334 333 333 334 334 333 331 330 330 331 332 335 336 336 336 335 334 334 334 334 334 334 333 333 333 333 333 333 332 332 333
333 333 334 333 333 333 333 333 333 333 334 333 333 333 334 333 333 331 329 329 331 331 331 333 335 335 335 334 334 334 334 334 334 333 333 333 331 332 332 332 332 332
331 331 332 333 333 333 333 332 332 333 332 332 333 333 333 332 332 331 330 329 330 330 330 332 335 335 334 333 333 333 333 334 332 332 332 331 330 331 332 333 333 332
329 330 331 332 332 333 332 332 333 333 331 331 331 331 331 331 331 331 330 330 330 331 330 331 333 334 333 333 333 333 333 332 332 332 332 331 331 331 332 333 333 333
328 329 330 331 331 332 331 332 332 332 331 330 330 329 329 330 330 330 330 330 330 330 329 331 333 334 333 333 333 332 331 331 331 332 332 331 330 330 332 333 333 332
327 328 329 330 331 331 331 331 331 331 331 330 330 330 330 330 329 329 330 330 330 329 329 330 333 334 333 333 332 331 331 330 330 330 330 330 330 330 332 333 333 333
326 327 328 329 330 330 330 331 331 330 330 330 329 330 330 330 330 330 330 330 330 330 330 330 332 332 332 331 332 331 330 330 329 329 329 329 331 332 332 332 332 333
326 326 327 329 330 330 330 330 330 329 330 330 329 330 330 330 330 329 330 330 330 330 330 331 331 331 331 331 332 331 331 330 330 330 330 330 330 332 332 332 332 332
325 326 328 329 330 330 330 329 329 329 329 329 329 329 329 330 329 330 330 330 331 330 329 329 330 330 331 332 332 331 331 331 331 331 332 331 330 331 331 331 331 330
325 326 327 328 329 329 329 329 328 329 329 329 329 329 329 329 329 330 330 330 331 330 329 330 330 330 331 332 332 332 332 332 332 331 332 331 330 330 329 329 328 328
324 325 325 326 327 327 327 328 327 328 328 328 328 328 328 329 329 329 329 330 330 330 330 330 330 330 331 331 331 331 331 331 331 331 331 331 330 329 328 328 329 329
323 322 322 322 323 324 324 325 326 326 327 327 326 328 328 328 329 329 329 330 329 329 329 329 329 329 330 331 330 331 330 331 330 330 330 330 330 330 331 331 331 331
320 320 320 320 320 321 322 322 323 324 325 325 325 326 327 327 328 327 327 327 328 327 328 328 328 328 329 330 330 330 329 330 329 328 329 329 329 330 330 331 330 330
319 318 318 319 319 319 319 319 320 320 321 322 323 325 326 326 326 326 326 326 326 326 326 326 326 327 328 328 329 328 328 328 327 327 327 327 327 329 330 330 329 328
317 317 317 317 317 317 317 316 316 316 317 318 320 322 323 324 325 325 325 325 324 325 324 323 324 325 326 326 326 326 325 326 326 326 327 326 327 328 329 329 328 327
316 316 316 316 316 316 315 314 314 314 314 315 316 318 319 321 322 322 321 320 321 322 322 322 322 322 323 324 325 324 324 325 325 325 326 327 327 328 328 327 327 328
316 315 315 315 315 315 314 313 312 312 312 313 314 315 316 318 319 319 317 317 318 318 319 320 321 321 322 323 324 324 324 324 324 325 326 326 326 326 326 327 328 328
315 315 315 315 314 314 313 312 311 311 311 311 311 312 312 313 314 314 314 315 316 316 317 318 320 320 321 321 322 322 323 324 324 324 324 324 324 325 325 326 326 326
315 315 315 314 314 313 312 311 310 309 309 309 309 310 310 310 310 310 311 312 314 315 316 318 319 320 321 321 322 322 323 324 324 323 324 324 324 324 324 325 325 325
314 314 314 314 313 312 312 310 310 309 308 308 308 308 308 308 308 308 309 310 311 312 315 317 318 320 321 322 323 323 323 324 324 324 323 322 322 322 322 323 324 323
313 313 313 313 312 311 311 310 309 308 307 307 306 306 306 306 306 306 307 309 309 311 313 315 317 318 320 321 322 322 322 322 323 323 323 321 321 321 321 322 322 323
313 313 312 312 312 310 310 309 308 308 308 307 306 306 305 305 304 305 306 308 309 309 310 312 314 316 318 319 319 319 320 321 322 322 322 321 320 320 320 320 320 321
312 312 311 311 310 309 308 308 307 307 308 307 306 306 305 304 304 303 304 306 308 308 308 309 311 314 316 317 317 317 317 318 319 319 319 318 318 318 318 317 316 317
311 310 310 309 308 307 307 307 307 307 307 306 306 305 304 304 303 302 302 303 304 305 307 308 309 311 313 314 314 315 315 314 315 316 316 315 315 316 317 315 314 315
308 308 308 307 306 305 305 306 306 306 306 306 306 305 304 303 302 302 301 301 301 302 304 306 307 308 310 312 312 313 314 313 313 313 313 312 311 312 314 314 314 313
307 306 305 305 304 303 303 303 303 304 304 304 304 304 304 302 301 301 300 300 300 300 301 302 303 305 307 310 311 311 312 312 311 310 309 309 309 308 309 310 311 311

ECMWFNIL_925_thetae_105.txt.gz
Theta_e
328 329 329 330 331 331 331 332 331 331 332 331 330 330 329 329 329 330 330 331 331 331 329 328 329 330 330 329 329 329 330 333 334 332 332 331 329 331 333 332 332 331
326 328 328 329 330 330 331 332 331 331 331 330 330 329 329 329 329 329 329 330 330 329 329 328 328 330 330 329 330 329 330 333 334 333 333 332 330 331 332 331 331 331
326 327 328 328 329 330 331 331 331 330 330 330 329 329 329 330 330 330 329 329 329 328 328 329 329 330 330 330 329 330 330 332 334 333 334 333 332 330 329 329 330 331
325 326 327 328 329 330 330 330 330 329 329 329 329 329 329 329 330 330 329 329 329 329 329 329 330 330 330 330 330 330 330 331 332 332 332 332 331 330 328 328 329 330
325 326 327 328 329 330 330 329 329 329 329 329 329 329 329 329 330 330 329 329 329 329 329 329 330 330 330 330 330 331 331 331 331 331 331 330 329 329 328 328 329 329
325 327 328 328 329 329 329 329 328 329 329 328 329 329 329 329 329 329 330 329 329 329 330 330 330 330 329 330 331 331 331 331 330 330 329 329 329 329 328 328 329 329
325 326 327 327 328 328 328 328 328 328 328 328 328 328 329 329 329 329 329 329 329 329 329 330 330 330 329 329 330 330 329 329 329 329 328 328 328 328 328 329 330 330
323 323 324 325 325 325 326 326 327 327 326 327 328 328 328 329 329 329 329 330 330 329 328 329 329 330 330 330 330 330 328 328 328 327 327 328 328 328 328 329 330 331
321 321 322 322 322 323 323 324 325 325 325 326 327 328 328 328 328 329 329 329 330 329 329 328 329 329 330 330 330 329 328 328 327 328 328 328 328 329 329 330 331 330
319 319 320 320 319 320 321 321 322 323 323 324 326 326 326 327 327 328 328 328 329 329 328 328 328 329 329 330 330 329 328 328 329 329 329 328 327 329 329 330 330 329
318 318 318 318 317 317 318 318 319 321 321 322 323 324 325 326 326 326 326 326 326 326 326 327 328 329 329 330 329 328 328 328 328 328 328 327 327 328 328 327 328 329
317 317 317 317 316 315 315 316 317 319 320 320 320 321 323 324 324 324 323 323 323 324 324 325 327 328 328 329 328 328 328 328 328 328 328 327 327 327 327 327 327 327
316 316 316 315 315 314 314 314 315 316 318 319 319 319 319 320 320 320 321 321 321 322 322 323 325 327 327 326 326 326 327 326 326 326 327 327 327 327 328 328 327 327
315 315 314 314 313 313 312 312 313 314 315 316 317 317 316 315 316 317 318 319 320 320 321 321 323 324 325 324 324 325 325 325 325 325 327 328 328 328 328 327 327 327
315 314 314 313 312 312 311 311 312 312 312 313 314 314 313 313 313 315 316 318 319 320 321 321 322 322 323 323 324 325 324 324 325 325 326 328 328 327 327 327 326 327
314 314 313 312 311 310 310 310 310 310 310 310 311 312 312 312 312 313 314 315 317 319 320 321 322 323 323 323 323 324 324 324 324 324 325 326 326 326 326 326 325 326
313 313 312 312 311 310 309 309 309 309 308 308 309 309 310 310 311 311 311 312 315 317 318 320 321 322 323 323 323 323 323 323 323 323 324 324 325 325 325 324 324 325
313 312 311 311 310 309 308 308 307 307 307 307 307 307 307 308 308 308 309 310 313 316 317 317 318 320 322 323 323 323 323 323 323 323 324 324 324 324 324 323 323 323
312 311 310 310 309 309 308 307 307 306 306 305 305 305 305 305 305 306 308 309 312 313 314 316 317 318 320 321 322 322 322 323 323 323 323 323 323 322 322 321 321 321
311 310 309 309 308 308 308 307 306 306 305 305 304 304 304 304 304 305 306 308 309 310 311 313 314 316 317 319 320 320 320 321 321 321 321 321 321 321 320 321 320 320
309 308 308 308 308 307 307 307 306 305 304 304 303 303 302 302 302 303 304 305 306 307 309 310 312 313 315 317 317 316 316 317 318 318 319 318 318 318 319 319 319 320
306 306 306 306 306 306 306 306 305 305 303 303 302 302 301 301 302 302 302 303 304 306 307 308 310 312 313 314 315 314 312 312 312 313 314 314 314 314 316 316 316 317
304 304 304 304 305 305 305 305 304 304 303 302 301 301 301 300 300 301 301 301 302 303 304 305 307 310 312 313 313 313 312 310 309 308 308 309 309 310 311 313 314 315
303 302 302 302 303 303 303 303 303 302 301 300 300 300 300 300 300 300 300 301 301 302 302 303 304 306 309 310 311 312 311 310 309 308 307 307 307 307 307 309 311 313
303 303 303 302 302 302 302 302 302 301 301 300 300 299 299 299 299 300 300 300 300 301 302 302 302 303 305 307 308 310 310 309 309 308 306 305 306 305 305 306 307 308
302 302 302 302 302 302 302 302 302 301 301 301 301 301 300 299 298 299 299 299 299 300 301 301 302 302 303 304 305 306 307 307 307 305 304 303 304 304 304 304 304 305

ECMWFNIL_925_thetae_108.txt.gz
Theta_e
326 327 327 328 329 330 330 330 330 329 329 329 329 328 329 329 329 329 329 329 329 329 329 329 329 328 327 327 328 328 329 329 329 329 329 329 329 329 330 330 330 331
325 326 327 328 329 329 329 329 329 328 329 328 328 328 329 329 329 329 329 329 329 328 328 328 328 328 327 328 328 329 328 328 328 329 329 329 329 329 330 330 330 329
326 327 328 329 329 329 328 328 328 328 328 328 328 328 328 329 329 329 329 329 328 328 328 329 329 328 328 329 329 329 328 328 328 328 329 330 330 330 330 330 330 329
327 328 328 328 328 328 328 328 327 327 327 327 327 328 328 328 329 329 329 329 329 329 329 329 329 329 329 329 329 328 328 328 329 329 329 330 330 330 330 330 329 329
326 327 327 326 326 326 326 326 326 326 326 326 327 327 327 328 328 329 329 329 329 329 328 328 329 329 329 329 329 329 328 328 329 329 329 329 330 330 330 329 329 329
324 324 324 324 324 324 324 324 324 325 325 325 326 327 327 327 327 328 328 328 328 328 328 328 328 329 329 328 329 329 328 328 329 329 328 328 329 329 329 329 328 328
321 321 321 321 322 322 322 323 323 324 324 325 326 326 326 326 326 326 326 327 327 327 328 327 327 328 328 328 328 328 328 328 328 328 327 327 328 328 328 329 328 328
319 319 318 318 319 320 320 321 322 323 324 324 324 325 325 324 324 324 325 325 326 326 327 328 328 327 327 327 327 327 327 327 327 327 327 327 327 327 328 328 328 329
317 317 317 317 317 317 318 320 321 322 322 322 321 323 323 323 323 323 323 324 325 326 327 327 328 327 327 327 327 327 327 327 327 328 328 328 327 326 327 328 328 328
316 315 315 316 315 316 316 318 320 320 321 320 319 320 321 321 322 322 322 323 323 324 325 326 326 326 326 326 327 327 327 327 328 327 327 327 327 327 327 327 328 328
314 314 314 314 314 314 314 316 318 318 318 318 317 317 318 320 320 320 321 321 321 322 323 324 323 324 324 325 326 326 326 326 327 327 327 326 326 326 327 327 327 327
314 313 313 312 312 313 313 314 315 316 316 316 315 316 317 317 318 319 319 319 319 320 322 323 323 323 324 325 325 325 325 325 326 327 327 327 326 326 327 326 326 326
313 312 311 311 311 311 312 312 312 313 314 314 314 316 316 316 316 317 318 318 319 320 321 322 323 324 324 324 325 325 325 326 327 327 328 327 327 326 326 326 326 326
312 311 310 310 310 310 311 311 311 311 312 312 314 314 314 314 315 316 317 318 319 319 320 321 322 323 323 323 324 324 324 325 326 327 327 327 326 326 325 326 325 326
311 310 309 309 309 309 309 309 309 309 309 311 312 312 312 313 313 315 317 318 318 319 319 321 321 320 321 322 323 323 323 324 325 326 326 325 325 324 324 324 324 324
309 309 308 308 308 307 307 307 307 307 308 308 309 309 310 312 313 314 315 316 317 318 318 319 319 318 319 321 322 323 323 324 324 324 324 323 322 322 321 322 322 322
309 308 308 307 307 306 306 305 305 306 306 307 307 308 308 310 311 312 312 313 315 316 317 317 316 316 317 319 321 322 322 322 322 322 321 321 320 319 319 320 320 321
308 308 307 307 306 305 305 304 304 305 305 305 306 306 306 308 309 309 309 311 313 314 314 315 315 314 315 317 318 319 319 319 319 318 318 318 318 318 319 319 318 319
308 307 307 306 305 304 304 304 304 304 304 304 304 305 306 307 307 307 307 309 310 311 312 313 313 313 314 315 315 315 315 315 314 313 314 314 314 314 316 317 317 318
307 306 306 305 305 304 304 304 304 303 303 303 303 305 306 306 306 306 306 306 307 308 309 311 311 312 313 314 313 313 313 312 310 309 310 310 310 311 313 315 316 317
306 306 305 305 304 303 303 303 303 302 302 302 302 303 304 303 304 304 304 304 306 307 308 309 310 311 312 313 312 312 312 311 311 310 310 310 310 310 311 312 314 316
305 304 304 303 302 301 301 301 301 301 301 301 302 302 302 302 302 302 303 303 304 306 307 308 309 310 311 311 311 311 311 311 310 310 310 309 309 308 308 309 311 314
303 302 301 301 300 300 300 299 299 299 300 300 301 300 300 300 300 301 301 302 303 304 305 305 306 307 309 309 309 309 309 309 309 308 308 307 307 307 307 306 308 310
302 301 301 301 301 301 300 300 299 299 299 299 299 299 299 299 299 300 300 301 301 302 302 303 303 304 306 307 307 307 307 307 307 307 306 305 305 306 306 305 306 307
302 302 302 301 301 301 301 301 300 299 299 298 299 298 298 299 299 299 300 300 301 301 301 302 302 302 303 304 304 305 305 304 305 305 304 303 303 304 304 304 304 305
301 301 301 301 301 301 301 301 301 300 299 298 298 298 298 299 299 299 299 300 300 301 301 301 301 301 301 302 302 303 303 302 302 302 301 301 301 301 302 302 302 303

ECMWFNIL_925_thetae_111.txt.gz
Theta_e
326 327 328 328 329 329 328 328 327 328 327 326 326 325 325 326 327 327 328 328 328 327 328 328 328 328 328 328 328 328 328 328 328 327 327 328 329 329 329 329 329 329
326 327 328 328 328 328 327 327 326 326 325 325 325 324 325 326 325 326 327 327 327 327 328 328 328 329 329 329 328 328 329 329 329 329 328 329 328 328 329 329 329 329
327 327 327 326 327 326 326 325 324 324 325 325 326 325 325 325 325 325 326 326 326 326 326 327 327 328 329 328 329 329 329 329 329 328 328 328 328 328 328 328 329 329
326 326 326 325 325 325 325 325 324 323 324 325 326 325 325 325 325 325 325 325 325 325 326 327 327 328 328 328 328 328 328 328 328 328 327 327 328 328 328 329 329 329
324 324 324 324 324 324 324 324 323 322 324 325 325 324 324 324 324 324 324 324 325 326 327 327 328 327 327 328 328 327 327 327 327 327 327 327 327 327 328 328 328 329
321 321 322 322 322 323 323 322 322 322 322 324 324 324 323 323 323 324 324 324 326 326 327 327 327 327 326 327 327 327 327 327 327 327 327 327 327 327 328 328 328 329
319 319 319 319 320 321 321 321 321 321 322 323 323 323 322 321 322 323 323 324 325 326 325 325 325 326 327 327 327 327 327 327 327 327 327 327 327 327 328 328 328 328
317 317 317 317 318 319 319 320 320 320 321 322 322 321 322 321 321 322 322 322 323 324 323 323 324 325 326 326 326 326 327 327 327 326 326 327 327 327 327 327 327 328
316 316 316 317 317 318 318 318 318 318 320 320 320 320 321 320 320 320 320 321 321 322 323 323 323 324 325 325 325 325 326 326 327 326 326 326 326 326 326 326 327 327
315 315 315 316 316 316 316 316 316 317 318 319 319 319 319 319 319 319 319 319 320 321 322 323 323 324 324 325 325 326 326 326 327 327 326 326 326 326 326 326 326 326
314 314 314 314 315 315 314 315 315 316 317 317 317 317 317 318 318 317 317 318 319 319 320 321 322 323 323 324 326 326 326 326 327 327 326 326 326 326 325 325 325 325
312 312 312 312 313 313 313 313 313 314 315 315 315 316 316 317 317 315 315 316 317 318 319 319 320 322 323 323 325 325 325 325 324 324 324 324 324 324 324 325 325 325
310 310 310 310 311 311 311 311 311 312 313 313 314 314 315 315 315 314 314 315 316 317 318 318 319 321 322 323 323 323 323 323 323 322 322 321 321 321 322 323 323 323
309 309 309 309 309 310 310 310 310 311 312 313 313 313 313 313 313 313 313 313 314 315 316 317 318 319 321 322 322 321 321 321 321 321 321 320 319 319 319 320 320 320
308 308 308 308 308 308 308 309 309 310 311 312 313 312 312 311 310 311 312 312 312 313 315 317 317 316 316 319 320 319 319 319 319 319 319 319 317 317 317 318 318 318
308 308 308 307 307 307 307 308 308 310 311 311 311 311 311 311 310 311 311 311 311 312 313 315 315 314 314 316 317 317 316 316 315 315 315 315 314 315 316 317 317 317
307 307 307 306 306 306 306 307 308 309 309 309 309 309 310 310 311 311 310 309 310 310 311 313 312 312 313 315 315 315 314 314 314 313 313 312 312 313 314 316 317 316
305 305 305 305 305 305 305 306 307 308 308 308 308 308 309 310 310 310 309 309 309 309 310 310 310 311 313 313 313 313 313 313 313 313 312 310 310 311 312 314 315 315
305 304 303 303 304 304 304 305 306 306 306 306 306 306 308 308 308 308 308 308 308 308 308 308 309 310 312 312 312 312 312 312 311 311 310 308 308 310 310 312 313 313
304 303 302 302 302 302 303 304 304 304 303 304 304 305 306 306 306 306 306 306 305 305 305 305 306 308 309 310 311 311 311 310 309 309 309 308 308 309 310 310 311 311
303 302 302 301 301 302 302 302 302 302 302 302 302 303 303 303 303 303 303 303 303 303 303 303 304 305 307 308 308 308 307 307 306 307 307 307 307 307 308 309 309 310
302 301 301 301 301 301 301 301 301 300 300 301 301 302 302 302 302 302 302 302 302 302 303 302 302 304 305 305 305 305 304 303 303 303 303 303 303 304 305 306 307 308
300 300 300 300 300 300 300 300 300 300 300 301 301 301 301 301 301 301 301 301 301 302 302 301 301 302 303 304 304 303 303 302 301 301 301 301 301 301 302 303 304 304
300 300 299 299 299 299 299 299 299 299 300 300 301 300 300 300 300 300 301 301 301 301 301 301 301 301 301 302 302 302 302 301 301 301 300 300 300 300 300 300 301 302
301 300 300 299 299 299 298 299 299 299 299 300 300 300 300 300 300 300 300 300 300 300 300 300 300 300 300 300 301 301 301 301 300 300 300 300 300 300 300 300 300 300
301 301 300 299 299 298 298 298 298 298 299 299 299 299 299 299 300 300 300 300 300 300 300 300 299 299 300 300 300 300 300 300 300 300 300 300 300 300 300 300 300 300

ECMWFNIL_925_thetae_114.txt.gz
Theta_e
325 326 327 327 327 326 325 325 324 324 324 324 325 325 323 322 323 323 323 323 323 324 325 325 326 326 326 327 327 328 328 328 328 328 327 328 328 328 328 328 329 329
325 326 326 326 326 325 325 324 323 323 323 324 324 323 323 322 322 323 323 323 324 324 325 325 325 326 326 326 327 327 327 327 327 327 327 327 327 327 328 328 328 328
325 324 325 325 325 325 324 324 322 321 323 324 323 322 322 321 322 323 323 324 324 324 325 325 326 326 325 326 326 326 327 326 327 327 327 327 327 327 327 327 328 328
324 324 324 324 324 324 323 322 321 320 321 322 323 322 321 321 322 323 323 324 324 324 324 325 326 326 326 326 326 326 327 326 326 326 326 327 327 326 326 326 327 327
323 323 323 322 322 322 322 321 320 319 320 322 322 321 321 321 322 323 323 323 323 323 324 324 325 326 325 325 325 325 326 326 326 326 326 326 326 325 326 326 326 327
321 321 321 320 320 320 320 319 319 320 321 320 320 320 321 321 322 322 322 322 322 323 323 324 324 325 325 324 323 324 326 327 326 326 325 326 326 325 325 326 326 326
319 319 319 319 319 319 319 318 319 320 320 319 319 320 320 320 320 320 321 322 322 322 322 322 323 324 324 324 323 324 326 327 326 325 325 325 325 325 325 325 325 326
318 318 317 317 317 318 317 317 319 319 319 319 319 319 318 318 317 318 319 320 320 320 321 321 323 323 323 323 324 325 325 325 325 324 324 324 324 324 324 324 325 324
316 316 316 316 316 316 316 317 317 317 318 318 318 317 318 316 315 315 317 319 318 318 319 320 321 322 323 323 323 324 323 323 324 323 323 323 322 321 321 321 321 321
315 315 316 315 314 314 314 315 316 316 316 316 315 316 316 315 314 315 316 317 316 316 317 319 320 320 321 321 321 322 323 323 322 321 320 320 319 319 319 319 319 318
314 314 314 313 312 312 312 313 315 315 314 314 314 314 314 314 314 314 315 315 314 315 316 317 318 318 318 318 319 320 321 321 320 317 316 316 316 316 317 317 317 317
311 311 311 311 311 311 312 313 313 313 313 313 313 313 313 313 313 313 313 313 314 315 316 316 317 317 317 317 316 317 317 317 317 315 313 314 314 315 315 315 316 317
309 309 309 310 310 311 312 312 313 312 312 311 311 311 311 312 312 312 313 313 314 315 316 316 316 317 316 316 315 315 315 314 314 314 313 314 314 314 315 314 313 315
308 308 308 309 309 310 312 312 312 311 310 310 310 310 311 312 312 312 313 313 314 314 315 315 315 315 315 315 314 314 314 312 310 311 313 313 312 313 314 313 312 313
307 308 308 309 310 311 311 311 311 310 310 309 310 311 312 312 312 312 313 313 313 313 313 314 314 313 312 313 312 312 312 310 309 310 311 311 310 310 311 312 313 313
307 307 308 309 310 310 310 309 309 309 309 310 310 310 311 311 311 311 311 310 311 311 311 311 310 309 309 311 311 310 310 309 309 310 311 310 309 309 309 311 312 312
307 307 307 308 308 308 308 308 308 308 308 308 308 309 308 308 309 308 308 308 308 308 308 307 306 306 307 309 309 309 308 306 307 308 309 309 308 307 308 310 310 311
305 306 306 306 306 307 307 307 307 307 307 307 306 306 306 306 307 307 306 306 306 306 305 305 304 305 306 307 308 308 307 305 304 304 304 305 305 305 306 308 308 309
304 305 305 305 305 306 306 306 307 306 306 305 305 304 305 305 305 305 304 304 304 304 304 303 303 304 305 306 306 306 306 305 303 302 302 302 302 302 303 303 305 307
303 303 303 303 304 304 305 305 305 304 304 303 303 304 304 303 303 303 302 302 302 302 302 302 302 302 303 304 303 303 303 303 302 301 300 300 300 301 302 302 302 303
302 302 302 302 302 303 304 304 303 303 302 302 302 302 302 301 301 301 301 301 301 301 301 301 301 301 302 302 302 301 301 301 300 300 300 299 299 299 300 300 301 301
301 301 301 301 302 303 303 302 302 301 301 301 301 301 301 300 300 300 300 300 300 300 300 300 300 301 301 301 301 301 301 300 300 300 299 299 299 299 299 299 299 300
301 302 301 302 302 303 302 301 301 300 300 300 300 300 300 300 300 299 299 299 299 300 300 300 300 300 300 300 301 300 300 300 300 300 300 299 299 299 299 298 298 298
301 302 302 302 302 302 301 300 300 300 300 300 300 300 299 299 299 299 299 299 299 299 299 299 299 299 300 300 300 300 300 300 300 300 300 299 299 299 299 298 298 298
301 302 302 302 301 300 300 300 300 300 299 299 299 299 299 299 299 299 299 299 299 299 299 300 300 300 300 300 300 300 300 300 300 300 299 299 299 299 299 298 298 298
300 301 301 300 300 299 299 299 299 299 299 299 299 299 299 299 299 300 300 300 299 299 299 300 300 300 300 300 300 299 299 299 299 299 299 299 299 299 299 298 298 298

ECMWFNIL_925_thetae_117.txt.gz
Theta_e
327 326 325 324 324 324 324 323 322 322 322 322 322 322 321 321 321 322 322 322 322 323 324 324 324 324 324 325 326 326 326 326 327 327 327 326 326 327 327 327 327 327
325 324 324 324 323 323 323 322 321 320 321 321 321 321 321 321 322 322 322 322 322 323 324 324 324 323 324 324 325 326 325 325 326 326 326 326 325 326 326 326 326 326
323 323 323 323 322 321 321 320 319 319 320 321 321 320 320 321 321 322 322 322 322 323 323 324 323 323 323 323 324 325 325 325 325 326 326 326 325 326 326 326 326 326
322 322 321 321 321 320 319 319 318 319 320 320 320 320 321 321 321 321 322 322 321 321 322 322 322 322 322 323 324 325 325 325 325 326 326 325 325 325 326 326 326 325
321 320 320 320 320 319 318 318 318 319 319 319 319 319 320 319 318 320 321 319 318 318 320 321 321 322 322 323 324 324 324 324 324 325 325 325 325 325 325 325 325 325
319 319 319 319 319 318 318 318 319 319 319 318 318 317 316 315 315 316 317 316 315 317 318 319 320 322 322 321 322 323 323 323 323 323 323 322 322 322 323 323 323 322
318 317 317 317 318 318 318 318 318 319 318 317 317 316 314 313 314 314 314 314 315 316 317 318 319 320 320 319 320 321 320 320 320 319 319 319 320 320 320 320 321 320
316 316 316 316 317 318 318 318 318 318 316 316 316 315 313 314 314 314 313 314 316 316 317 317 317 318 319 319 319 319 318 317 316 316 317 317 317 318 318 318 319 319
316 315 315 315 316 317 318 317 317 316 315 314 314 313 313 313 314 314 313 313 315 316 315 314 315 316 317 317 317 317 316 315 314 314 315 314 315 315 316 316 317 317
315 315 314 315 315 316 316 315 314 314 313 313 313 312 312 312 312 312 312 311 312 313 312 312 313 313 314 314 314 314 313 313 313 313 313 313 313 313 314 314 315 315
314 314 313 314 315 314 313 313 313 313 312 312 311 311 311 310 310 311 310 310 310 310 311 311 311 311 312 312 311 312 312 312 312 312 313 313 313 313 313 313 313 313
313 312 313 313 313 312 312 312 312 311 310 310 310 309 309 309 309 309 309 308 308 308 309 309 309 309 310 310 311 311 312 312 312 312 313 312 312 312 312 312 313 313
311 310 311 311 310 311 310 310 310 310 309 309 309 308 308 308 308 308 307 307 306 306 306 307 307 308 308 309 310 311 310 310 310 311 311 311 310 310 311 312 313 312
309 309 308 309 309 309 308 308 309 308 308 308 307 307 307 306 306 306 305 305 305 305 305 305 306 307 307 309 310 310 309 308 308 309 309 309 309 309 310 311 312 312
307 307 307 307 307 307 306 306 306 306 306 306 305 305 305 304 305 305 305 304 305 305 305 305 306 306 307 309 310 309 309 308 308 308 308 308 308 308 309 309 311 311
306 305 305 306 305 305 305 305 304 305 305 304 304 304 304 304 305 306 306 305 305 306 306 305 304 304 306 308 309 308 307 306 305 305 305 305 305 306 306 307 308 309
304 304 304 305 304 304 304 304 304 304 304 303 303 303 303 304 305 305 306 305 305 304 304 303 302 302 304 306 306 306 304 303 303 303 303 303 303 303 304 304 305 306
305 303 302 303 303 303 303 303 303 303 302 302 302 302 302 303 303 303 303 303 303 303 302 301 301 302 303 304 304 303 302 302 301 302 302 302 302 302 302 302 303 304
305 304 303 302 302 301 301 301 301 302 302 301 301 301 302 302 302 302 302 301 302 301 301 300 300 301 302 302 302 301 301 301 300 301 301 301 301 301 301 301 301 302
303 304 304 304 303 303 302 301 302 302 301 301 301 301 301 301 301 301 301 301 301 301 300 300 300 301 301 301 301 300 300 300 300 300 300 300 300 300 300 300 300 301
303 303 303 303 303 303 303 302 302 301 301 301 301 300 300 300 300 300 300 300 300 300 300 300 300 300 300 300 300 300 300 300 300 300 300 300 300 299 299 298 298 299
302 303 302 302 302 302 302 301 301 300 300 300 300 300 299 299 299 299 299 300 300 300 300 300 300 300 300 300 300 299 300 300 301 300 300 300 300 299 299 298 297 298
302 302 301 301 301 301 300 300 299 299 299 299 299 299 299 299 299 300 300 300 300 299 299 299 299 299 299 299 299 299 300 301 300 300 300 300 299 299 299 298 297 297
302 302 301 300 300 300 299 299 299 299 299 299 299 299 299 299 299 299 300 300 299 298 298 298 298 298 298 298 298 298 299 300 300 300 300 300 299 299 299 298 297 297
302 301 301 300 300 299 299 299 299 299 299 299 299 298 298 298 299 299 299 299 298 298 298 298 298 298 297 297 297 297 298 299 300 299 299 299 299 299 298 298 297 297
302 301 301 300 299 299 298 299 299 299 299 298 298 298 298 298 298 298 298 298 298 298 297 297 297 297 297 297 297 297 297 298 298 299 299 299 298 298 298 298 297 297

ECMWFNIL_925_thetae_120.txt.gz
Theta_e
329 328 328 327 326 325 325 324 324 324 324 323 324 324 324 324 323 323 323 323 323 323 323 323 323 324 325 325 326 327 328 328 328 328 328 328 329 329 330 330 330 330
327 327 326 326 324 323 323 323 323 323 323 322 322 322 323 323 322 322 321 321 322 322 321 322 322 323 324 325 326 327 327 327 327 327 327 327 327 328 329 328 328 329
325 325 324 323 323 323 322 322 322 322 321 321 321 321 321 321 321 320 320 320 320 320 320 321 321 322 323 324 325 326 327 326 326 325 326 326 325 326 326 326 326 326
323 323 322 322 322 322 321 321 321 320 320 320 320 320 320 320 319 319 319 319 319 319 320 320 321 321 322 323 324 325 325 324 323 323 324 324 323 323 323 323 323 323
322 321 321 321 321 321 320 320 320 319 319 320 319 319 319 319 318 318 319 319 319 319 319 320 320 320 321 322 322 322 322 321 321 321 322 322 322 321 321 321 321 321
320 320 320 320 320 320 319 319 318 318 318 318 317 317 318 318 318 318 318 318 318 318 319 319 320 319 320 320 320 320 320 319 319 319 320 320 320 320 320 319 320 319
319 319 319 319 319 319 318 318 317 317 317 317 316 316 316 317 317 317 318 318 318 318 319 319 319 318 318 318 318 318 318 318 318 318 318 319 318 318 318 318 318 318
318 318 318 318 318 318 317 316 316 316 316 316 316 315 315 316 316 317 317 317 318 317 318 318 318 317 317 317 317 317 317 317 317 318 318 317 317 317 317 317 317 317
317 317 317 317 317 317 316 316 315 315 315 315 315 315 315 315 315 316 316 317 317 316 316 316 317 316 316 316 316 316 317 317 317 317 316 316 316 316 316 316 316 316
316 316 316 316 316 315 315 315 314 315 315 314 314 314 314 314 315 315 315 315 315 315 315 315 315 315 315 315 315 315 316 316 316 316 315 315 316 315 315 315 315 315
315 315 315 315 314 314 314 314 314 314 314 313 313 313 314 314 314 314 315 315 314 315 314 313 314 315 315 315 315 315 315 315 315 315 315 315 315 315 315 314 314 313
314 314 314 314 313 313 313 313 313 313 312 312 312 313 313 313 313 313 314 314 313 313 313 313 313 314 313 314 314 314 314 314 314 314 314 314 314 315 314 314 313 312
313 313 313 313 312 312 312 312 312 312 311 311 311 312 313 313 313 312 312 312 312 311 311 311 311 311 311 312 313 313 313 313 313 313 313 313 313 313 313 313 313 311
312 312 312 312 312 311 311 311 311 311 310 310 311 311 312 312 312 312 311 311 310 309 309 309 309 309 310 310 312 312 312 312 311 312 312 312 312 311 312 312 312 311
312 312 312 312 311 311 311 310 310 310 310 311 311 311 311 311 311 311 311 310 309 308 307 306 306 307 307 308 309 311 311 310 310 310 310 310 310 310 310 310 311 310
312 312 312 311 311 311 311 310 310 310 310 311 311 310 310 310 310 310 309 309 308 307 305 304 303 304 305 306 307 308 309 309 308 308 308 308 308 309 309 309 309 309
313 312 312 311 311 311 310 311 311 311 310 310 310 309 309 309 309 309 308 308 307 306 304 303 302 302 303 304 305 306 307 307 307 307 306 306 306 307 307 307 307 307
312 312 312 311 311 311 311 311 311 310 309 309 309 309 308 308 308 308 307 307 306 305 304 302 301 301 302 302 303 304 305 306 306 305 305 305 305 305 305 306 305 305
312 312 311 311 311 311 311 310 309 308 308 308 308 308 308 308 307 307 306 306 305 304 304 302 301 300 301 301 302 303 304 305 305 305 304 303 303 304 304 304 304 304
311 312 311 311 311 310 309 308 308 308 308 307 307 307 307 307 307 306 305 305 304 304 303 301 300 300 301 301 302 303 304 305 305 304 304 303 302 302 303 303 303 303
311 311 311 311 310 309 308 308 307 307 307 306 306 306 306 306 306 305 305 304 303 303 302 300 299 299 300 301 302 303 303 304 305 304 304 303 301 301 301 302 302 302
310 310 309 309 308 308 307 307 306 306 306 305 305 305 305 305 305 305 304 304 303 302 301 300 299 298 300 301 302 303 304 304 304 304 303 303 302 300 300 299 300 301
309 309 308 308 308 307 307 306 306 305 305 305 304 304 304 304 304 303 303 303 303 302 301 300 298 297 298 301 302 302 303 304 303 303 303 303 302 301 300 298 298 298
308 308 307 307 307 306 306 305 305 305 304 304 304 304 303 303 303 302 302 302 302 301 300 299 297 296 297 299 301 302 303 303 303 303 303 302 302 301 300 299 298 297
307 307 307 306 305 305 305 305 304 304 304 303 303 303 303 302 302 302 301 301 301 300 300 299 298 295 295 297 299 301 302 302 302 302 302 301 301 301 300 300 298 297
306 306 305 305 305 304 304 304 304 303 303 303 302 302 302 302 302 302 301 301 300 300 299 299 298 296 294 294 296 299 301 302 302 302 301 301 301 301 300 299 299 298

ECMWFNIL_925_thetae_123.txt.gz
Theta_e
332 331 330 329 328 328 327 327 328 327 326 326 326 326 326 325 325 324 324 325 324 324 324 324 324 325 326 326 328 329 328 328 327 327 328 327 327 327 327 326 326 326
330 330 329 327 327 326 326 326 326 325 324 325 325 325 324 324 323 323 323 323 323 323 323 323 324 324 325 326 327 327 326 325 325 325 326 325 324 324 325 325 325 324
328 328 327 326 326 326 325 325 324 324 324 324 323 323 323 323 323 323 323 323 323 322 322 323 323 323 324 325 325 324 324 324 324 324 325 324 323 323 323 323 323 322
326 326 325 325 325 325 324 323 323 323 323 323 322 322 322 322 322 322 322 322 322 322 322 322 322 322 323 323 323 323 322 322 322 322 323 323 322 322 322 321 321 321
325 324 324 324 324 323 323 322 322 322 322 321 321 321 321 321 322 322 322 322 321 322 322 322 322 321 321 321 321 321 321 321 321 321 321 321 320 320 320 320 320 320
323 323 323 323 322 322 322 321 321 321 321 320 320 320 321 321 321 322 321 321 321 321 321 321 321 320 320 320 320 320 320 320 320 320 320 320 319 319 319 319 319 318
322 322 321 321 321 321 320 320 320 320 320 320 319 320 320 320 321 321 321 320 320 320 320 320 320 319 319 319 319 319 319 319 319 319 319 319 318 318 318 317 317 317
321 321 321 321 320 320 320 319 319 319 319 319 319 319 320 320 320 320 320 319 319 319 319 319 318 318 318 318 318 318 319 319 318 318 318 318 318 317 317 316 316 316
320 320 320 320 319 319 319 319 319 319 318 319 318 319 319 319 319 319 318 319 318 318 318 318 318 318 318 317 317 317 318 318 318 317 317 318 317 317 316 315 315 315
319 319 319 319 319 319 318 318 318 318 318 318 318 318 318 318 318 318 318 318 318 317 317 317 317 317 317 317 317 317 317 317 317 317 317 317 316 316 315 314 314 313
318 319 318 318 318 318 318 317 317 317 317 318 318 318 318 318 317 317 317 317 317 316 316 316 316 316 316 316 316 316 316 316 316 316 316 316 315 315 314 313 313 312
318 318 317 317 317 317 317 317 316 316 317 317 317 317 317 317 316 316 316 316 316 315 315 314 314 315 315 315 315 315 315 315 315 315 315 315 314 314 314 313 312 312
317 317 317 316 316 316 316 316 316 316 316 317 317 316 316 316 316 315 315 314 314 313 313 312 311 312 312 313 314 314 314 314 314 314 314 314 313 313 313 313 312 311
317 316 316 316 315 316 316 316 315 315 316 316 316 316 315 315 315 314 314 313 312 311 311 309 309 309 311 311 312 313 313 312 312 312 312 313 312 311 311 312 311 310
317 316 316 315 315 315 315 315 315 315 315 315 315 315 314 314 314 313 312 311 310 309 308 307 306 307 308 309 310 311 311 311 310 310 310 311 310 310 309 309 309 309
316 316 315 315 315 315 315 315 315 315 315 314 314 314 314 313 313 312 311 310 309 308 307 305 304 305 306 307 308 309 310 309 308 308 308 309 309 308 308 307 306 307
316 315 315 315 315 315 315 315 315 315 314 314 314 313 313 312 312 311 310 309 308 307 306 304 303 304 305 306 306 307 308 308 307 306 307 307 307 307 307 306 306 305
316 315 315 315 315 315 315 315 314 314 314 313 313 312 312 311 311 310 309 308 307 306 306 304 303 303 304 305 306 306 306 306 305 305 305 305 306 307 306 305 305 305
316 315 315 315 315 315 314 314 314 313 313 312 312 311 311 310 310 309 308 307 306 305 305 303 302 303 304 304 305 306 306 306 305 304 304 304 304 305 306 305 304 304
315 315 315 315 314 314 314 313 313 312 312 311 311 310 310 309 309 308 307 306 305 304 303 302 302 303 303 304 305 305 306 306 306 304 303 302 302 303 303 304 304 303
315 315 314 314 314 313 313 313 312 312 311 311 310 310 309 308 307 307 306 305 304 303 302 301 301 302 303 303 304 305 305 306 306 305 304 302 301 301 301 301 302 303
315 315 314 313 313 313 312 312 311 310 310 309 309 309 308 307 307 306 305 304 304 303 302 300 300 302 303 303 304 305 305 305 305 305 304 303 302 301 299 299 299 300
314 314 313 313 312 312 311 310 310 309 308 308 308 308 307 307 306 306 305 304 303 302 301 300 299 300 302 303 303 304 305 305 305 304 304 304 303 302 300 298 297 297
314 313 312 312 311 310 310 309 308 308 307 307 307 306 306 305 305 304 303 303 302 301 300 299 298 299 301 303 303 304 305 305 304 304 304 303 303 302 301 299 298 297
313 312 312 311 310 309 309 308 307 307 306 306 306 305 304 304 304 303 303 303 302 301 301 299 297 296 299 302 303 303 304 304 304 304 304 303 302 302 301 300 299 297
312 311 310 310 309 308 308 307 306 306 306 305 305 304 304 304 303 303 303 302 301 301 300 300 298 296 295 299 302 303 304 304 304 304 303 302 302 301 301 300 299 298

ECMWFNIL_925_thetae_126.txt.gz
Theta_e
332 332 331 330 329 329 328 328 328 326 327 327 327 326 325 324 325 324 325 324 324 323 323 324 324 324 325 325 324 324 324 324 324 325 324 322 322 323 321 322 322 321
331 330 329 328 327 327 328 327 326 326 326 326 325 324 324 324 324 324 324 323 323 323 323 323 324 324 324 324 323 323 323 322 323 323 322 321 321 321 321 321 321 320
330 329 328 327 327 326 326 325 325 325 325 324 324 324 324 324 323 323 323 323 323 323 322 322 323 322 323 322 322 322 321 321 321 321 321 320 320 320 319 319 319 319
328 327 327 326 326 325 324 324 324 324 323 323 323 323 323 323 323 322 322 323 323 322 322 321 321 321 321 321 321 321 320 320 320 320 320 319 318 318 318 318 318 318
327 326 326 326 325 324 324 324 323 323 322 322 322 322 323 323 323 322 322 322 322 322 321 320 320 320 320 320 320 319 319 319 319 319 319 318 318 318 317 317 316 316
325 325 325 325 324 323 323 323 322 322 321 321 321 322 322 322 322 321 321 321 320 320 320 319 319 319 319 319 319 319 319 319 318 318 318 318 317 317 316 315 315 315
324 324 324 323 322 322 322 322 321 321 321 321 321 321 322 321 321 320 320 319 319 319 319 319 319 318 318 318 318 318 318 318 318 318 318 317 316 315 315 314 313 313
323 323 322 322 321 321 321 321 321 320 320 320 321 321 320 320 320 320 319 319 319 319 318 318 318 318 317 317 318 318 318 317 317 317 317 316 315 314 314 313 312 312
322 322 321 321 321 321 320 320 320 320 320 320 320 320 320 319 319 319 319 318 318 318 318 317 317 317 317 317 317 317 317 316 316 316 316 316 314 314 313 312 312 311
322 321 321 320 320 320 320 320 319 320 320 319 319 319 319 319 318 318 318 318 317 317 316 316 317 317 317 316 316 316 316 316 315 315 315 315 314 313 312 312 311 311
321 320 320 320 320 319 319 319 319 319 319 319 319 318 318 318 317 317 317 316 315 315 314 314 315 315 315 315 315 315 315 315 315 314 314 313 313 313 312 311 311 311
320 320 319 319 319 319 318 318 319 319 319 318 318 318 317 317 316 316 315 314 313 312 312 312 313 313 313 314 314 314 313 313 314 314 313 312 312 312 311 311 310 310
319 319 319 318 318 318 317 318 318 318 318 317 317 317 316 316 315 314 313 312 311 310 310 311 311 311 312 312 313 312 311 311 312 312 311 310 309 308 309 309 309 309
318 318 317 317 317 317 317 317 317 317 317 317 316 316 315 314 313 312 311 310 309 308 309 309 309 310 310 311 311 311 310 309 309 310 310 309 308 307 306 307 308 308
317 317 317 317 317 317 317 317 317 316 316 316 315 315 314 313 312 311 310 308 307 307 307 308 308 308 308 308 309 309 308 308 308 308 308 308 307 306 306 305 306 307
317 317 317 317 317 317 316 316 316 316 315 315 315 314 313 312 311 310 309 307 306 305 306 306 306 306 306 307 307 307 307 306 306 307 307 307 307 306 305 305 304 305
317 317 316 316 316 316 316 316 316 315 315 314 314 313 312 311 310 309 308 307 306 305 305 305 306 306 306 305 305 305 305 305 305 305 306 306 306 305 305 304 303 303
317 317 316 316 316 316 316 315 315 315 314 313 313 312 311 310 309 308 307 306 305 304 304 304 305 305 306 305 305 304 304 303 303 303 303 303 304 304 304 304 303 302
317 317 316 316 316 316 315 315 314 314 313 313 312 311 310 308 308 307 306 305 303 302 303 304 304 305 306 306 305 305 305 303 302 301 301 300 300 301 302 302 302 302
317 317 316 316 316 315 315 314 314 313 312 312 311 310 308 307 306 305 305 304 302 301 302 303 304 304 305 305 306 306 306 305 303 301 300 298 297 297 298 299 300 300
317 316 316 315 315 314 314 313 313 312 311 311 310 309 308 307 306 305 304 303 302 300 301 302 303 303 304 305 305 306 306 305 304 303 301 299 297 296 296 297 298 299
316 316 315 315 314 314 313 313 312 311 310 310 309 308 307 306 305 304 303 303 302 300 300 301 303 303 304 304 305 307 306 305 304 304 303 302 299 297 296 296 297 297
316 315 314 314 314 313 313 312 311 310 309 309 308 307 306 306 305 304 303 302 301 300 299 300 302 303 303 304 305 306 306 305 304 304 303 302 301 300 298 296 296 297
315 314 314 314 313 312 311 311 310 309 308 308 307 307 306 305 304 303 302 301 300 299 299 299 301 302 303 303 304 305 305 305 305 304 303 302 301 301 299 297 296 296
314 314 314 313 312 311 310 310 309 308 307 306 306 305 304 304 303 303 302 302 301 300 298 298 299 301 302 303 304 304 305 304 304 303 302 302 301 300 300 298 296 296
314 313 313 312 311 310 309 308 307 307 306 305 305 304 304 304 303 302 302 301 300 299 298 297 297 299 301 303 304 305 305 304 304 303 302 301 300 300 299 298 297 296